[[{"header":{"parameterUnit":"m.s-1","parameterCategory":1,"la1":31.0,"la2":29.5877,"lo1":-88.7671,"lo2":-86.6584,"dy":0.0162,"dx":0.0185,"nx":115,"ny":88,"refTime":"2026-04-29T12:00:00:Z","depth":0,"parameterNumber":2,"parameterNumberName":"U-component_of_WINDS"},"data":[0.0,0.0,0.0,0.0,0.0,0.0,0.0,0.0,0.0,0.0,0.0,0.0,0.0,0.0,0.0,0.0,0.0,0.0,0.0,0.0,0.0,0.0,0.0,0.0,0.0,0.0,0.0,0.0,0.0,0.0,0.0,0.0,0.0,0.0,0.0,0.0,0.0,0.0,0.0,0.0,0.0,0.0,0.0,0.0,0.0,0.0,0.0,0.0,0.0,0.0,0.0,0.0,0.0,0.0,0.0,0.0,0.0,0.0,0.0,0.0,0.0,0.0,0.0,0.0,0.0,0.0,0.0,0.0,0.0,0.0,0.0,0.0,0.0,0.0,0.0,0.0,0.0,0.0,0.0,0.0,0.0,0.0,0.0,0.0,0.0,0.0,0.0,0.0,0.0,0.0,0.0,0.0,0.0,0.0,0.0,0.0,0.0,0.0,0.0,0.0,0.0,0.0,0.0,0.0,0.0,0.0,0.0,0.0,0.0,0.0,0.0,0.0,0.0,0.0,0.0,0.0,0.0,0.0,0.0,0.0,0.0,0.0,0.0,0.0,0.0,0.0,0.0,0.0,0.0,0.0,0.0,0.0,0.0,0.0,0.0,0.0,0.0,0.0,0.0,0.0,0.0,0.0,0.0,0.0,0.0,0.0,0.0,0.0,0.0,0.0,0.0,0.0,0.0,0.0,0.0,0.0,0.0,0.0,0.0,0.0,0.0,0.0,0.0,0.0,0.0,0.0,0.0,0.0,0.0,0.0,0.0,0.0,0.0,0.0,0.0,0.0,0.0,0.0,0.0,0.0,0.0,0.0,0.0,0.0,0.0,0.0,0.0,0.0,0.0,0.0,0.0,0.0,0.0,0.0,0.0,0.0,0.0,0.0,0.0,0.0,0.0,0.0,0.0,0.0,0.0,0.0,0.0,0.0,0.0,0.0,0.0,0.0,0.0,0.0,0.0,0.0,0.0,0.0,0.0,0.0,0.0,0.0,0.0,0.0,0.0,0.0,0.0,0.0,0.0,0.0,0.0,0.0,0.0,0.0,0.0,0.0,0.0,0.0,0.0,0.0,0.0,0.0,0.0,0.0,0.0,0.0,0.0,0.0,0.0,0.0,0.0,0.0,0.0,0.0,0.0,0.0,0.0,0.0,0.0,0.0,0.0,0.0,0.0,0.0,0.0,0.0,0.0,0.0,0.0,0.0,0.0,0.0,0.0,0.0,0.0,0.0,0.0,0.0,0.0,0.0,0.0,0.0,0.0,0.0,0.0,0.0,0.0,0.0,0.0,0.0,0.0,0.0,0.0,0.0,0.0,0.0,0.0,0.0,0.0,0.0,0.0,0.0,0.0,0.0,0.0,0.0,0.0,0.0,0.0,0.0,0.0,0.0,0.0,0.0,0.0,0.0,0.0,0.0,0.0,0.0,0.0,0.0,0.0,0.0,0.0,0.0,0.0,0.0,0.0,0.0,0.0,0.0,0.0,0.0,0.0,0.0,0.0,0.0,0.0,0.0,0.0,0.0,0.0,0.0,0.0,0.0,0.0,0.0,0.0,0.0,0.0,0.0,0.0,0.0,0.0,0.0,0.0,0.0,0.0,0.0,0.0,0.0,0.0,0.0,0.0,0.0,0.0,0.0,0.0,0.0,0.0,0.0,0.0,0.0,0.0,0.0,0.0,0.0,0.0,0.0,0.0,0.0,0.0,0.0,0.0,0.0,0.0,0.0,0.0,0.0,0.0,0.0,0.0,0.0,0.0,0.0,0.0,0.0,0.0,0.0,0.0,0.0,0.0,0.0,0.0,0.0,0.0,0.0,0.0,0.0,0.0,0.0,0.0,0.0,0.0,0.0,0.0,0.0,0.0,0.0,0.0,0.0,0.0,0.0,0.0,0.0,0.0,0.0,0.0,0.0,0.0,0.0,0.0,0.0,0.0,0.0,0.0,0.0,0.0,0.0,0.0,0.0,0.0,0.0,0.0,0.0,0.0,0.0,0.0,0.0,0.0,0.0,0.0,0.0,0.0,0.0,0.0,0.0,0.0,0.0,0.0,0.0,0.0,0.0,0.0,0.0,0.0,0.0,0.0,0.0,0.0,0.0,0.0,0.0,0.0,0.0,0.0,0.0,0.0,0.0,0.0,0.0,0.0,0.0,0.0,0.0,0.0,0.0,0.0,0.0,0.0,0.0,0.0,0.0,0.0,0.0,0.0,0.0,0.0,0.0,0.0,0.0,0.0,0.0,0.0,0.0,0.0,0.0,0.0,0.0,0.0,0.0,0.0,0.0,0.0,0.0,0.0,0.0,0.0,0.0,0.0,0.0,0.0,0.0,0.0,0.0,0.0,0.0,0.0,0.0,0.0,0.0,0.0,0.0,0.0,0.0,0.0,0.0,0.0,0.0,0.0,0.0,0.0,0.0,0.0,0.0,0.0,0.0,0.0,0.0,0.0,0.0,0.0,0.0,0.0,0.0,0.0,0.0,0.0,0.0,0.0,0.0,0.0,0.0,0.0,0.0,0.0,0.0,0.0,0.0,0.0,0.0,0.0,0.0,0.0,0.0,0.0,0.0,0.0,0.0,0.0,0.0,0.0,0.0,0.0,0.0,0.0,0.0,0.0,0.0,0.0,0.0,0.0,0.0,0.0,0.0,0.0,0.0,0.0,0.0,0.0,0.0,0.0,0.0,0.0,0.0,0.0,0.0,0.0,0.0,0.0,0.0,0.0,0.0,0.0,0.0,0.0,0.0,0.0,0.0,0.0,0.0,0.0,0.0,0.0,0.0,0.0,0.0,0.0,0.0,0.0,0.0,0.0,0.0,0.0,0.0,0.0,0.0,0.0,0.0,0.0,0.0,0.0,0.0,0.0,0.0,0.0,0.0,0.0,0.0,0.0,0.0,0.0,0.0,0.0,0.0,0.0,0.0,0.0,0.0,0.0,0.0,0.0,0.0,0.0,0.0,0.0,0.0,0.0,0.0,0.0,0.0,0.0,0.0,0.0,0.0,0.0,0.0,0.0,0.0,0.0,0.0,0.0,0.0,0.0,0.0,0.0,0.0,0.0,0.0,0.0,0.0,0.0,0.0,0.0,0.0,0.0,0.0,0.0,0.0,0.0,0.0,0.0,0.0,0.0,0.0,0.0,0.0,0.0,0.0,0.0,0.0,0.0,0.0,0.0,0.0,0.0,0.0,0.0,0.0,0.0,0.0,0.0,0.0,0.0,0.0,0.0,0.0,0.0,0.0,0.0,0.0,0.0,0.0,0.0,0.0,0.0,0.0,0.0,0.0,0.0,0.0,0.0,0.0,0.0,0.0,0.0,0.0,0.0,0.0,0.0,0.0,0.0,0.0,0.0,0.0,0.0,0.0,0.0,0.0,0.0,0.0,0.0,0.0,0.0,0.0,0.0,0.0,0.0,0.0,0.0,0.0,0.0,0.0,0.0,0.0,0.0,0.0,0.0,0.0,0.0,0.0,0.0,0.0,0.0,0.0,0.0,0.0,0.0,0.0,0.0,0.0,0.0,0.0,0.0,0.0,0.0,0.0,0.0,0.0,0.0,0.0,0.0,0.0,0.0,0.0,0.0,0.0,0.0,0.0,0.0,0.0,0.0,0.0,0.0,0.0,0.0,0.0,0.0,0.0,0.0,0.0,0.0,0.0,0.0,0.0,0.0,0.0,0.0,0.0,0.0,0.0,0.0,0.0,0.0,0.0,0.0,0.0,0.0,0.0,0.0,0.0,0.0,0.0,0.0,0.0,0.0,0.0,0.0,0.0,0.0,0.0,0.0,0.0,0.0,0.0,0.0,0.0,0.0,0.0,0.0,0.0,0.0,0.0,0.0,0.0,0.0,0.0,0.0,0.0,0.0,0.0,0.0,0.0,0.0,0.0,0.0,0.0,0.0,0.0,0.0,0.0,0.0,0.0,0.0,0.0,0.0,0.0,0.0,0.0,0.0,0.0,0.0,0.0,0.0,0.0,0.0,0.0,0.0,0.0,0.0,0.0,0.0,0.0,0.0,0.0,0.0,0.0,0.0,0.0,0.0,0.0,0.0,0.0,0.0,0.0,0.0,0.0,0.0,0.0,0.0,0.0,0.0,0.0,0.0,0.0,0.0,0.0,0.0,0.0,0.0,0.0,0.0,0.0,0.0,0.0,0.0,0.0,0.0,0.0,0.0,0.0,0.0,0.0,0.0,0.0,0.0,0.0,0.0,0.0,0.0,0.0,0.0,0.0,0.0,0.0,0.0,0.0,0.0,0.0,0.0,0.0,0.0,0.0,0.0,0.0,-0.3419,0.0,0.0,0.0,0.0,0.0,0.0,0.0,0.0,0.0,0.0,0.0,0.0,0.0,0.0,0.0,0.0,0.0,0.0,0.0,0.0,0.0,0.0,0.0,0.0,0.0,0.0,0.0,0.0,0.0,0.0,0.0,0.0,0.0,0.0,0.0,0.0,0.0,0.0,0.0,0.0,0.0,0.0,0.0,0.0,0.0,0.0,0.0,0.0,0.0,0.0,0.0,0.0,0.0,0.0,0.0,0.0,0.0,0.0,0.0,0.0,0.0,0.0,0.0,0.0,0.0,0.0,0.0,0.0,0.0,0.0,0.0,0.0,0.0,0.0,0.0,0.0,0.0,0.0,0.0,0.0,0.0,0.0,0.0,0.0,0.0,0.0,0.0,0.0,0.0,0.0,0.0,0.0,0.0,0.0,0.0,0.0,0.0,0.0,0.0,0.0,0.0,0.0,0.0,0.0,0.0,0.0,0.0,0.0,0.0,0.0,-0.3062,-0.313,-0.3165,-0.3218,-0.3298,0.0,0.0,0.0,0.0,0.0,0.0,0.0,0.0,0.0,0.0,0.0,0.0,0.0,0.0,0.0,0.0,0.0,0.0,0.0,0.0,0.0,0.0,0.0,0.0,0.0,0.0,0.0,0.0,0.0,0.0,0.0,0.0,0.0,0.0,0.0,0.0,0.0,0.0,0.0,0.0,0.0,0.0,0.0,0.0,0.0,0.0,0.0,0.0,0.0,0.0,0.0,0.0,0.0,0.0,0.0,0.0,0.0,0.0,0.0,0.0,0.0,0.0,0.0,0.0,0.0,0.0,0.0,0.0,0.0,0.0,0.0,0.0,0.0,0.0,0.0,0.0,0.0,0.0,0.0,0.0,0.0,0.0,0.0,0.0,0.0,0.0,0.0,0.0,0.0,0.0,0.0,0.0,0.0,0.0,0.0,0.0,0.0,0.0,0.0,0.0,0.0,0.0,0.0,0.0,0.0,0.0,0.0,0.0,0.0,0.0,0.0,0.0,-0.3211,-0.3218,-0.3192,0.0,0.0,0.0,0.0,0.0,0.0,0.0,0.0,0.0,0.0,0.0,0.0,0.0,0.0,0.0,0.0,0.0,0.0,0.0,0.0,0.0,0.0,0.0,0.0,0.0,0.0,0.0,0.0,0.0,0.0,0.0,0.0,0.0,0.0,0.0,0.0,0.0,0.0,0.0,0.0,0.0,0.0,0.0,0.0,0.0,0.0,0.0,0.0,0.0,0.0,0.0,0.0,0.0,0.0,0.0,0.0,0.0,0.0,0.0,0.0,0.0,0.0,0.0,0.0,0.0,0.0,0.0,0.0,0.0,0.0,0.0,0.0,0.0,0.0,0.0,0.0,0.0,0.0,0.0,0.0,0.0,0.0,0.0,0.0,0.0,0.0,0.0,0.0,0.0,0.0,0.0,0.0,0.0,0.0,0.0,0.0,0.0,0.0,0.0,0.0,0.0,0.0,0.0,0.0,0.0,0.0,0.0,0.0,0.0,0.0,-0.3562,-0.3635,-0.3641,0.0,-0.3142,0.0,0.0,0.0,0.0,0.0,0.0,0.0,0.0,0.0,0.0,0.0,0.0,0.0,0.0,0.0,0.0,0.0,0.0,0.0,0.0,0.0,0.0,0.0,0.0,0.0,0.0,0.0,0.0,0.0,0.0,0.0,0.0,0.0,0.0,0.0,0.0,0.0,0.0,0.0,0.0,0.0,0.0,0.0,0.0,0.0,0.0,0.0,0.0,0.0,0.0,0.0,0.0,0.0,0.0,0.0,0.0,0.0,0.0,0.0,0.0,0.0,0.0,0.0,0.0,0.0,0.0,0.0,0.0,0.0,0.0,0.0,0.0,0.0,0.0,0.0,0.0,0.0,0.0,0.0,0.0,0.0,0.0,0.0,0.0,0.0,0.0,0.0,0.0,0.0,0.0,0.0,0.0,0.0,0.0,0.0,0.0,0.0,0.0,0.0,0.0,0.0,0.0,0.0,0.0,0.0,0.0,0.0,0.0,0.0,0.0,0.0,-0.404,-0.4066,-0.3845,0.0,0.0,0.0,0.0,0.0,0.0,0.0,0.0,0.0,0.0,0.0,0.0,0.0,0.0,0.0,0.0,0.0,0.0,0.0,0.0,0.0,0.0,0.0,0.0,0.0,0.0,0.0,0.0,0.0,0.0,0.0,0.0,0.0,0.0,0.0,0.0,0.0,0.0,0.0,0.0,0.0,0.0,0.0,0.0,0.0,0.0,0.0,0.0,0.0,0.0,0.0,0.0,0.0,0.0,0.0,0.0,0.0,0.0,0.0,0.0,0.0,0.0,0.0,0.0,0.0,0.0,0.0,0.0,0.0,0.0,0.0,0.0,0.0,0.0,0.0,0.0,0.0,0.0,0.0,0.0,0.0,0.0,0.0,0.0,0.0,0.0,0.0,0.0,0.0,0.0,0.0,0.0,0.0,0.0,0.0,0.0,0.0,0.0,0.0,0.0,0.0,0.0,0.0,0.0,0.0,0.0,0.0,0.0,0.0,0.0,-0.349,0.0,-0.4278,-0.43,-0.4025,-0.343,0.0,0.0,0.0,0.0,0.0,0.0,0.0,0.0,0.0,0.0,0.0,0.0,0.0,0.0,0.0,0.0,0.0,0.0,0.0,0.0,0.0,0.0,0.0,0.0,0.0,0.0,0.0,0.0,0.0,0.0,0.0,0.0,0.0,0.0,0.0,0.0,0.0,0.0,0.0,0.0,0.0,0.0,0.0,0.0,0.0,0.0,0.0,0.0,0.0,0.0,0.0,0.0,0.0,0.0,0.0,0.0,0.0,0.0,0.0,0.0,0.0,0.0,0.0,0.0,0.0,0.0,0.0,0.0,0.0,0.0,0.0,0.0,0.0,0.0,0.0,0.0,0.0,0.0,0.0,0.0,0.0,0.0,0.0,0.0,0.0,0.0,0.0,0.0,0.0,0.0,0.0,0.0,0.0,0.0,0.0,0.0,0.0,0.0,0.0,0.0,0.0,0.0,0.0,0.0,0.0,0.0,0.0,0.0,0.0,-0.3788,-0.4278,-0.43,-0.43,-0.3865,0.0,0.0,0.0,0.0,0.0,0.0,0.0,0.0,0.0,0.0,0.0,0.0,0.0,0.0,0.0,0.0,0.0,0.0,0.0,0.0,0.0,0.0,0.0,0.0,0.0,0.0,0.0,0.0,0.0,0.0,0.0,0.0,0.0,0.0,0.0,0.0,0.0,0.0,0.0,0.0,0.0,0.0,0.0,0.0,0.0,0.0,0.0,0.0,0.0,0.0,0.0,0.0,0.0,0.0,0.0,0.0,0.0,0.0,0.0,0.0,0.0,0.0,0.0,0.0,0.0,0.0,0.0,0.0,0.0,0.0,0.0,0.0,0.0,0.0,0.0,0.0,0.0,0.0,0.0,0.0,0.0,0.0,0.0,0.0,0.0,0.0,0.0,0.0,0.0,0.0,0.0,0.0,0.0,0.0,0.0,0.0,0.0,0.0,0.0,0.0,0.0,0.0,0.0,0.0,0.0,0.0,0.0,0.0,0.0,-0.2928,-0.3828,-0.43,-0.43,-0.43,-0.4045,0.0,0.0,0.0,0.0,0.0,0.0,0.0,0.0,0.0,0.0,0.0,0.0,0.0,0.0,0.0,0.0,0.0,0.0,0.0,0.0,0.0,0.0,0.0,0.0,0.0,0.0,0.0,0.0,0.0,0.0,0.0,0.0,0.0,0.0,0.0,0.0,0.0,0.0,0.0,0.0,0.0,0.0,0.0,0.0,0.0,0.0,0.0,0.0,0.0,0.0,0.0,0.0,0.0,0.0,0.0,0.0,0.0,0.0,0.0,0.0,0.0,0.0,0.0,0.0,0.0,0.0,0.0,0.0,0.0,0.0,0.0,0.0,0.0,0.0,0.0,0.0,0.0,0.0,0.0,0.0,0.0,0.0,0.0,0.0,0.0,0.0,0.0,0.0,0.0,0.0,0.0,0.0,0.0,0.0,0.0,0.0,0.0,0.0,0.0,0.0,0.0,0.0,0.0,0.0,0.0,0.0,0.0,0.0,0.0,-0.3587,0.0,-0.43,0.0,-0.4156,-0.3891,0.0,0.0,0.0,0.0,0.0,0.0,0.0,0.0,0.0,0.0,0.0,0.0,0.0,0.0,0.0,0.0,0.0,0.0,0.0,0.0,0.0,0.0,0.0,0.0,0.0,0.0,0.0,0.0,0.0,0.0,0.0,0.0,0.0,0.0,0.0,0.0,0.0,0.0,0.0,0.0,0.0,0.0,0.0,0.0,0.0,0.0,0.0,0.0,0.0,0.0,0.0,0.0,0.0,0.0,0.0,0.0,0.0,0.0,0.0,0.0,0.0,0.0,0.0,0.0,0.0,0.0,0.0,0.0,0.0,0.0,0.0,0.0,0.0,0.0,0.0,0.0,0.0,0.0,0.0,0.0,0.0,0.0,0.0,0.0,0.0,0.0,0.0,0.0,0.0,0.0,0.0,0.0,0.0,0.0,0.0,0.0,0.0,0.0,0.0,0.0,0.0,0.0,0.0,0.0,0.0,0.0,0.0,0.0,-0.4512,-0.491,-0.4545,-0.4327,-0.4284,-0.3868,-0.3408,0.0,0.0,0.0,0.0,0.0,0.0,0.0,0.0,0.0,0.0,0.0,0.0,0.0,0.0,0.0,0.0,0.0,0.0,0.0,0.0,0.0,0.0,0.0,0.0,0.0,0.0,0.0,0.0,0.0,0.0,0.0,0.0,0.0,0.0,0.0,0.0,0.0,0.0,0.0,0.0,0.0,0.0,0.0,0.0,0.0,0.0,0.0,0.0,0.0,0.0,0.0,0.0,0.0,0.0,0.0,0.0,0.0,0.0,0.0,0.0,0.0,0.0,0.0,0.0,0.0,0.0,0.0,0.0,0.0,0.0,0.0,0.0,0.0,0.0,0.0,0.0,0.0,0.0,0.0,0.0,0.0,0.0,0.0,0.0,0.0,0.0,0.0,0.0,0.0,0.0,0.0,0.0,0.0,0.0,0.0,0.0,0.0,0.0,0.0,0.0,0.0,0.0,0.0,0.0,0.0,0.0,0.0,0.0,0.0,-0.4514,-0.4688,-0.4628,-0.4306,-0.384,-0.3377,0.0,0.0,0.0,0.0,0.0,0.0,0.0,0.0,0.0,0.0,0.0,0.0,0.0,0.0,0.0,0.0,0.0,0.0,0.0,0.0,0.0,0.0,0.0,0.0,0.0,0.0,0.0,0.0,0.0,0.0,0.0,0.0,0.0,0.0,0.0,0.0,0.0,0.0,0.0,0.0,0.0,0.0,0.0,0.0,0.0,0.0,0.0,0.0,0.0,0.0,0.0,0.0,0.0,0.0,0.0,0.0,0.0,0.0,0.0,0.0,0.0,0.0,0.0,0.0,0.0,0.0,0.0,0.0,0.0,0.0,0.0,0.0,0.0,0.0,0.0,0.0,0.0,0.0,0.0,0.0,0.0,0.0,0.0,0.0,0.0,0.0,0.0,0.0,0.0,0.0,0.0,0.0,0.0,0.0,0.0,0.0,0.0,0.0,0.0,0.0,0.0,0.0,0.0,0.0,0.0,0.0,0.0,0.0,0.0,-0.5383,-0.5498,-0.5439,-0.5128,-0.4478,-0.3906,-0.3448,0.0,0.0,0.0,0.0,0.0,0.0,0.0,0.0,0.0,0.0,0.0,0.0,0.0,0.0,0.0,0.0,0.0,0.0,0.0,0.0,0.0,0.0,0.0,0.0,0.0,0.0,0.0,0.0,0.0,0.0,0.0,0.0,0.0,0.0,0.0,0.0,0.0,0.0,0.0,0.0,0.0,0.0,0.0,0.0,0.0,0.0,0.0,0.0,0.0,0.0,0.0,0.0,0.0,0.0,0.0,0.0,0.0,0.0,0.0,0.0,0.0,0.0,0.0,0.0,0.0,0.0,0.0,0.0,0.0,0.0,0.0,0.0,0.0,0.0,0.0,0.0,0.0,0.0,0.0,0.0,0.0,0.0,0.0,0.0,0.0,0.0,0.0,0.0,0.0,0.0,0.0,0.0,0.0,0.0,0.0,0.0,0.0,0.0,0.0,0.0,0.0,0.0,0.0,0.0,0.0,0.0,0.0,0.0,-0.7212,-0.6848,-0.6602,-0.6493,-0.5557,-0.484,0.0,0.0,0.0,0.0,0.0,0.0,0.0,0.0,0.0,0.0,0.0,0.0,0.0,0.0,0.0,0.0,0.0,0.0,0.0,0.0,0.0,0.0,0.0,0.0,0.0,0.0,0.0,0.0,0.0,0.0,0.0,0.0,0.0,0.0,0.0,0.0,0.0,0.0,0.0,0.0,0.0,0.0,0.0,0.0,0.0,0.0,0.0,0.0,0.0,0.0,0.0,0.0,0.0,0.0,0.0,0.0,0.0,0.0,0.0,0.0,0.0,0.0,0.0,0.0,0.0,0.0,0.0,0.0,0.0,0.0,0.0,0.0,0.0,0.0,0.0,0.0,0.0,0.0,0.0,0.0,0.0,0.0,0.0,0.0,0.0,0.0,0.0,0.0,0.0,0.0,0.0,0.0,0.0,0.0,0.0,0.0,0.0,0.0,0.0,0.0,0.0,0.0,0.0,0.0,0.0,0.0,0.0,0.0,0.0,-0.7678,-0.7946,-0.7708,-0.7039,-0.6078,-0.5528,0.0,0.0,0.0,0.0,0.0,0.0,0.0,0.0,0.0,0.0,0.0,0.0,0.0,0.0,0.0,0.0,0.0,0.0,0.0,0.0,0.0,0.0,0.0,0.0,0.0,0.0,0.0,0.0,0.0,0.0,0.0,0.0,0.0,0.0,0.0,0.0,0.0,0.0,0.0,0.0,0.0,0.0,0.0,0.0,0.0,0.0,0.0,0.0,0.0,0.0,0.0,0.0,0.0,0.0,0.0,0.0,0.0,0.0,0.0,0.0,0.0,0.0,0.0,0.0,0.0,0.0,0.0,0.0,0.0,0.0,0.0,0.0,0.0,0.0,0.0,0.0,0.0,0.0,0.0,0.0,0.0,0.0,0.0,0.0,0.0,0.0,0.0,0.0,0.0,0.0,0.0,0.0,0.0,0.0,0.0,0.0,0.0,0.0,0.0,0.0,0.0,0.0,0.0,0.0,0.0,0.0,0.0,0.0,-0.7547,-0.8459,-0.8978,-0.8845,-0.8105,-0.717,-0.6507,0.0,0.0,0.0,0.0,0.0,0.0,0.0,0.0,0.0,0.0,0.0,0.0,0.0,0.0,0.0,0.0,0.0,0.0,0.0,0.0,0.0,0.0,0.0,0.0,0.0,0.0,0.0,0.0,0.0,0.0,0.0,0.0,0.0,0.0,0.0,0.0,0.0,0.0,0.0,0.0,0.0,0.0,0.0,0.0,0.0,0.0,0.0,0.0,0.0,0.0,0.0,0.0,0.0,0.0,0.0,0.0,0.0,0.0,0.0,0.0,0.0,0.0,0.0,0.0,0.0,0.0,0.0,0.0,0.0,0.0,0.0,0.0,0.0,0.0,0.0,0.0,0.0,0.0,0.0,0.0,0.0,0.0,0.0,0.0,0.0,0.0,0.0,0.0,0.0,0.0,0.0,0.0,0.0,0.0,0.0,0.0,0.0,0.0,0.0,0.0,0.0,0.0,0.0,0.0,0.0,0.0,0.0,0.0,-0.8366,-0.9368,-0.984,-0.9835,-0.9294,-0.8426,-0.7525,0.0,0.0,0.0,0.0,0.0,0.0,0.0,0.0,0.0,0.0,0.0,0.0,0.0,0.0,0.0,0.0,0.0,0.0,0.0,0.0,0.0,0.0,0.0,0.0,0.0,0.0,0.0,0.0,0.0,0.0,0.0,0.0,0.0,0.0,0.0,0.0,0.0,0.0,0.0,0.0,0.0,0.0,0.0,0.0,0.0,0.0,0.0,0.0,0.0,0.0,0.0,0.0,0.0,0.0,0.0,0.0,0.0,0.0,0.0,0.0,0.0,0.0,0.0,0.0,0.0,0.0,0.0,0.0,0.0,0.0,0.0,0.0,0.0,0.0,0.0,0.0,0.0,0.0,0.0,0.0,0.0,0.0,0.0,0.0,0.0,0.0,0.0,0.0,0.0,0.0,0.0,0.0,0.0,0.0,0.0,0.0,0.0,0.0,0.0,0.0,0.0,0.0,0.0,0.0,0.0,0.0,0.0,0.0,-0.8579,-0.9862,-1.0042,-0.9846,-0.9335,-0.8747,-0.7991,0.0,0.0,0.0,0.0,0.0,0.0,0.0,0.0,0.0,0.0,0.0,0.0,0.0,0.0,0.0,0.0,0.0,0.0,0.0,0.0,0.0,0.0,0.0,0.0,0.0,0.0,0.0,0.0,0.0,0.0,0.0,0.0,0.0,0.0,0.0,0.0,0.0,0.0,0.0,0.0,0.0,0.0,0.0,0.0,0.0,0.0,0.0,0.0,-0.1256,0.0,0.0,0.0,0.0,0.0,0.0,0.0,0.0,0.0,0.0,0.0,0.0,0.0,0.0,0.0,0.0,0.0,0.0,0.0,0.0,0.0,0.0,0.0,0.0,0.0,0.0,0.0,0.0,0.0,0.0,0.0,0.0,0.0,0.0,0.0,0.0,0.0,0.0,0.0,0.0,0.0,0.0,0.0,0.0,0.0,0.0,0.0,0.0,0.0,0.0,0.0,0.0,0.0,0.0,0.0,0.0,0.0,0.0,0.0,-0.9174,-1.0398,-1.0638,-1.0408,-0.9689,-0.9436,-0.86,0.0,0.0,0.0,0.0,0.0,0.0,0.0,0.0,0.0,0.0,0.0,0.0,0.0,0.0,0.0,0.0,0.0,0.0,0.0,0.0,0.0,0.0,0.0,0.0,0.0,0.0,0.0,0.0,0.0,0.0,0.0,0.0,0.0,0.0,0.0,0.0,0.0,0.0,0.0,0.0,0.0,0.0,0.0,0.0,0.0,0.0,0.0,0.0,0.0,0.0,0.0,0.0,0.0,0.0,0.0,0.0,0.0,0.0,0.0,0.0,0.0,0.0,0.0,0.0,0.0,0.0,0.0,0.0,0.0,0.0,0.0,0.0,0.0,0.0,0.0,0.0,0.0,0.0,0.0,0.0,0.0,0.0,0.0,0.0,0.0,0.0,0.0,0.0,0.0,0.0,0.0,0.0,0.0,0.0,0.0,0.0,0.0,0.0,0.0,0.0,0.0,0.0,0.0,0.0,0.0,0.0,0.0,-0.8932,-0.9896,-1.0878,-1.138,-1.1173,-1.0245,-1.0141,-0.9196,-0.7271,0.0,0.0,0.0,0.0,0.0,0.0,0.0,0.0,0.0,0.0,0.0,0.0,0.0,0.0,0.0,0.0,0.0,0.0,0.0,0.0,0.0,0.0,0.0,0.0,0.0,0.0,0.0,0.0,0.0,0.0,0.0,0.0,0.0,0.0,0.0,0.0,0.0,0.0,-0.1066,-0.1232,0.0,0.0,0.0,0.0,0.0,0.0,0.0,0.0,-0.0901,0.0,0.0,0.0,0.0,0.0,0.0,0.0,0.0,0.0,0.0,0.0,0.0,0.0,0.0,0.0,0.0,0.0,0.0,0.0,0.0,0.0,0.0,0.0,0.0,0.0,0.0,0.0,0.0,0.0,0.0,0.0,0.0,0.0,0.0,0.0,0.0,0.0,0.0,0.0,0.0,0.0,0.0,0.0,0.0,0.0,0.0,0.0,0.0,0.0,0.0,0.0,0.0,0.0,0.0,0.0,0.0,-0.8448,-0.9458,-1.0414,-1.138,-1.1856,-1.1643,-1.0709,-1.0311,-0.9319,-0.7674,0.0,0.0,0.0,0.0,0.0,0.0,0.0,0.0,0.0,0.0,0.0,0.0,0.0,0.0,0.0,0.0,0.0,0.0,0.0,0.0,0.0,0.0,0.0,0.0,0.0,0.0,0.0,0.0,0.0,0.0,0.0,0.0,0.0,0.0,0.0,0.0,0.0,0.0,0.0,-0.1499,-0.1586,0.0,0.0,0.0,0.0,0.0,0.0,0.0,0.0,-0.029,0.0,0.0,0.0,0.0,0.0,0.0,0.0,0.0,0.0,0.0,0.0,0.0,0.0,0.0,0.0,0.0,0.0,0.0,0.0,0.0,0.0,0.0,0.0,0.0,0.0,0.0,0.0,0.0,0.0,0.0,0.0,0.0,0.0,0.0,0.0,0.0,0.0,0.0,0.0,0.0,0.0,0.0,0.0,0.0,0.0,0.0,0.0,0.0,0.0,0.0,0.0,0.0,0.0,0.0,0.0,-0.8535,-0.983,-1.0796,-1.1506,-1.1942,-1.161,-1.0424,-0.9858,-0.8746,0.0,0.0,0.0,0.0,0.0,0.0,0.0,0.0,0.0,0.0,0.0,0.0,0.0,0.0,0.0,0.0,0.0,0.0,0.0,0.0,0.0,0.0,0.0,0.0,0.0,0.0,0.0,0.0,0.0,0.0,0.0,0.0,0.0,0.0,0.0,0.0,0.0,0.0,0.0,0.0,-0.1646,-0.1731,-0.1627,0.0,0.0,0.0,0.0,0.0,0.0,-0.1011,-0.0335,0.0,0.0,0.0,0.0,0.0,0.0,0.0,0.0,0.0,0.0,0.0,0.0,0.0,0.0,0.0,0.0,0.0,0.0,0.0,0.0,0.0,0.0,0.0,0.0,0.0,0.0,0.0,0.0,0.0,0.0,0.0,0.0,0.0,0.0,0.0,0.0,0.0,0.0,0.0,0.0,0.0,0.0,0.0,0.0,0.0,0.0,0.0,0.0,0.0,0.0,0.0,0.0,0.0,0.0,0.0,-0.8568,-1.0157,-1.1129,-1.1491,-1.199,-1.1567,-1.0172,-0.9467,-0.8275,0.0,0.0,0.0,0.0,0.0,0.0,0.0,0.0,0.0,0.0,0.0,0.0,0.0,0.0,0.0,0.0,0.0,0.0,0.0,0.0,0.0,0.0,0.0,0.0,0.0,0.0,0.0,0.0,0.0,0.0,0.0,0.0,0.0,0.0,0.0,0.0,0.0,0.0,0.0,0.0,0.0,-0.1832,-0.1854,-0.1616,0.0,0.0,0.0,0.0,-0.1674,-0.1152,0.0,0.0,0.0,0.0,0.0,0.0,0.0,0.0,0.0,0.0,0.0,0.0,0.0,0.0,0.0,0.0,0.0,0.0,0.0,0.0,0.0,0.0,0.0,0.0,0.0,0.0,0.0,0.0,0.0,0.0,0.0,0.0,0.0,0.0,0.0,0.0,0.0,0.0,0.0,0.0,0.0,0.0,0.0,0.0,0.0,0.0,0.0,0.0,0.0,0.0,0.0,0.0,0.0,0.0,0.0,0.0,-0.8578,-1.0445,-1.1462,-1.1529,-1.2345,-1.2093,-1.0659,-0.9739,-0.8674,0.0,0.0,0.0,0.0,0.0,0.0,0.0,0.0,0.0,0.0,0.0,0.0,0.0,0.0,0.0,0.0,0.0,0.0,0.0,0.0,0.0,0.0,0.0,0.0,0.0,0.0,0.0,0.0,0.0,0.0,0.0,0.0,0.0,0.0,0.0,0.0,0.0,0.0,0.0,0.0,0.0,-0.1953,-0.2028,-0.1954,-0.169,0.0,0.0,0.0,-0.1463,-0.1023,0.0,0.0,0.0,0.0,0.0,0.0,0.0,0.0,0.0,0.0,0.0,0.0,0.0,0.0,0.0,0.0,0.0,0.0,0.0,0.0,0.0,0.0,0.0,0.0,0.0,0.0,0.0,0.0,0.0,0.0,0.0,0.0,0.0,0.0,0.0,0.0,0.0,0.0,0.0,0.0,0.0,0.0,0.0,0.0,0.0,0.0,0.0,0.0,0.0,0.0,0.0,0.0,0.0,0.0,0.0,-0.6722,-0.8568,-1.0161,-1.1129,-1.1491,-1.2054,-1.182,-1.0734,-0.9675,-0.8518,0.0,0.0,0.0,0.0,0.0,0.0,0.0,0.0,0.0,0.0,0.0,0.0,0.0,0.0,0.0,0.0,0.0,0.0,0.0,0.0,0.0,0.0,0.0,0.0,0.0,0.0,0.0,0.0,0.0,0.0,0.0,0.0,0.0,0.0,0.0,0.0,0.0,0.0,0.0,0.0,0.0,0.0,-0.2285,-0.2096,0.0,0.0,0.0,-0.1636,-0.1828,0.0,0.0,0.0,0.0,0.0,0.0,0.0,0.0,0.0,0.0,0.0,0.0,0.0,0.0,0.0,0.0,0.0,0.0,0.0,0.0,0.0,0.0,0.0,0.0,0.0,0.0,0.0,0.0,0.0,0.0,0.0,0.0,0.0,0.0,0.0,0.0,0.0,0.0,0.0,0.0,0.0,0.0,0.0,0.0,0.0,0.0,0.0,0.0,0.0,0.0,0.0,0.0,0.0,0.0,0.0,0.0,0.0,-0.8573,-0.995,-1.0913,-1.148,-1.182,-1.1572,-1.0724,-0.9643,0.0,0.0,0.0,0.0,0.0,0.0,0.0,0.0,0.0,0.0,0.0,0.0,0.0,0.0,0.0,0.0,0.0,0.0,0.0,0.0,0.0,0.0,0.0,0.0,0.0,0.0,0.0,-0.0079,0.0,0.0,0.0,0.0,0.0,0.0,0.0,0.0,0.0,0.0,0.0,0.0,0.0,0.0,-0.2091,-0.2398,-0.2214,-0.1943,0.0,0.0,-0.1823,-0.2023,-0.1675,-0.1217,0.0,0.0,0.0,0.0,0.0,0.0,0.0,0.0,0.0,0.0,0.0,0.0,0.0,0.0,0.0,0.0,0.0,0.0,0.0,0.0,0.0,0.0,0.0,0.0,0.0,0.0,0.0,0.0,0.0,0.0,0.0,0.0,0.0,0.0,0.0,0.0,0.0,0.0,0.0,0.0,0.0,0.0,0.0,0.0,0.0,0.0,0.0,0.0,0.0,0.0,0.0,0.0,0.0,0.0,0.0,-0.8568,-1.0026,-1.1025,-1.1474,-1.1926,-1.1725,-1.0724,-0.9772,-0.8717,0.0,0.0,0.0,0.0,0.0,0.0,0.0,0.0,0.0,0.0,0.0,0.0,0.0,0.0,0.0,0.0,0.0,0.0,0.0,0.0,0.0,0.0,0.0,0.0,0.0,0.0,0.0,0.0,0.0,0.0,0.0,0.0,0.0,0.0,0.0,0.0,0.0,0.0,0.0,0.0,0.0,-0.1994,-0.218,-0.2349,-0.2292,0.0,0.0,-0.2048,-0.1687,-0.19,-0.1753,-0.0695,0.0,0.0,0.0,0.0,0.0,0.0,0.0,0.0,0.0,0.0,0.0,0.0,0.0,0.0,0.0,0.0,0.0,0.0,0.0,0.0,0.0,0.0,0.0,0.0,0.0,0.0,0.0,0.0,0.0,0.0,0.0,0.0,0.0,0.0,0.0,0.0,0.0,0.0,0.0,0.0,0.0,0.0,0.0,0.0,0.0,0.0,0.0,0.0,0.0,0.0,0.0,0.0,0.0,-0.669,-0.8573,-0.969,-1.065,-1.1452,-1.1627,-1.154,-1.1182,-1.0232,-0.9192,0.0,0.0,0.0,0.0,0.0,0.0,0.0,0.0,0.0,0.0,0.0,0.0,0.0,0.0,0.0,0.0,0.0,0.0,0.0,0.0,0.0,0.0,0.0,0.0,0.0,0.0,0.0,0.0,-0.1053,-0.119,-0.119,0.0,0.0,0.0,0.0,0.0,0.0,0.0,0.0,0.0,0.0,-0.192,-0.1996,-0.2289,0.0,0.0,-0.1946,-0.2104,-0.1906,-0.1737,-0.1455,-0.0737,-0.0134,0.0,0.0,0.0,0.0,0.0,0.0,0.0,0.0,0.0,0.0,0.0,0.0,0.0,0.0,0.0,0.0,0.0,0.0,0.0,0.0,0.0,0.0,0.0,0.0,0.0,0.0,0.0,0.0,0.0,0.0,0.0,0.0,0.0,0.0,0.0,0.0,0.0,0.0,0.0,0.0,0.0,0.0,0.0,0.0,0.0,0.0,0.0,0.0,0.0,0.0,0.0,0.0,-0.669,-0.8578,-0.9511,-1.0466,-1.1458,-1.1459,-1.1459,-1.1495,-1.0543,-0.9556,0.0,0.0,0.0,0.0,0.0,0.0,0.0,0.0,0.0,0.0,0.0,0.0,0.0,0.0,0.0,0.0,0.0,0.0,0.0,0.0,0.0,0.0,0.0,0.0,0.0,0.0,0.0,0.0,-0.1127,-0.1244,-0.12,0.0,0.0,0.0,0.0,0.0,0.0,0.0,0.0,0.0,0.0,-0.1851,-0.1837,-0.2116,-0.218,-0.1703,-0.1871,-0.2036,-0.2012,-0.1541,-0.1029,-0.0409,0.0,0.0,0.0,0.0,0.0,0.0,0.0,0.0,0.0,0.0,0.0,0.0,0.0,0.0,0.0,0.0,0.0,0.0,0.0,0.0,0.0,0.0,0.0,0.0,0.0,0.0,0.0,0.0,0.0,0.0,-0.346,0.0,0.0,0.0,0.0,0.0,0.0,0.0,0.0,0.0,0.0,0.0,0.0,0.0,0.0,0.0,0.0,0.0,0.0,0.0,0.0,0.0,0.0,0.0,-0.8573,-0.9578,-1.0545,-1.149,-1.1522,-1.1485,-1.1501,-1.0578,-0.9755,-0.9042,0.0,0.0,0.0,0.0,0.0,0.0,0.0,0.0,0.0,0.0,0.0,0.0,0.0,0.0,0.0,0.0,0.0,0.0,0.0,0.0,0.0,0.0,0.0,0.0,0.0,0.0,-0.1609,-0.1504,-0.1338,0.0,0.0,0.0,0.0,0.0,0.0,0.0,0.0,0.0,0.0,-0.1917,-0.1791,-0.1731,-0.1869,-0.1913,-0.167,-0.1713,-0.1856,-0.1993,-0.128,-0.0466,0.0,0.0,0.0,0.0,0.0,0.0,0.0,0.0,0.0,0.0,0.0,0.0,0.0,0.0,0.0,0.0,0.0,0.0,0.0,0.0,0.0,0.0,0.0,0.0,0.0,0.0,0.0,-0.6702,-0.6097,0.0,0.0,0.0,0.0,0.0,0.0,0.0,0.0,0.0,0.0,0.0,-0.916,-0.932,0.0,0.0,0.0,0.0,0.0,0.0,0.0,0.0,0.0,0.0,0.0,0.0,-0.7147,-0.9008,-0.9742,-1.0574,-1.1484,-1.1522,-1.1522,-1.1474,-1.0543,-0.9271,-0.7614,0.0,0.0,0.0,0.0,0.0,0.0,0.0,0.0,0.0,0.0,0.0,0.0,0.0,0.0,0.0,0.0,0.0,0.0,0.0,0.0,0.0,0.0,0.0,0.0,0.0,-0.1501,0.0,0.0,0.0,0.0,0.0,0.0,0.0,0.0,0.0,0.0,0.0,-0.1866,-0.1892,-0.1827,-0.172,-0.179,-0.1731,-0.1747,0.0,0.0,0.0,0.0,0.0,0.0,0.0,0.0,0.0,0.0,0.0,0.0,0.0,0.0,0.0543,0.0393,0.0495,0.0708,0.1061,0.0,0.0,0.0,0.0,0.0,0.0,0.0,0.0,0.0,0.0,0.0,0.0,0.0,0.0,-0.8692,0.0,-0.8061,0.0,0.0,0.0,0.0,0.0,0.0,0.0,0.0,-1.0508,-1.0745,-1.0772,-1.0766,-1.0706,0.0,-1.0705,-0.9866,0.0,0.0,0.0,0.0,0.0,0.0,0.0,0.0,-0.7699,-0.924,-0.9988,-1.0714,-1.1479,-1.1522,-1.1522,-1.1463,-1.048,-0.9029,-0.71,-0.6378,-0.5877,0.0,0.0,0.0,0.0,0.0,0.0,0.0,0.0,0.0,0.0,0.0,0.0,0.0,0.0,0.0,0.0,0.0,0.0,0.0,0.0,0.0,0.0,0.0,-0.1695,0.0,0.0,0.0,0.0,0.0,0.0,0.0,0.0,0.0,-0.2264,-0.2132,-0.2072,-0.2019,-0.1836,-0.1704,-0.1794,0.0,0.0,0.0,0.0,0.0,0.0,0.0,-0.0401,0.0477,0.0678,0.0697,0.0724,0.0597,0.0565,0.0658,0.0,0.0,0.053,0.0597,0.0771,0.1033,0.1115,0.1146,0.1278,0.145,0.1563,0.0,0.0,0.0,0.0,0.0,0.0,0.0,0.0,-1.0834,-1.0827,0.0,-1.0193,0.0,0.0,0.0,0.0,0.0,0.0,0.0,0.0,-1.1799,-1.2053,-1.2059,-1.2053,-1.2007,-1.1957,-1.2191,-1.2008,-1.1365,-0.9237,0.0,0.0,0.0,0.0,0.0,0.0,-0.8388,-0.9384,-1.0321,-1.1031,-1.1501,-1.1522,-1.1474,-1.1431,-1.0395,-0.9097,-0.7628,-0.7426,-0.6965,-0.6089,-0.5558,0.0,0.0,0.0,0.0,0.0,0.0,0.0,0.0,0.0,0.0,0.0,0.0,0.0,0.0,0.0,0.0,0.0,0.0,0.0,0.0,-0.1698,0.0,0.0,0.0,0.0,0.0,0.0,0.0,0.0,0.0,0.0,-0.3649,-0.2809,-0.2237,-0.2383,0.0,0.0,0.0,0.0,-0.1473,-0.1762,-0.1797,-0.1797,-0.1797,-0.1203,-0.0419,0.0497,0.0,0.0,0.0708,0.0669,0.0657,0.0709,0.0946,0.1034,0.0715,0.0731,0.0861,0.1041,0.1138,0.1222,0.1288,0.148,0.1558,-1.6102,0.0,0.0,0.0,0.0,-1.3411,-1.3359,-1.3269,-1.3262,-1.3276,-1.3228,-1.2645,0.0,0.0,0.0,0.0,0.0,0.0,-1.1766,-1.2452,-1.301,-1.3278,-1.3278,-1.3291,-1.3214,-1.3051,-1.3067,-1.2758,-1.2115,-1.1417,-1.0521,-0.945,0.0,0.0,0.0,0.0,-0.9384,-1.0332,-1.0654,-1.1031,-1.1511,-1.1522,-1.128,-1.0794,-1.0122,-0.9398,-0.8532,-0.784,-0.7349,-0.7075,-0.6028,0.0,0.0,0.0,0.0,0.0,0.0,0.0,0.0,0.0,0.0,0.0,0.0,0.0,0.0,0.0,0.0,0.0,0.0,0.0,-0.2046,-0.2226,-0.2258,0.0,0.0,0.0,0.0,0.0,0.0,0.0,0.0,0.0,-0.3664,-0.3066,-0.2563,0.0,0.0,-0.1625,-0.1657,-0.1489,-0.1472,-0.1763,0.0,0.0,0.0,-0.1631,-0.1257,-0.0558,-0.0206,0.0159,0.0759,0.0843,0.0898,0.1146,0.1365,0.1298,0.0818,0.0702,0.0737,0.08,0.096,0.1142,0.1284,0.1483,0.1705,-1.8948,-1.7661,-1.6656,-1.6214,-1.6173,-1.5806,-1.5551,-1.5358,-1.529,-1.529,-1.5325,-1.4741,-1.4254,-1.3875,-1.3016,0.0,0.0,0.0,-1.3525,-1.4025,-1.4332,-1.4454,-1.4467,-1.4461,-1.4391,-1.4224,-1.4075,-1.381,-1.3465,-1.3176,-1.2624,-1.1882,0.0,0.0,-1.0175,-1.0077,-1.0272,-1.0838,-1.0987,-1.1233,-1.1517,-1.1522,-1.1091,-1.0255,-0.9957,-0.9441,-0.8657,-0.8096,-0.7685,-0.7499,-0.6912,-0.6226,0.0,0.0,0.0,0.0,0.0,0.0,0.0,0.0,0.0,0.0,0.0,-0.0531,0.0,0.0,0.0,0.0,-0.2753,-0.3392,-0.2775,-0.2945,0.0,0.0,0.0,0.0,0.0,0.0,0.0,-0.4101,-0.38,-0.364,-0.3936,-0.3406,-0.2842,-0.2447,-0.1952,-0.1587,-0.1612,0.0,-0.1629,-0.1777,-0.1797,-0.1797,-0.1797,-0.1797,-0.1661,-0.1327,-0.075,-0.0328,0.0112,0.0561,0.1035,0.1425,0.1689,0.1663,0.1245,0.0988,0.0808,0.0719,0.0897,0.1153,0.1298,0.1552,0.1784,-2.1101,-2.117,-1.9792,-1.9058,-1.8744,-1.8007,-1.7518,-1.7236,-1.707,-1.7083,-1.7195,-1.6539,-1.6206,-1.6037,-1.487,0.0,0.0,-1.4985,-1.5158,-1.5676,-1.5588,-1.5493,-1.55,-1.5493,-1.5462,-1.5374,-1.5076,-1.5012,-1.5057,-1.448,-1.4196,-1.4143,-1.2308,-1.1225,-1.0978,-1.1103,-1.1124,-1.0974,-1.1324,-1.1517,-1.1522,-1.1522,-1.0972,-0.9898,-0.9829,-0.933,-0.8301,-0.8241,-0.7995,-0.7597,-0.7959,-0.7405,-0.5732,0.0,0.0,0.0,0.0,0.0,0.0,0.0,0.0,0.0,0.0,0.0,0.0,0.0,0.0,0.0,-0.4148,0.0,-0.3474,-0.3783,0.0,0.0,0.0,-0.3237,-0.2221,-0.3436,-0.4503,-0.4895,0.0,0.0,0.0,0.0,-0.3068,-0.2693,-0.2038,-0.1629,-0.1631,-0.1723,-0.1797,-0.1797,-0.1797,-0.1797,-0.1797,-0.1797,-0.1794,-0.173,-0.1178,-0.0728,-0.0785,0.0056,0.0953,0.1783,0.2071,0.2123,0.185,0.1411,0.1097,0.0878,0.0953,0.1165,0.1394,0.1614,0.1877,-2.3282,-2.2981,-2.2718,-2.1805,-2.0505,-2.0071,-1.9809,-1.9573,-1.9454,-1.9335,-1.9202,-1.8131,-1.7081,-1.6055,-1.5777,-1.5687,-1.5786,-1.5743,-1.5721,-1.5706,-1.5682,-1.5581,-1.55,-1.55,-1.5462,-1.5387,-1.5203,-1.5159,-1.5165,-1.503,-1.4755,-1.4358,-1.3842,-1.3217,-1.2398,-1.2054,-1.1786,-1.1673,-1.1551,-1.1522,-1.1522,-1.1522,-1.1124,-1.0361,-0.9989,-0.9478,-0.8771,-0.8373,-0.8169,-0.8037,-0.8125,-0.7696,-0.6546,-0.5847,0.0,0.0,0.0,0.0,0.0,0.0,0.0,0.0,0.0,-0.1891,-0.1476,0.0,-0.3391,0.0,-0.3972,-0.4357,-0.4371,-0.4737,0.0,0.0,-0.3809,-0.3568,-0.3244,-0.354,-0.3987,-0.444,-0.4328,-0.4272,-0.4411,-0.3669,-0.3051,-0.2863,-0.2193,-0.1755,-0.1755,-0.1776,-0.1797,-0.1797,-0.1797,-0.1797,-0.1797,-0.1797,-0.1797,-0.1797,-0.1403,-0.1178,-0.1178,-0.0449,0.0729,0.2129,0.2523,0.2411,0.1909,0.1691,0.1606,0.1539,0.1321,0.1222,0.1538,0.1741,0.1885,-2.4695,-2.4226,-2.4328,-2.3603,-2.2359,-2.2115,-2.1657,-2.1091,-2.1012,-2.0647,-2.013,-1.9223,-1.8406,-1.7719,-1.7706,-1.7672,-1.7605,-1.7316,-1.7102,-1.6977,-1.6599,-1.6408,-1.635,-1.6297,-1.6258,-1.6218,-1.612,-1.6074,-1.6054,-1.5834,-1.5569,-1.5309,-1.4747,-1.4185,-1.359,-1.2776,-1.23,-1.2144,-1.1901,-1.176,-1.1765,-1.1723,-1.1281,-1.0496,-1.0102,-0.9547,-0.87,-0.8403,-0.8239,-0.8215,-0.8215,-0.7768,-0.6852,-0.5967,-0.5281,0.0,0.0,0.0,0.0,0.0,0.0,0.0,0.0,0.0,0.0,0.0,-0.3924,0.0,-0.4903,0.0,-0.5256,-0.5446,-0.531,-0.4745,-0.4354,-0.4055,-0.394,-0.3989,-0.4096,-0.4293,-0.432,-0.4375,-0.4562,-0.3761,-0.3056,-0.2995,-0.2326,-0.1797,-0.1797,-0.1797,-0.1797,-0.1797,-0.1797,-0.1797,-0.1797,-0.1797,-0.1797,-0.1797,-0.1628,-0.1403,-0.1291,-0.0561,0.0504,0.1963,0.2523,0.2579,0.2244,0.2076,0.2019,0.2111,0.2007,0.1774,0.1594,0.1757,0.1977,-2.5659,-2.5209,-2.5194,-2.4821,-2.4154,-2.3927,-2.3192,-2.2199,-2.2106,-2.1528,-2.0513,-2.0092,-1.9857,-1.9782,-1.9731,-1.9738,-1.9659,-1.9044,-1.8681,-1.8567,-1.7867,-1.7512,-1.7398,-1.7302,-1.7247,-1.7247,-1.7234,-1.7205,-1.7186,-1.6728,-1.646,-1.6349,-1.5343,-1.4732,-1.4459,-1.3436,-1.2764,-1.2449,-1.2258,-1.215,-1.2174,-1.206,-1.1548,-1.0599,-1.0298,-0.9638,-0.8578,-0.8397,-0.8262,-0.8215,-0.8215,-0.7819,-0.7022,-0.6252,-0.5789,0.0,-0.4904,0.0,0.0,0.0,0.0,0.0,0.0,0.0,0.0,-0.3939,-0.4213,-0.6509,-0.6307,-0.6061,-0.6124,-0.5997,-0.5804,-0.5424,-0.4956,-0.4545,-0.442,-0.4524,-0.4555,-0.4324,-0.4351,-0.4564,-0.4798,-0.3906,-0.3188,-0.3069,-0.2405,-0.1908,-0.1797,-0.1797,-0.1797,-0.1797,-0.1797,-0.1797,-0.1797,-0.1797,-0.1797,-0.1797,-0.1684,-0.1572,-0.1403,-0.0673,0.0336,0.1459,0.2243,0.2691,0.2691,0.2465,0.2353,0.2578,0.2617,0.2358,0.1798,0.1849,0.2131,-2.6704,-2.615,-2.6143,-2.5728,-2.504,-2.5004,-2.4349,-2.3286,-2.3135,-2.2433,-2.1469,-2.1133,-2.0689,-2.0113,-2.0019,-1.9887,-1.9792,-1.9564,-1.9165,-1.8587,-1.8437,-1.8044,-1.7502,-1.7447,-1.7406,-1.7356,-1.7356,-1.7302,-1.7205,-1.7094,-1.6826,-1.6395,-1.616,-1.554,-1.4547,0.0,0.0,0.0,-1.2532,-1.2526,-1.2496,-1.2496,-1.2129,-1.1466,-1.0839,0.0,-0.9259,-0.8671,-0.8342,-0.8215,-0.8215,0.0,0.0,0.0,0.0,0.0,0.0,0.0,0.0,0.0,0.0,0.0,-0.7798,-0.6662,-0.5094,-0.5121,-0.5659,-0.6604,-0.707,-0.7144,-0.6796,-0.6748,-0.6575,-0.6065,-0.5361,-0.4872,-0.4807,-0.4867,-0.4751,-0.4361,-0.4784,-0.5077,-0.4863,-0.4296,-0.3744,-0.3356,-0.2631,-0.2074,-0.1799,-0.1799,-0.1797,-0.1797,-0.1797,-0.1797,-0.1797,-0.1797,-0.1797,-0.1797,-0.1684,-0.1628,-0.1628,-0.0953,-0.0056,0.0897,0.1961,0.2691,0.2691,0.2635,0.2578,0.2691,0.2691,0.2615,0.2273,0.2169,0.2175,-2.7503,0.0,-2.688,-2.628,0.0,-2.5318,-2.4797,-2.3944,-2.3797,-2.3301,-2.2506,-2.2241,-2.1846,-2.1407,-2.1198,-2.1032,-2.0875,-2.0334,-1.9899,-1.953,-1.8856,-1.8397,-1.8033,-1.7663,-1.7482,-1.7461,-1.7404,-1.7356,-1.7302,-1.724,-1.7061,-1.6794,-1.6526,-1.6062,-1.5431,-1.4816,-1.3986,-1.2908,-1.2902,-1.289,-1.2896,-1.2861,-1.2535,-1.1974,0.0,0.0,0.0,0.0,0.0,0.0,0.0,0.0,0.0,0.0,0.0,-0.7535,-0.7885,-0.7354,-0.5661,-0.6841,-0.8299,-0.9635,-0.8759,-0.7372,-0.5715,-0.6008,-0.6526,-0.7124,-0.7529,-0.7563,-0.7238,-0.7279,-0.7073,-0.6441,-0.5838,-0.538,-0.5083,-0.4816,-0.4644,-0.4613,-0.501,-0.5255,-0.5107,-0.4739,-0.4241,-0.3747,-0.2963,-0.2313,-0.1958,-0.1822,-0.1797,-0.1797,-0.1797,-0.1797,-0.1797,-0.1797,-0.1797,-0.1797,-0.174,-0.174,-0.1797,-0.1403,-0.0785,0.028,0.168,0.2691,0.2691,0.2691,0.2691,0.2691,0.2691,0.2691,0.2573,0.2473,0.2412,-2.8081,-2.758,-2.7588,-2.678,-2.551,-2.5487,-2.5041,-2.431,0.0,0.0,0.0,-2.3157,-2.2934,-2.2792,-2.2495,-2.2217,-2.2056,-2.1203,-2.0716,-2.0579,-1.9466,-1.8816,-1.8694,-1.7975,-1.7598,-1.7564,-1.7474,-1.7398,-1.7411,-1.7253,-1.7205,-1.716,-1.6754,-1.6441,-1.6179,-1.514,-1.4178,-1.3361,-1.3301,-1.3301,-1.3301,-1.3232,-1.2979,-1.2438,-1.2097,-1.1575,-1.0871,-1.0625,-1.0387,-1.021,-0.975,-0.9128,-0.8309,-0.8215,-0.8264,-0.8451,-0.9092,-0.8849,-0.741,-0.834,-0.9426,-1.0474,-0.9249,-0.79,-0.6582,-0.6608,-0.6975,-0.766,-0.7674,-0.7666,-0.7523,-0.7621,-0.7437,-0.6716,-0.6288,-0.5911,-0.5457,-0.4867,-0.4645,-0.4871,-0.5134,-0.5285,-0.5255,-0.5128,-0.4792,-0.4185,-0.3351,-0.2563,-0.2072,-0.1875,-0.1828,-0.1803,-0.1797,-0.1797,-0.1797,-0.1797,-0.1797,-0.1797,-0.1797,-0.1797,-0.1797,-0.1797,-0.1347,-0.0168,0.1457,0.2522,0.2691,0.2691,0.2691,0.2691,0.2691,0.2691,0.2685,0.2632,0.2558,-2.835,-2.8265,-2.8265,-2.7473,-2.6241,-2.6203,-2.5472,-2.4325,-2.4116,-2.3932,-2.3739,-2.3559,-2.3385,-2.3187,-2.2949,-2.2723,-2.2509,-2.2139,-2.1671,0.0,-2.0419,-1.974,-1.9169,-1.8438,-1.7996,-1.7835,-1.7611,-1.7461,-1.7404,-1.726,-1.7205,-1.7192,-1.712,-1.6598,-1.5637,-1.4931,-1.4289,-1.3734,-1.3714,-1.3714,-1.3721,-1.3714,-1.3608,-1.3318,-1.2702,-1.2205,-1.1826,-1.12,-1.0751,-1.0608,-1.0387,-0.9683,-0.8485,-0.8322,-0.8544,-0.9241,-0.9442,-0.9391,-0.9148,-0.9674,-1.0066,-1.0287,-0.9751,-0.8743,-0.7217,-0.6867,-0.6975,-0.7594,-0.7674,-0.767,-0.7527,-0.7628,-0.7571,-0.7222,-0.6671,-0.6329,-0.6263,-0.5628,-0.5169,-0.5201,-0.5281,-0.5327,-0.5281,-0.5244,-0.5075,-0.4636,-0.3699,-0.2803,-0.2158,-0.1956,-0.1905,-0.1824,-0.1797,-0.1797,-0.1797,-0.1797,-0.1797,-0.1797,-0.1797,-0.1797,-0.1797,-0.1797,-0.1347,-0.0224,0.1512,0.2522,0.2691,0.2691,0.2691,0.2691,0.2691,0.2691,0.2691,0.2672,0.2661,-2.8596,-2.8604,-2.8541,-2.7929,-2.7001,-2.614,-2.5226,-2.4333,-2.4193,-2.4135,-2.4094,-2.4009,-2.3925,-2.3761,-2.3443,-2.3209,-2.3024,-2.2716,-2.2436,-2.2085,-2.1141,-2.0463,-2.0039,-1.8906,-1.8247,-1.8095,-1.7679,-1.7482,-1.7419,-1.7288,-1.7205,-1.7205,-1.7205,-1.6624,-1.5545,-1.5219,-1.465,-1.3807,-1.3781,-1.3781,-1.3781,-1.3781,-1.3708,-1.348,-1.317,-1.2843,-1.25,-1.2128,-1.1862,-1.1795,-1.1291,-1.0823,-1.0435,-0.9562,-0.9433,-1.018,-1.0257,-1.0113,-0.9807,-1.0149,-1.0381,-1.0336,-1.0044,-0.9538,-0.8794,-0.7911,-0.7502,-0.7682,-0.7674,-0.7739,-0.7849,-0.7768,-0.7734,-0.7859,-0.7409,-0.7049,-0.6793,-0.6207,-0.5688,-0.5356,-0.5301,-0.5301,-0.5301,-0.5301,-0.5242,-0.4916,-0.3903,-0.2895,-0.2058,-0.2052,-0.205,-0.1992,-0.1884,-0.1805,-0.1797,-0.1797,-0.1797,-0.1797,-0.1797,-0.1797,-0.1797,-0.1797,-0.1291,-0.0168,0.1456,0.2522,0.2691,0.2691,0.2691,0.2691,0.2691,0.2691,0.2691,0.2691,0.2691,-2.8802,-2.8802,-2.8684,-2.8233,-2.7488,-2.5939,-2.5018,-2.4533,-2.4379,-2.431,-2.431,-2.431,-2.4268,-2.4166,-2.3839,-2.3602,-2.3465,-2.3201,-2.3061,-2.2929,-2.1752,-2.1078,-2.0782,-1.9362,-1.8546,-1.839,-1.7922,-1.7645,-1.7591,-1.7352,-1.724,-1.7199,-1.7205,-1.6624,-1.5526,-1.55,-1.4938,-1.3866,-1.3781,-1.3781,-1.3781,-1.3781,-1.3714,-1.3554,-1.348,-1.3316,-1.3035,-1.2943,-1.2908,-1.2797,-1.2145,-1.1925,-1.2158,-1.093,-1.0411,-1.0826,-1.0881,-1.0685,-1.0262,-1.0378,-1.0477,-1.0467,-1.0205,-1.0059,-0.9902,-0.8999,-0.8189,-0.7791,-0.7674,-0.7847,-0.8132,-0.822,-0.8229,-0.8417,-0.8278,-0.7885,-0.7324,-0.6772,-0.6135,-0.5519,-0.5295,-0.5301,-0.5301,-0.5301,-0.5132,-0.4646,-0.3828,-0.2873,-0.2057,-0.1966,-0.2061,-0.2104,-0.1913,-0.1809,-0.1797,-0.1797,-0.1797,-0.1797,-0.1797,-0.1797,-0.1797,-0.1797,-0.1515,-0.0448,0.1344,0.2465,0.2691,0.2691,0.2691,0.2691,0.2691,0.2691,0.2691,0.2691,0.2691,-2.8802,-2.8802,-2.8794,-2.8303,-2.7472,-2.597,-2.531,-2.5133,-2.4579,-2.431,-2.431,-2.431,-2.4284,-2.4166,-2.4032,-2.3882,-2.3739,-2.361,-2.3551,-2.341,-2.2245,-2.152,-2.1234,-1.9781,-1.8943,-1.87,-1.8347,-1.8095,-1.7948,-1.7639,-1.7352,-1.724,-1.7205,-1.663,-1.5624,-1.55,-1.4931,-1.3814,-1.3781,-1.3781,-1.3781,-1.3781,-1.3735,-1.3581,-1.3588,-1.3514,-1.3363,-1.3323,-1.3254,-1.3129,-1.2766,-1.262,-1.2532,-1.1818,-1.1206,-1.0914,-1.0881,-1.0888,-1.0799,-1.0611,-1.052,-1.0539,-1.0395,-1.0166,-0.9922,-0.966,-0.9024,-0.8044,-0.7715,-0.7858,-0.8209,-0.8886,-0.9184,-0.8901,-0.9137,-0.902,-0.7958,-0.7385,-0.6652,-0.5677,-0.5407,-0.5301,-0.5301,-0.5299,-0.4853,-0.4015,-0.3482,-0.2823,-0.2029,-0.1828,-0.1866,-0.185,-0.1802,-0.1801,-0.1797,-0.1797,-0.1797,-0.1797,-0.1797,-0.1797,-0.1797,-0.1797,-0.1684,-0.0841,0.0839,0.2522,0.2691,0.2691,0.2691,0.2691,0.2691,0.2691,0.2691,0.2691,0.2691,-2.8951,-2.8959,-2.8905,-2.8366,-2.7542,-2.6893,-2.6145,-2.531,-2.5033,-2.4695,-2.4333,-2.431,-2.4268,-2.425,-2.42,-2.4135,-2.4094,-2.4044,-2.3994,-2.388,-2.2681,-2.2001,-2.1702,-2.0206,-1.9354,-1.9191,-1.8815,-1.8539,-1.8312,-1.7868,-1.7468,-1.724,-1.7205,-1.6624,-1.5585,-1.55,-1.4931,-1.3827,-1.3781,-1.3781,-1.3781,-1.3781,-1.3741,-1.3621,-1.3628,-1.3514,-1.3419,-1.3385,-1.3323,-1.3204,-1.2914,-1.2739,-1.2709,-1.1926,-1.1346,-1.0957,-1.0881,-1.0881,-1.0881,-1.0679,-1.0587,-1.0582,-1.04,-1.0201,-0.9922,-0.9788,-0.923,-0.816,-0.7791,-0.7916,-0.8451,-0.9168,-0.9504,-0.9362,-0.9485,-0.9253,-0.8309,-0.7506,-0.6815,-0.6052,-0.5567,-0.5301,-0.5299,-0.513,-0.4625,-0.379,-0.3296,-0.2798,-0.1964,-0.1797,-0.1797,-0.1797,-0.1797,-0.1797,-0.1797,-0.1797,-0.1797,-0.1797,-0.1797,-0.1797,-0.1797,-0.1797,-0.1628,-0.0953,0.0952,0.2354,0.2691,0.2635,0.2578,0.2635,0.2691,0.2691,0.2691,0.2691,0.2691,-2.9099,-2.9075,-2.8959,-2.8537,-2.7961,-2.7674,-2.6993,-2.5924,-2.5495,-2.5025,-2.4594,-2.4394,-2.431,-2.431,-2.431,-2.431,-2.431,-2.431,-2.431,-2.414,-2.2925,-2.2263,-2.2034,-2.0555,-1.9726,-1.9522,-1.9258,-1.8907,-1.8584,-1.8114,-1.772,-1.7447,-1.7371,-1.6751,-1.5731,-1.5575,-1.4974,-1.3919,-1.3781,-1.3781,-1.3781,-1.3781,-1.3748,-1.3661,-1.3655,-1.36,-1.3419,-1.3419,-1.3363,-1.3192,-1.2943,-1.2803,-1.2768,-1.2066,-1.1415,-1.0957,-1.0881,-1.0881,-1.0881,-1.0718,-1.0582,-1.0549,-1.039,-1.0166,-0.9932,-0.9867,-0.9381,-0.8369,-0.7919,-0.7979,-0.8626,-0.9248,-0.9592,-0.9625,-0.9597,-0.9295,-0.8537,-0.767,-0.6918,-0.6431,-0.5729,-0.5301,-0.5244,-0.5016,-0.4572,-0.3849,-0.3408,-0.2854,-0.202,-0.1797,-0.1797,-0.1797,-0.1797,-0.1797,-0.1797,-0.1797,-0.1797,-0.1797,-0.1797,-0.1797,-0.1797,-0.1797,-0.1572,-0.0785,0.0896,0.1848,0.2184,0.2296,0.2578,0.2635,0.2691,0.2691,0.2691,0.2691,0.2691,-2.9099,-2.9091,-2.8967,-2.8873,-2.8771,-2.7984,-2.7573,-2.7171,-2.5931,-2.5287,-2.5095,-2.4571,-2.431,-2.431,-2.431,-2.431,-2.431,-2.431,-2.431,-2.4179,-2.2917,-2.2263,-2.2103,-2.0687,-1.9919,-1.9797,-1.9595,-1.9177,-1.8669,-1.8376,-1.8121,-1.7882,-1.776,-1.7043,-1.5938,-1.57,-1.5066,-1.3946,-1.3781,-1.3781,-1.3781,-1.3781,-1.3781,-1.3781,-1.3775,-1.3674,-1.3527,-1.348,-1.3385,-1.321,-1.3012,-1.2931,-1.2924,-1.2395,-1.168,-1.0995,-1.0881,-1.0881,-1.0881,-1.0718,-1.0587,-1.052,-1.0409,-1.0132,-0.9788,-1.0015,-0.9686,-0.8655,-0.8105,-0.8125,-0.8648,-0.9259,-0.9607,-0.9625,-0.9593,-0.9278,-0.8633,-0.7717,-0.7085,-0.6655,-0.5896,-0.5354,-0.5299,-0.5024,-0.4632,-0.4076,-0.3635,-0.3023,-0.2132,-0.1797,-0.1797,-0.1797,-0.1797,-0.1797,-0.1797,-0.1797,-0.1797,-0.1797,-0.1797,-0.1797,-0.1797,-0.174,-0.1347,-0.0897,0.0168,0.0952,0.1511,0.2015,0.2465,0.2635,0.2635,0.2691,0.2635,0.2691,0.2691,-2.9099,-2.9091,-2.9075,-2.8974,-2.8873,-2.8552,-2.7866,-2.6882,-2.6305,-2.5543,-2.4725,-2.441,-2.431,-2.431,-2.431,-2.431,-2.431,-2.431,-2.431,-2.4156,-2.2909,-2.2294,-2.211,-2.0845,-2.0173,-2.0131,-2.0045,-1.9711,-1.9214,-1.899,-1.8693,-1.8365,-1.8161,-1.7361,-1.6201,-1.5828,-1.5111,-1.3939,-1.3781,-1.3781,-1.3781,-1.3781,-1.3781,-1.3781,-1.3781,-1.3701,-1.3486,-1.348,-1.3431,-1.3204,-1.3088,-1.3053,-1.3047,-1.233,-1.1575,-1.0995,-1.0881,-1.0881,-1.0881,-1.0718,-1.0587,-1.052,-1.0361,-1.0132,-0.9867,-1.0019,-0.9843,-0.8902,-0.8891,-0.8952,-0.8941,-0.9332,-0.9618,-0.9621,-0.9591,-0.9344,-0.8682,-0.8028,-0.7326,-0.6532,-0.5729,-0.5356,-0.5244,-0.5132,-0.4851,-0.4406,-0.4021,-0.3302,-0.2355,-0.1908,-0.1858,-0.1798,-0.1797,-0.1797,-0.1797,-0.1797,-0.1797,-0.1797,-0.1797,-0.1797,-0.1797,-0.1797,-0.1515,-0.1403,-0.0561,0.028,0.0952,0.1847,0.2296,0.2521,0.2522,0.2578,0.2578,0.2635,0.2691,-2.9099,-2.9051,-2.8884,-2.8728,-2.8605,-2.8347,-2.7637,-2.6629,-2.6308,-2.5609,-2.4752,-2.4418,-2.431,-2.431,-2.431,-2.431,-2.431,-2.431,-2.431,-2.4179,-2.2917,-2.2294,-2.207,-2.0944,-2.0304,-2.0296,-2.0262,-2.0003,-1.9624,-1.9442,-1.9177,-1.88,-1.8584,-1.7848,-1.6736,-1.6186,-1.5363,-1.4377,-1.3946,-1.3815,-1.3821,-1.3781,-1.3781,-1.3781,-1.3781,-1.3708,-1.3486,-1.348,-1.3419,-1.3226,-1.3129,-1.3163,-1.3088,-1.233,-1.1532,-1.099,-1.0881,-1.0881,-1.0881,-1.0751,-1.0621,-1.0554,-1.04,-1.0176,-0.9867,-0.9858,-0.9448,-0.9014,-0.9219,-0.9475,-0.9336,-0.9453,-0.961,-0.9618,-0.9618,-0.9354,-0.8728,-0.8178,-0.727,-0.6154,-0.5567,-0.5299,-0.5301,-0.5185,-0.499,-0.4748,-0.4424,-0.3737,-0.2973,-0.2499,-0.2128,-0.1904,-0.1818,-0.1803,-0.1797,-0.1797,-0.1797,-0.1797,-0.1797,-0.1797,-0.1797,-0.1797,-0.1797,-0.1684,-0.1178,-0.0336,0.056,0.1511,0.1959,0.224,0.2353,0.2409,0.2465,0.2635,0.2635,-2.9099,-2.8988,-2.8387,-2.8165,-2.805,-2.7394,-2.695,-2.6671,-2.596,-2.554,-2.5145,-2.4613,-2.4302,-2.4302,-2.431,-2.431,-2.431,-2.431,-2.431,-2.4171,-2.2909,-2.2294,-2.2201,-2.0944,-2.0304,-2.0304,-2.0185,-2.003,-1.9839,-1.9747,-1.9559,-1.9214,-1.8997,-1.842,-1.7593,-1.677,-1.5898,-1.499,-1.4326,-1.3927,-1.3821,-1.3781,-1.3781,-1.3781,-1.3781,-1.3701,-1.352,-1.3486,-1.3385,-1.3239,-1.3204,-1.321,-1.3094,-1.2478,-1.1754,-1.1023,-1.0881,-1.0881,-1.0881,-1.0838,-1.0741,-1.0626,-1.0433,-1.0259,-1.0047,-0.9641,-0.9271,-0.911,-0.9329,-0.9592,-0.9581,-0.9596,-0.9618,-0.9618,-0.9618,-0.9361,-0.8896,-0.8293,-0.7208,-0.578,-0.5299,-0.5301,-0.5244,-0.5209,-0.5156,-0.5094,-0.4794,-0.442,-0.3948,-0.344,-0.2877,-0.2247,-0.1917,-0.188,-0.1837,-0.1797,-0.1797,-0.1797,-0.1797,-0.1797,-0.1797,-0.1797,-0.1797,-0.1684,-0.1066,-0.0224,0.056,0.14,0.1736,0.1961,0.2073,0.224,0.2353,0.2465,0.2635,-2.9099,-2.9004,-2.8379,-2.8094,-2.8007,-2.7332,-2.6737,-2.6157,-2.5829,-2.5433,-2.4898,-2.4601,-2.4475,-2.4441,-2.4434,-2.44,-2.4302,-2.431,-2.431,-2.4079,-2.2917,-2.2294,-2.204,-2.0901,-2.0304,-2.0304,-2.027,-2.0185,-2.0143,-2.0108,-1.9975,-1.9754,-1.9545,-1.8957,-1.8057,-1.7446,-1.6583,-1.5318,-1.4835,-1.4391,-1.3867,-1.3781,-1.3781,-1.3781,-1.3781,-1.3741,-1.3575,-1.352,-1.3425,-1.3204,-1.321,-1.321,-1.306,-1.2508,-1.1717,-1.1028,-1.0881,-1.0881,-1.0881,-1.0827,-1.0827,-1.0751,-1.0626,-1.0425,-1.0385,-1.0463,-1.0119,-0.9428,-0.9475,-0.9618,-0.9618,-0.9618,-0.9618,-0.9618,-0.9618,-0.9562,-0.9204,-0.8464,-0.7182,-0.5677,-0.5301,-0.5301,-0.5325,-0.5318,-0.5453,-0.5492,-0.5275,-0.5047,-0.4864,-0.3992,-0.3055,-0.2321,-0.2146,-0.1963,-0.19,-0.1838,-0.1805,-0.1807,-0.1807,-0.1798,-0.1797,-0.1797,-0.1797,-0.1515,-0.0841,-0.0168,0.0616,0.1177,0.1457,0.1626,0.1738,0.1906,0.2128,0.2297,0.2522,-2.9099,-2.9019,-2.8118,-2.7731,-2.7604,-2.6735,-2.6015,-2.5564,-2.5515,-2.519,-2.4733,-2.4638,-2.4556,-2.4531,-2.4498,-2.4457,-2.4343,-2.4317,-2.431,-2.4094,-2.2917,-2.2309,-2.2139,-2.0936,-2.0304,-2.0304,-2.0304,-2.0304,-2.0304,-2.027,-2.0208,-1.9998,-1.9812,-1.9395,-1.8621,-1.7999,-1.7028,-1.5834,-1.5249,-1.4632,-1.3973,-1.3781,-1.3781,-1.3781,-1.3781,-1.3701,-1.3581,-1.3547,-1.3459,-1.3295,-1.3232,-1.321,-1.3135,-1.2514,-1.1754,-1.1104,-1.0881,-1.0881,-1.0881,-1.0871,-1.0871,-1.0876,-1.0756,-1.078,-1.086,-1.1238,-1.073,-0.9687,-0.9528,-0.9618,-0.9618,-0.9618,-0.9618,-0.9618,-0.9618,-0.9562,-0.9354,-0.8524,-0.7303,-0.6089,-0.5584,-0.5474,-0.5374,-0.5579,-0.5734,-0.5825,-0.5613,-0.5534,-0.5241,-0.4383,-0.3331,-0.253,-0.2248,-0.2045,-0.1956,-0.1888,-0.1821,-0.1817,-0.1821,-0.1807,-0.1797,-0.1797,-0.1797,-0.1347,-0.0785,-0.028,0.0448,0.0897,0.1234,0.1347,0.1459,0.1627,0.1906,0.224,0.241,-2.9106,-2.89,-2.7668,-2.7099,-2.6878,-2.5661,-2.5108,-2.5013,-2.4949,-2.4877,-2.4774,-2.4678,-2.4638,-2.4597,-2.4564,-2.449,-2.4457,-2.4359,-2.4225,-2.3863,-2.2917,-2.2209,-2.183,-2.0805,-2.0327,-2.0304,-2.0304,-2.0304,-2.0304,-2.0304,-2.0193,-2.0041,-1.9869,-1.969,-1.9229,-1.8441,-1.7469,-1.6403,-1.5606,-1.4794,-1.3873,-1.3781,-1.3781,-1.3781,-1.3781,-1.3741,-1.3661,-1.3588,-1.352,-1.3385,-1.326,-1.321,-1.31,-1.2538,-1.1845,-1.1173,-1.1023,-1.0948,-1.0933,-1.0974,-1.1025,-1.1054,-1.0982,-1.1111,-1.142,-1.1297,-1.0884,-0.9874,-0.9629,-0.9618,-0.9618,-0.9618,-0.9618,-0.9618,-0.9618,-0.9462,-0.9103,-0.8321,-0.7141,-0.6349,-0.5974,-0.5797,-0.5472,-0.5768,-0.5898,-0.5992,-0.5827,-0.5768,-0.552,-0.4687,-0.354,-0.2822,-0.2354,-0.2173,-0.2014,-0.1997,-0.193,-0.1877,-0.1868,-0.1839,-0.1806,-0.1797,-0.1684,-0.1234,-0.0673,-0.0224,0.0224,0.0729,0.101,0.1178,0.1291,0.1459,0.1739,0.2074,0.2297,-2.9056,-2.8442,-2.7514,-2.6807,-2.6214,-2.5361,-2.5005,-2.5013,-2.4974,-2.4934,-2.4934,-2.4934,-2.4839,-2.4726,-2.4638,-2.4564,-2.449,-2.4336,-2.3987,-2.3479,-2.2709,-2.1686,-2.0998,-2.0528,-2.0304,-2.0304,-2.0304,-2.0304,-2.0304,-2.0304,-2.0193,-2.008,-2.0038,-1.9904,-1.9637,-1.9112,-1.8072,-1.6768,-1.6143,-1.5117,-1.3992,-1.3781,-1.3781,-1.3781,-1.3781,-1.3781,-1.3741,-1.3588,-1.348,-1.3391,-1.326,-1.321,-1.3179,-1.291,-1.2485,-1.2037,-1.1861,-1.1602,-1.1168,-1.124,-1.1465,-1.1561,-1.116,-1.11,-1.1431,-1.1372,-1.0935,-1.0297,-0.988,-0.9618,-0.9618,-0.9618,-0.9618,-0.9618,-0.9618,-0.9302,-0.8567,-0.7408,-0.6502,-0.622,-0.6054,-0.5971,-0.6055,-0.6059,-0.6055,-0.6034,-0.5974,-0.5944,-0.574,-0.5226,-0.4092,-0.3022,-0.2414,-0.2254,-0.2157,-0.2148,-0.2105,-0.1967,-0.1927,-0.1888,-0.1841,-0.1797,-0.1628,-0.1291,-0.0561,-0.0056,0.028,0.0617,0.0841,0.1178,0.1402,0.1683,0.1795,0.2019,0.2128,-2.8878,-2.8307,-2.7137,-2.6396,-2.5937,-2.5298,-2.5005,-2.5005,-2.5005,-2.5005,-2.5005,-2.5005,-2.4974,-2.4894,-2.467,-2.4589,-2.4492,-2.4099,-2.3656,-2.3225,-2.2294,-2.1293,-2.0528,-2.0312,-2.0304,-2.0304,-2.0304,-2.0304,-2.0304,-2.0304,-2.0227,-2.0108,-2.0108,-2.0003,-1.9777,-1.942,-1.8491,-1.705,-1.641,-1.5481,-1.4033,-1.3848,-1.3815,-1.3815,-1.3781,-1.3781,-1.3781,-1.3594,-1.3486,-1.3425,-1.3295,-1.321,-1.3216,-1.3062,-1.2904,-1.2775,-1.2546,-1.2188,-1.2099,-1.199,-1.1807,-1.1696,-1.1222,-1.1136,-1.1114,-1.0995,-1.0557,-1.0356,-0.9884,-0.9669,-0.9618,-0.9618,-0.9618,-0.9618,-0.9618,-0.9302,-0.8669,-0.7241,-0.6578,-0.6494,-0.6413,-0.6168,-0.64,-0.6312,-0.6227,-0.6183,-0.6159,-0.6113,-0.602,-0.5359,-0.4628,-0.349,-0.2554,-0.2267,-0.2192,-0.2185,-0.2097,-0.2031,-0.1909,-0.1873,-0.1824,-0.1765,-0.1572,-0.1234,-0.0505,0.0056,0.028,0.0617,0.1234,0.1514,0.1738,0.1794,0.1906,0.1962,0.2073,-2.8629,-2.8283,-2.6731,-2.6002,-2.5853,-2.5322,-2.5123,-2.5084,-2.5076,-2.5076,-2.5076,-2.5076,-2.5123,-2.5045,-2.4871,-2.4631,-2.4498,-2.3825,-2.3304,-2.2732,-2.1823,-2.0828,-2.0389,-2.0304,-2.0304,-2.0304,-2.0304,-2.0304,-2.0304,-2.0304,-2.0227,-2.0185,-2.015,-2.001,-1.9848,-1.9537,-1.8548,-1.7238,-1.6621,-1.562,-1.4332,-1.396,-1.3868,-1.3815,-1.3781,-1.3781,-1.3741,-1.3628,-1.348,-1.348,-1.3288,-1.3204,-1.3208,-1.307,-1.3227,-1.3346,-1.2932,-1.2813,-1.3248,-1.2694,-1.2172,-1.1832,-1.136,-1.1105,-1.095,-1.0497,-1.0095,-1.0205,-0.9832,-0.9669,-0.9614,-0.9618,-0.9569,-0.9569,-0.9566,-0.9462,-0.8886,-0.7405,-0.6523,-0.7215,-0.6757,-0.6611,-0.6418,-0.6416,-0.6404,-0.6294,-0.6231,-0.6197,-0.6157,-0.5834,-0.4931,-0.3826,-0.2957,-0.222,-0.2217,-0.2216,-0.2121,-0.2015,-0.189,-0.1846,-0.1808,-0.1697,-0.1535,-0.1122,-0.0393,-0.0056,0.0056,0.0617,0.1346,0.1794,0.1961,0.196,0.1959,0.2016,0.2072,-2.796,-2.7191,-2.671,-2.6187,-2.5712,-2.5518,-2.5462,-2.5462,-2.5462,-2.5446,-2.5454,-2.547,-2.5462,-2.5454,-2.5168,-2.4806,-2.4261,-2.3723,-2.3155,-2.1882,-2.1073,-2.0574,-2.0346,-2.0346,-2.0304,-2.0304,-2.0304,-2.0304,-2.0304,-2.0304,-2.0304,-2.027,-2.0227,-2.0158,-1.9927,-1.9628,-1.8813,-1.7396,-1.6822,-1.5791,-1.4517,-1.4078,-1.3921,-1.3815,-1.3847,-1.3801,-1.3748,-1.36,-1.3486,-1.3452,-1.3329,-1.321,-1.3298,-1.3712,-1.3858,-1.3601,-1.347,-1.3393,-1.3476,-1.3104,-1.2726,-1.2451,-1.1612,-1.1014,-1.1159,-1.0269,-0.9884,-0.9943,-0.9777,-0.9618,-0.9614,-0.9476,-0.946,-0.9463,-0.9528,-0.9462,-0.8945,-0.7424,-0.6553,-0.6592,-0.6931,-0.7066,-0.655,-0.6613,-0.6548,-0.642,-0.6302,-0.622,-0.6159,-0.6122,-0.5175,-0.4092,-0.2957,-0.222,-0.222,-0.2153,-0.2073,-0.1986,-0.1873,-0.1588,-0.1556,-0.1568,-0.135,-0.0916,-0.028,-0.0056,0.0056,0.0673,0.1458,0.1793,0.2072,0.2016,0.196,0.2016,0.2128,-2.7773,-2.7242,-2.6636,-2.6147,-2.5873,-2.5832,-2.5832,-2.584,-2.584,-2.584,-2.584,-2.5832,-2.5832,-2.5762,-2.5314,-2.4754,-2.4196,-2.3266,-2.2239,-2.1214,-2.0631,-2.0438,-2.0381,-2.0354,-2.0312,-2.0304,-2.0304,-2.0304,-2.0304,-2.0304,-2.0304,-2.0304,-2.0304,-2.0158,-1.9907,-1.9589,-1.8626,-1.7463,-1.6718,-1.5788,-1.4695,-1.4312,-1.4052,-1.396,-1.4044,-1.4194,-1.418,-1.4298,-1.4156,-1.3881,-1.3487,-1.321,-1.3347,-1.3901,-1.4068,-1.371,-1.3615,-1.3615,-1.3522,-1.3377,-1.3118,-1.2895,-1.1861,-1.1438,-1.1036,-1.0233,-0.9721,-0.9729,-0.9673,-0.9618,-0.9573,-0.9653,-0.9574,-0.9297,-0.9344,-0.9267,-0.8705,-0.7621,-0.6804,-0.6868,-0.7107,-0.7145,-0.7003,-0.6874,-0.6613,-0.6418,-0.642,-0.6349,-0.6353,-0.6113,-0.5262,-0.4223,-0.2957,-0.2288,-0.222,-0.2153,-0.2085,-0.2006,-0.1854,-0.1447,-0.1045,-0.1134,-0.1153,-0.0526,0.0112,0.0056,0.028,0.0897,0.1347,0.1514,0.1738,0.185,0.1961,0.2072,0.224,-2.7647,-2.7508,-2.6582,-2.6175,-2.6183,-2.6202,-2.621,-2.621,-2.621,-2.6218,-2.621,-2.6218,-2.6218,-2.6034,-2.5316,-2.4832,-2.3943,-2.2736,-2.1439,-2.086,-2.0657,-2.0501,-2.0441,-2.0381,-2.0346,-2.0304,-2.0304,-2.0304,-2.0304,-2.0304,-2.0304,-2.0304,-2.0304,-2.0078,-1.9737,-1.9265,-1.8436,-1.7399,-1.6661,-1.5869,-1.5039,-1.4637,-1.4353,-1.4265,-1.4367,-1.4646,-1.4739,-1.4935,-1.4972,-1.4535,-1.369,-1.3295,-1.3393,-1.3885,-1.414,-1.3663,-1.3615,-1.3615,-1.3615,-1.3537,-1.3351,-1.2968,-1.2169,-1.1566,-1.115,-1.034,-0.9773,-0.9618,-0.9618,-0.9618,-0.9591,-0.9756,-0.958,-0.9229,-0.9072,-0.8837,-0.8395,-0.7849,-0.7484,-0.738,-0.7309,-0.7305,-0.7199,-0.7003,-0.6745,-0.6484,-0.642,-0.6356,-0.6356,-0.5954,-0.5022,-0.4088,-0.2822,-0.2288,-0.222,-0.2153,-0.2085,-0.1814,-0.1742,-0.1207,-0.0604,-0.0328,-0.025,0.0058,0.0449,0.0449,0.0505,0.0897,0.1178,0.1291,0.1458,0.1626,0.1849,0.2072,0.2296,-2.7096,-2.6987,-2.6708,-2.6607,-2.6624,-2.6615,-2.6615,-2.6581,-2.6624,-2.6615,-2.6615,-2.6573,-2.6581,-2.6371,-2.5665,-2.4522,-2.3185,-2.202,-2.1336,-2.0974,-2.0827,-2.0662,-2.0501,-2.0407,-2.0381,-2.0312,-2.0304,-2.0304,-2.0304,-2.0304,-2.0304,-2.0304,-2.0304,-2.0028,-1.9519,-1.9058,-1.8482,-1.7535,-1.6845,-1.6125,-1.5509,-1.494,-1.4706,-1.4612,-1.4704,-1.4912,-1.5278,-1.5359,-1.5297,-1.5122,-1.3921,-1.3383,-1.3385,-1.4,-1.4103,-1.3758,-1.3615,-1.3615,-1.3615,-1.3615,-1.3462,-1.3074,-1.2418,-1.1819,-1.1283,-1.0379,-0.9769,-0.9618,-0.9618,-0.9618,-0.9636,-0.984,-0.9612,-0.9141,-0.8643,-0.8311,-0.8139,-0.7804,-0.7517,-0.7524,-0.7461,-0.733,-0.7134,-0.7005,-0.6745,-0.6486,-0.6354,-0.6222,-0.609,-0.5489,-0.4557,-0.3557,-0.2555,-0.2288,-0.222,-0.2153,-0.2085,-0.1614,-0.1343,-0.0805,-0.0201,0.047,0.084,0.0728,0.086,0.1009,0.1066,0.1009,0.1178,0.1458,0.1514,0.1514,0.1793,0.2073,0.2183,-2.7122,-2.7098,-2.7031,-2.7023,-2.6999,-2.7023,-2.7031,-2.6999,-2.7031,-2.699,-2.7031,-2.7023,-2.6982,-2.6683,-2.5695,-2.4171,-2.2658,-2.195,-2.1518,-2.1246,-2.1071,-2.0794,-2.0527,-2.0467,-2.0399,-2.0339,-2.0304,-2.0304,-2.0304,-2.0304,-2.0304,-2.0304,-2.0304,-2.0051,-1.9645,-1.9275,-1.872,-1.7964,-1.7233,-1.6585,-1.5919,-1.5244,-1.4788,-1.493,-1.5089,-1.5369,-1.5885,-1.6165,-1.6061,-1.5821,-1.5351,-1.4442,-1.3957,-1.4047,-1.4408,-1.38,-1.3615,-1.3615,-1.3615,-1.3615,-1.352,-1.3367,-1.2716,-1.2129,-1.1443,-1.0596,-0.9777,-0.9618,-0.9618,-0.9618,-0.9636,-0.9953,-0.9629,-0.8964,-0.8639,-0.8357,-0.7884,-0.7604,-0.7546,-0.7526,-0.7461,-0.7265,-0.6876,-0.6745,-0.6681,-0.6552,-0.6348,-0.609,-0.589,-0.4756,-0.369,-0.3157,-0.2354,-0.2288,-0.222,-0.2153,-0.2018,-0.1614,-0.1075,-0.0538,-0.0,0.0605,0.093,0.096,0.1158,0.1501,0.1234,0.1066,0.1346,0.1629,0.1804,0.192,0.191,0.2017,0.2141,-2.7322,-2.7299,-2.7299,-2.7299,-2.7299,-2.7299,-2.7308,-2.7299,-2.7299,-2.7299,-2.7299,-2.7299,-2.7299,-2.6902,-2.5635,-2.4016,-2.2349,-2.2084,-2.1764,-2.1456,-2.1294,-2.099,-2.0728,-2.0553,-2.0494,-2.0373,-2.0339,-2.0304,-2.0304,-2.0304,-2.0304,-2.0304,-2.0304,-2.0154,-1.979,-1.9339,-1.9112,-1.8505,-1.7818,-1.7053,-1.6356,-1.5346,-1.4797,-1.5117,-1.5412,-1.5787,-1.65,-1.6771,-1.6736,-1.6619,-1.6454,-1.6017,-1.4506,-1.4779,-1.4789,-1.4087,-1.3758,-1.3615,-1.3615,-1.3615,-1.3615,-1.3515,-1.3021,-1.2486,-1.1796,-1.0893,-0.9781,-0.9669,-0.9618,-0.9618,-0.9642,-0.9879,-0.9616,-0.9169,-0.903,-0.8935,-0.7991,-0.7507,-0.7502,-0.7526,-0.7526,-0.7118,-0.653,-0.6587,-0.6493,-0.6303,-0.6107,-0.6088,-0.5624,-0.3689,-0.2689,-0.2555,-0.222,-0.222,-0.222,-0.222,-0.2018,-0.1614,-0.1075,-0.047,0.0067,0.0672,0.0995,0.1509,0.1846,0.206,0.1577,0.13,0.1651,0.2002,0.2227,0.2241,0.2152,0.2203,0.2312,-2.7345,-2.7299,-2.7299,-2.7299,-2.7299,-2.7299,-2.7299,-2.7299,-2.7299,-2.7299,-2.7299,-2.729,-2.7282,-2.6807,-2.5618,-2.4027,-2.2818,-2.2234,-2.199,-2.1721,-2.1509,-2.1301,-2.103,-2.0835,-2.0662,-2.0509,-2.0407,-2.0346,-2.0304,-2.0304,-2.0304,-2.0304,-2.0266,-2.0073,-1.9669,-1.9508,-1.8961,-1.8436,-1.8121,-1.7508,-1.6496,-1.5363,-1.5211,-1.5554,-1.5704,-1.5931,-1.6774,-1.7053,-1.7066,-1.7066,-1.7092,-1.6902,-1.6466,-1.5905,-1.5501,-1.4829,-1.4228,-1.3615,-1.3615,-1.3615,-1.3615,-1.3563,-1.3213,-1.3021,-1.2379,-1.1086,-0.9877,-0.9618,-0.9618,-0.9618,-0.9618,-0.9682,-0.946,-0.956,-0.97,-0.9053,-0.8068,-0.7534,-0.7508,-0.7526,-0.7526,-0.6657,-0.5918,-0.6123,-0.6288,-0.6109,-0.5907,-0.5891,-0.5357,-0.349,-0.222,-0.222,-0.222,-0.222,-0.2086,-0.2153,-0.1883,-0.1546,-0.1008,-0.0403,0.0134,0.0806,0.1881,0.2318,0.2586,0.2642,0.2351,0.2176,0.2222,0.2313,0.2425,0.2378,0.2259,0.2358,0.2494,-2.746,-2.7345,-2.7322,-2.7299,-2.7299,-2.7299,-2.7299,-2.7299,-2.7299,-2.7299,-2.7299,-2.7299,-2.6851,-2.604,-2.5174,-2.4076,-2.2844,-2.2445,-2.2262,-2.2056,-2.1845,-2.1645,-2.1355,-2.1151,-2.0958,-2.0703,-2.0535,-2.0399,-2.0331,-2.0304,-2.0304,-2.0304,-2.0304,-2.0235,-1.9819,-1.9849,-1.9726,-1.9252,-1.8533,-1.756,-1.6535,-1.5525,-1.5061,-1.557,-1.5518,-1.597,-1.6584,-1.7081,-1.7186,-1.7205,-1.7205,-1.7128,-1.6863,-1.6429,-1.6044,-1.5742,-1.496,-1.4217,-1.3705,-1.3663,-1.3615,-1.3615,-1.3415,-1.3319,-1.2876,-1.1688,-1.0395,-1.0146,-0.9769,-0.9621,-0.9632,-0.9618,-0.9514,-0.967,-1.0224,-0.9152,-0.8253,-0.7811,-0.7488,-0.7536,-0.7392,-0.6601,-0.5944,-0.6021,-0.6076,-0.5834,-0.5601,-0.5506,-0.4874,-0.3623,-0.2689,-0.222,-0.222,-0.222,-0.2085,-0.2018,-0.1614,-0.1277,-0.0806,-0.0269,0.0134,0.0873,0.1882,0.2689,0.2917,0.2958,0.2912,0.2695,0.2319,0.2447,0.2591,0.2562,0.2528,0.2718,0.2928,-2.7535,-2.7438,-2.7367,-2.7353,-2.7322,-2.7322,-2.7322,-2.7299,-2.7299,-2.7299,-2.7299,-2.7239,-2.6445,-2.5281,-2.4928,-2.4158,-2.2746,-2.2641,-2.248,-2.2318,-2.2169,-2.1924,-2.1675,-2.1479,-2.1246,-2.0933,-2.0753,-2.0553,-2.0399,-2.0346,-2.0296,-2.0304,-2.0304,-2.0289,-2.0296,-2.0243,-2.015,-2.0042,-1.8742,-1.7711,-1.6827,-1.5521,-1.5179,-1.5203,-1.5358,-1.5617,-1.6336,-1.6728,-1.6963,-1.7205,-1.7205,-1.7128,-1.6882,-1.6614,-1.6399,-1.6138,-1.5591,-1.496,-1.4316,-1.3952,-1.3716,-1.3621,-1.3573,-1.3425,-1.3218,-1.2255,-1.1065,-1.0245,-0.9877,-0.9665,-0.9727,-0.972,-0.9723,-1.0027,-1.0493,-0.9346,-0.8283,-0.7641,-0.7125,-0.6964,-0.6878,-0.6868,-0.6357,-0.6089,-0.5872,-0.5569,-0.5308,-0.5076,-0.4324,-0.3322,-0.2822,-0.222,-0.222,-0.2153,-0.1883,-0.1681,-0.1344,-0.0941,-0.047,-0.0134,0.0202,0.0873,0.1816,0.2488,0.2958,0.3123,0.3033,0.269,0.2358,0.2209,0.2175,0.2694,0.2855,0.2984,0.3211,-2.7578,-2.7587,-2.7496,-2.7452,-2.7367,-2.7393,-2.7353,-2.733,-2.7299,-2.7299,-2.7299,-2.7213,-2.6445,-2.5316,-2.4867,-2.4169,-2.2694,-2.2641,-2.2552,-2.2462,-2.2324,-2.2186,-2.1978,-2.1802,-2.1609,-2.1301,-2.1055,-2.0795,-2.0553,-2.0449,-2.0373,-2.0312,-2.0304,-2.0304,-2.0304,-2.0304,-2.0304,-2.0023,-1.891,-1.8099,-1.7238,-1.6113,-1.5219,-1.5209,-1.5052,-1.518,-1.629,-1.6558,-1.68,-1.7186,-1.7205,-1.717,-1.696,-1.6742,-1.6614,-1.6312,-1.6094,-1.5558,-1.5011,-1.4326,-1.3863,-1.3673,-1.3536,-1.344,-1.3372,-1.306,-1.1859,-1.0135,-0.9721,-0.9864,-0.9903,-0.9962,-1.0154,-1.0372,-1.0606,-1.0017,-0.8756,-0.7311,-0.6802,-0.6402,-0.6439,-0.6733,-0.6605,-0.6343,-0.5727,-0.5349,-0.4467,-0.4159,-0.3754,-0.2951,-0.2539,-0.222,-0.222,-0.2018,-0.1614,-0.1277,-0.0806,-0.0538,-0.0134,-0.0,0.0202,0.1008,0.1681,0.2084,0.2487,0.2823,0.3089,0.2842,0.2495,0.1796,0.1807,0.2527,0.299,0.3217,0.3408,-2.7642,-2.7642,-2.7621,-2.7569,-2.746,-2.7381,-2.735,-2.7353,-2.733,-2.7299,-2.7299,-2.723,-2.6445,-2.535,-2.491,-2.4152,-2.2832,-2.2685,-2.2632,-2.2632,-2.2552,-2.248,-2.2335,-2.2175,-2.2011,-2.1713,-2.1446,-2.1111,-2.0778,-2.0603,-2.0441,-2.0339,-2.0304,-2.0304,-2.0304,-2.0304,-2.0304,-2.0039,-1.93,-1.8594,-1.806,-1.697,-1.6017,-1.5854,-1.586,-1.5884,-1.6388,-1.6741,-1.6983,-1.714,-1.7199,-1.717,-1.7086,-1.6947,-1.6693,-1.6349,-1.61,-1.583,-1.5564,-1.4783,-1.4093,-1.3673,-1.3493,-1.3402,-1.3372,-1.2808,-1.1551,-1.0332,-0.9629,-0.9811,-1.0144,-1.0565,-1.0926,-1.0871,-1.0657,-1.0275,-0.9305,-0.7685,-0.6915,-0.6733,-0.6871,-0.7077,-0.6804,-0.6489,-0.5811,-0.5133,-0.4126,-0.3232,-0.287,-0.2668,-0.2395,-0.222,-0.222,-0.2018,-0.1614,-0.1008,-0.0269,-0.0,0.0202,0.0403,0.0605,0.0739,0.1412,0.1747,0.2218,0.2688,0.3024,0.3024,0.2755,0.2151,0.2217,0.2683,0.3089,0.3363,0.3561,-2.7499,-2.7683,-2.7701,-2.763,-2.7526,-2.7448,-2.7395,-2.7385,-2.7353,-2.7322,-2.7299,-2.7247,-2.6454,-2.535,-2.4954,-2.4143,-2.3048,-2.2712,-2.2712,-2.2685,-2.2685,-2.265,-2.2579,-2.2434,-2.2231,-2.2027,-2.1705,-2.1347,-2.0926,-2.0761,-2.0543,-2.0373,-2.0304,-2.0304,-2.0304,-2.0304,-2.0304,-2.0108,-1.9572,-1.9014,-1.8548,-1.7468,-1.6585,-1.6254,-1.6058,-1.614,-1.6349,-1.6669,-1.6957,-1.712,-1.7205,-1.7205,-1.7205,-1.7122,-1.6784,-1.6269,-1.578,-1.5635,-1.5513,-1.4869,-1.4041,-1.3626,-1.344,-1.3286,-1.3035,-1.2471,-1.1319,-1.0375,-0.9879,-0.9855,-1.0393,-1.1008,-1.1264,-1.1159,-1.0504,-1.0067,-0.9303,-0.8062,-0.7511,-0.7097,-0.7216,-0.7245,-0.6595,-0.6118,-0.5171,-0.4393,-0.3383,-0.2683,-0.245,-0.2305,-0.2272,-0.222,-0.222,-0.1951,-0.1614,-0.0806,-0.0134,0.0269,0.0538,0.0941,0.1142,0.1277,0.1412,0.1883,0.2353,0.2755,0.3024,0.3092,0.2959,0.2623,0.2757,0.2957,0.3092,0.3362,0.3561,-2.7052,-2.7675,-2.7683,-2.7651,-2.7608,-2.7578,-2.7522,-2.7438,-2.7385,-2.7345,-2.7299,-2.7273,-2.6437,-2.5273,-2.5005,-2.4109,-2.2988,-2.2712,-2.2712,-2.2712,-2.2712,-2.2659,-2.2614,-2.2506,-2.2343,-2.2076,-2.1786,-2.1462,-2.0999,-2.0819,-2.0569,-2.0373,-2.0304,-2.0304,-2.0304,-2.0304,-2.0304,-2.0212,-1.9641,-1.9223,-1.8695,-1.7777,-1.7128,-1.6699,-1.6246,-1.6297,-1.6559,-1.6637,-1.6905,-1.714,-1.7199,-1.7205,-1.7205,-1.7205,-1.6778,-1.5919,-1.5175,-1.4949,-1.5011,-1.4129,-1.3758,-1.3621,-1.343,-1.3271,-1.3025,-1.2356,-1.1615,-1.0755,-1.0316,-1.0309,-1.0781,-1.1372,-1.1468,-1.128,-1.0576,-0.9949,-0.923,-0.8255,-0.7629,-0.7284,-0.7371,-0.7244,-0.6453,-0.5638,-0.4597,-0.3623,-0.2657,-0.2198,-0.2118,-0.21,-0.2206,-0.222,-0.2153,-0.1951,-0.1546,-0.0605,0.0067,0.0403,0.0873,0.1344,0.1613,0.1747,0.1883,0.2153,0.2488,0.2957,0.3092,0.3227,0.3092,0.3025,0.3026,0.316,0.3295,0.3429,0.3629,-2.6753,-2.7025,-2.7499,-2.7692,-2.7651,-2.7608,-2.7557,-2.7496,-2.7421,-2.7345,-2.7322,-2.7299,-2.6454,-2.5402,-2.4833,-2.4134,-2.2936,-2.2712,-2.2712,-2.2712,-2.2712,-2.2677,-2.2632,-2.2552,-2.2417,-2.2161,-2.1903,-2.1524,-2.0999,-2.0844,-2.0603,-2.0373,-2.0304,-2.0304,-2.0304,-2.0304,-2.0304,-2.0281,-2.0039,-1.9787,-1.9351,-1.8687,-1.8099,-1.7677,-1.7058,-1.6844,-1.694,-1.6893,-1.699,-1.7153,-1.7179,-1.7153,-1.7192,-1.7205,-1.6784,-1.5869,-1.5051,-1.4466,-1.4326,-1.3863,-1.3663,-1.3563,-1.3462,-1.3314,-1.3122,-1.2647,-1.1948,-1.1428,-1.1011,-1.0986,-1.1121,-1.1446,-1.1516,-1.1289,-1.0743,-1.0176,-0.9419,-0.8278,-0.7481,-0.7474,-0.7458,-0.6937,-0.628,-0.5484,-0.4463,-0.3595,-0.2736,-0.2289,-0.2148,-0.2158,-0.222,-0.222,-0.2153,-0.195,-0.1478,-0.0599,0.0067,0.047,0.1142,0.1882,0.2083,0.2218,0.242,0.269,0.2891,0.3091,0.3159,0.3227,0.3425,0.3425,0.3425,0.336,0.3361,0.3429,0.3631,-2.5963,-2.6235,-2.67,-2.7078,-2.7341,-2.7545,-2.7608,-2.7557,-2.746,-2.7362,-2.727,-2.7014,-2.6204,-2.5212,-2.4617,-2.4022,-2.2772,-2.2712,-2.2712,-2.2712,-2.2712,-2.2703,-2.2677,-2.2597,-2.2462,-2.2234,-2.1998,-2.1615,-2.1182,-2.0982,-2.0703,-2.0415,-2.0312,-2.0304,-2.0304,-2.0304,-2.0304,-2.0296,-2.0177,-2.0089,-1.973,-1.9339,-1.8939,-1.8461,-1.7953,-1.7537,-1.7406,-1.7295,-1.7205,-1.7166,-1.7075,-1.7042,-1.7114,-1.7115,-1.6735,-1.5863,-1.4971,-1.4332,-1.391,-1.3768,-1.3615,-1.3615,-1.3467,-1.3415,-1.3266,-1.2939,-1.231,-1.1874,-1.1653,-1.1444,-1.1304,-1.1575,-1.1523,-1.13,-1.1121,-1.052,-0.9484,-0.8339,-0.7526,-0.7526,-0.7461,-0.6806,-0.6083,-0.5287,-0.4397,-0.3608,-0.2883,-0.2555,-0.222,-0.222,-0.222,-0.222,-0.2153,-0.195,-0.1463,-0.0653,-0.0066,0.0469,0.1274,0.214,0.2486,0.262,0.289,0.3092,0.3092,0.3159,0.316,0.3294,0.3559,0.3758,0.3891,0.3692,0.3492,0.3494,0.3629,-2.4717,-2.5331,-2.5401,-2.591,-2.6613,-2.721,-2.7455,-2.7426,-2.7369,-2.7281,-2.7101,-2.6316,-2.5583,-2.4885,-2.4178,-2.3443,-2.2858,-2.2729,-2.2712,-2.2712,-2.2712,-2.2712,-2.2659,-2.2579,-2.2462,-2.2287,-2.2044,-2.1764,-2.1425,-2.1111,-2.0802,-2.0483,-2.0346,-2.0312,-2.0304,-2.0304,-2.0304,-2.0304,-2.027,-2.0166,-1.9927,-1.9566,-1.9154,-1.8693,-1.8147,-1.772,-1.7523,-1.7317,-1.7247,-1.7068,-1.6807,-1.6859,-1.6977,-1.7166,-1.6595,-1.5818,-1.4875,-1.4228,-1.3763,-1.3615,-1.3615,-1.3615,-1.3515,-1.352,-1.3425,-1.321,-1.2651,-1.1998,-1.1596,-1.1585,-1.1509,-1.1593,-1.1608,-1.1567,-1.1571,-1.069,-0.9545,-0.8552,-0.7782,-0.7526,-0.7526,-0.7001,-0.6079,-0.5218,-0.4225,-0.3692,-0.3024,-0.2488,-0.222,-0.222,-0.222,-0.222,-0.2086,-0.195,-0.1393,-0.0653,-0.0066,0.047,0.1395,0.2251,0.2599,0.2889,0.3092,0.316,0.316,0.3227,0.3227,0.3428,0.3761,0.3959,0.4223,0.4155,0.3956,0.3558,0.3626,-2.4435,-2.4673,-2.5173,-2.5533,-2.5761,-2.5989,-2.6291,-2.6681,-2.6674,-2.6363,-2.5652,-2.5436,-2.4919,-2.4152,-2.3882,-2.3341,-2.2953,-2.2712,-2.2712,-2.2712,-2.2712,-2.2712,-2.2659,-2.2605,-2.2445,-2.229,-2.2076,-2.1874,-2.1515,-2.1222,-2.0893,-2.0618,-2.0415,-2.0339,-2.0304,-2.0304,-2.0304,-2.0304,-2.0304,-2.0173,-1.9998,-1.9639,-1.9229,-1.8777,-1.8266,-1.7841,-1.7564,-1.7317,-1.7205,-1.712,-1.7042,-1.695,-1.6389,-1.6818,-1.6723,-1.5418,-1.4691,-1.4181,-1.371,-1.3615,-1.3615,-1.3615,-1.3563,-1.3483,-1.3488,-1.3314,-1.2805,-1.2147,-1.1441,-1.1226,-1.1374,-1.1545,-1.1593,-1.1622,-1.1435,-1.0734,-0.9646,-0.8683,-0.7912,-0.7526,-0.7526,-0.7066,-0.6143,-0.482,-0.3959,-0.3559,-0.3091,-0.2488,-0.222,-0.222,-0.222,-0.222,-0.2102,-0.1956,-0.1399,-0.0728,-0.0067,0.0535,0.1455,0.2242,0.2669,0.2956,0.3092,0.3227,0.3227,0.3227,0.3227,0.3493,0.3826,0.4293,0.449,0.4488,0.4418,0.409,0.3957,-2.3813,-2.3892,-2.4304,-2.4655,-2.4989,-2.5279,-2.5514,-2.5605,-2.583,-2.5588,-2.5074,-2.478,-2.4382,-2.3967,-2.3577,-2.3135,-2.2764,-2.2703,-2.2712,-2.2712,-2.2712,-2.2712,-2.2685,-2.2632,-2.2516,-2.2345,-2.2226,-2.2101,-2.1718,-2.126,-2.0901,-2.0711,-2.0475,-2.0339,-2.0304,-2.0304,-2.0304,-2.0304,-2.027,-2.02,-1.9975,-1.9682,-1.931,-1.8898,-1.8397,-1.7969,-1.757,-1.733,-1.7205,-1.7127,-1.7075,-1.6846,-1.6353,-1.6645,-1.5946,-1.4772,-1.4507,-1.4087,-1.371,-1.3615,-1.3615,-1.3615,-1.3615,-1.3472,-1.3382,-1.3273,-1.2609,-1.196,-1.1286,-1.085,-1.1158,-1.1486,-1.1556,-1.1622,-1.1118,-1.0678,-0.9713,-0.8748,-0.8104,-0.7654,-0.7265,-0.6937,-0.6013,-0.4688,-0.3758,-0.3491,-0.3091,-0.2422,-0.222,-0.222,-0.222,-0.222,-0.2069,-0.1879,-0.1356,-0.0798,-0.0066,0.066,0.1448,0.2173,0.2604,0.2944,0.3133,0.321,0.3227,0.3221,0.3209,0.3489,0.3892,0.4359,0.4826,0.5088,0.5087,0.4957,0.4891,-2.3128,-2.3146,-2.3111,-2.3664,-2.4348,-2.4901,-2.4804,-2.4305,-2.4865,-2.5028,-2.4771,-2.4275,-2.3954,-2.3667,-2.325,-2.2981,-2.279,-2.2738,-2.2712,-2.2712,-2.2712,-2.2712,-2.2685,-2.2632,-2.257,-2.2497,-2.2415,-2.2279,-2.1982,-2.1521,-2.1055,-2.0827,-2.046,-2.0296,-2.0304,-2.0304,-2.0304,-2.0304,-2.027,-2.0235,-2.0003,-1.9711,-1.9347,-1.9026,-1.8574,-1.8123,-1.7713,-1.7426,-1.7205,-1.7022,-1.6898,-1.6813,-1.6728,-1.6397,-1.5231,-1.4536,-1.4414,-1.4186,-1.3905,-1.3721,-1.3621,-1.3621,-1.3615,-1.3472,-1.3377,-1.3372,-1.2836,-1.1957,-1.1251,-1.1012,-1.1202,-1.1486,-1.1597,-1.1435,-1.1055,-1.0485,-0.9649,-0.8748,-0.7974,-0.7524,-0.7134,-0.6741,-0.6083,-0.4758,-0.3826,-0.3558,-0.2956,-0.2355,-0.222,-0.222,-0.2153,-0.2153,-0.2099,-0.1912,-0.1491,-0.086,-0.0,0.0779,0.1565,0.2174,0.2676,0.2932,0.3103,0.3104,0.3035,0.3157,0.3188,0.3522,0.393,0.4563,0.5095,0.5624,0.569,0.562,0.5624,-2.3111,-2.3111,-2.3111,-2.3567,-2.4189,-2.383,-2.3936,-2.4225,-2.3779,-2.3632,-2.345,-2.3328,-2.3232,-2.3206,-2.3041,-2.2868,-2.2816,-2.2782,-2.2738,-2.2712,-2.2712,-2.2712,-2.2712,-2.2685,-2.2659,-2.2667,-2.2605,-2.2462,-2.2166,-2.1705,-2.1229,-2.0918,-2.0545,-2.0304,-2.0304,-2.0304,-2.0304,-2.0304,-2.027,-2.02,-2.0025,-1.9762,-1.9464,-1.9011,-1.856,-1.8189,-1.7788,-1.7385,-1.7253,-1.714,-1.7101,-1.7101,-1.7131,-1.652,-1.5738,-1.4949,-1.4651,-1.4419,-1.4145,-1.3868,-1.3779,-1.3668,-1.3568,-1.3483,-1.3435,-1.3472,-1.3056,-1.2128,-1.1504,-1.1348,-1.1224,-1.1479,-1.156,-1.131,-1.0993,-1.0291,-0.9588,-0.8683,-0.7844,-0.7391,-0.6937,-0.6478,-0.5886,-0.509,-0.4159,-0.3424,-0.2689,-0.222,-0.222,-0.2153,-0.2085,-0.2085,-0.2153,-0.1925,-0.1533,-0.0788,0.0129,0.091,0.1639,0.2187,0.2673,0.288,0.3061,0.2885,0.2816,0.2953,0.3136,0.3329,0.3804,0.4422,0.5061,0.5437,0.6121,0.6197,0.621,-2.3111,-2.3111,-2.3111,-2.3356,-2.3628,-2.3286,-2.3374,-2.362,-2.3295,-2.3061,-2.2986,-2.2986,-2.2986,-2.2977,-2.2961,-2.291,-2.2842,-2.2799,-2.2764,-2.2712,-2.2712,-2.2712,-2.2712,-2.2712,-2.2712,-2.272,-2.2685,-2.2552,-2.2293,-2.1886,-2.1462,-2.1111,-2.0687,-2.0373,-2.0339,-2.0312,-2.0304,-2.0304,-2.0304,-2.02,-2.0033,-1.9797,-1.9493,-1.9079,-1.8584,-1.8221,-1.7821,-1.7461,-1.7253,-1.7205,-1.7179,-1.7173,-1.7067,-1.6667,-1.6064,-1.5507,-1.5068,-1.4651,-1.428,-1.4004,-1.3873,-1.3721,-1.3615,-1.3525,-1.3354,-1.3342,-1.3242,-1.2416,-1.2218,-1.1993,-1.1565,-1.1589,-1.1619,-1.1435,-1.093,-1.0231,-0.9329,-0.8363,-0.7587,-0.6874,-0.6613,-0.6482,-0.582,-0.4823,-0.3959,-0.336,-0.2623,-0.222,-0.222,-0.2085,-0.2018,-0.1883,-0.195,-0.1815,-0.1339,-0.059,0.032,0.1099,0.183,0.2328,0.2754,0.2899,0.2938,0.2798,0.2725,0.2778,0.2947,0.318,0.3235,0.3628,0.4392,0.5173,0.5931,0.6641,0.6732,-2.3144,-2.3102,-2.3144,-2.3144,-2.3119,-2.3119,-2.3153,-2.3128,-2.3102,-2.3111,-2.3086,-2.3086,-2.3111,-2.3086,-2.3036,-2.2961,-2.291,-2.2859,-2.279,-2.2712,-2.2712,-2.2712,-2.2712,-2.2712,-2.2712,-2.2712,-2.2685,-2.2587,-2.2405,-2.2023,-2.1653,-2.1285,-2.0861,-2.0462,-2.0441,-2.0346,-2.0304,-2.0304,-2.027,-2.0227,-2.008,-1.9861,-1.9574,-1.9117,-1.863,-1.8196,-1.7862,-1.7536,-1.7288,-1.7205,-1.7205,-1.7205,-1.708,-1.6772,-1.6392,-1.5875,-1.5418,-1.4823,-1.4222,-1.4071,-1.3852,-1.3716,-1.3663,-1.353,-1.3359,-1.319,-1.3074,-1.3177,-1.2987,-1.2462,-1.1969,-1.16,-1.1615,-1.1435,-1.0867,-1.0171,-0.9137,-0.8104,-0.7328,-0.6548,-0.642,-0.6354,-0.5754,-0.4755,-0.3891,-0.3226,-0.2757,-0.2422,-0.2153,-0.195,-0.1748,-0.1614,-0.1546,-0.1344,-0.1141,-0.0524,0.0319,0.1317,0.2016,0.2486,0.2821,0.2844,0.2846,0.2758,0.2713,0.2736,0.2837,0.2995,0.3033,0.3158,0.3796,0.4789,0.5858,0.6563,0.7057,-2.3265,-2.3265,-2.3274,-2.3265,-2.3265,-2.3274,-2.3241,-2.3193,-2.3184,-2.316,-2.3111,-2.3111,-2.3111,-2.3111,-2.3086,-2.3036,-2.2902,-2.2885,-2.2782,-2.2703,-2.2738,-2.2712,-2.2712,-2.2738,-2.2712,-2.2712,-2.2685,-2.2614,-2.2479,-2.2195,-2.189,-2.1579,-2.0807,-2.0538,-2.061,-2.0483,-2.0312,-2.0304,-2.0304,-2.027,-2.0227,-2.0018,-1.9741,-1.9325,-1.886,-1.8436,-1.8002,-1.7605,-1.7365,-1.7247,-1.7205,-1.7205,-1.7086,-1.6876,-1.6583,-1.6269,-1.5812,-1.5322,-1.4858,-1.4365,-1.4138,-1.3721,-1.3621,-1.353,-1.3354,-1.3128,-1.3343,-1.4126,-1.3775,-1.287,-1.2286,-1.1794,-1.1681,-1.1369,-1.0867,-0.9974,-0.9011,-0.8039,-0.7132,-0.6679,-0.642,-0.6354,-0.6218,-0.502,-0.369,-0.3091,-0.2422,-0.2153,-0.2085,-0.1816,-0.1546,-0.1396,-0.1193,-0.1142,-0.1074,-0.0588,0.0254,0.1305,0.2191,0.2537,0.274,0.2796,0.2734,0.2701,0.2691,0.2705,0.2811,0.2863,0.3004,0.3139,0.3511,0.4349,0.554,0.6557,0.699]},{"header":{"parameterUnit":"m.s-1","parameterCategory":1,"la1":31.0,"la2":29.5877,"lo1":-88.7671,"lo2":-86.6584,"dy":0.0162,"dx":0.0185,"nx":115,"ny":88,"refTime":"2026-04-29T12:00:00:Z","depth":0,"parameterNumber":3,"parameterNumberName":"V-component_of_WINDS"},"data":[0.0,0.0,0.0,0.0,0.0,0.0,0.0,0.0,0.0,0.0,0.0,0.0,0.0,0.0,0.0,0.0,0.0,0.0,0.0,0.0,0.0,0.0,0.0,0.0,0.0,0.0,0.0,0.0,0.0,0.0,0.0,0.0,0.0,0.0,0.0,0.0,0.0,0.0,0.0,0.0,0.0,0.0,0.0,0.0,0.0,0.0,0.0,0.0,0.0,0.0,0.0,0.0,0.0,0.0,0.0,0.0,0.0,0.0,0.0,0.0,0.0,0.0,0.0,0.0,0.0,0.0,0.0,0.0,0.0,0.0,0.0,0.0,0.0,0.0,0.0,0.0,0.0,0.0,0.0,0.0,0.0,0.0,0.0,0.0,0.0,0.0,0.0,0.0,0.0,0.0,0.0,0.0,0.0,0.0,0.0,0.0,0.0,0.0,0.0,0.0,0.0,0.0,0.0,0.0,0.0,0.0,0.0,0.0,0.0,0.0,0.0,0.0,0.0,0.0,0.0,0.0,0.0,0.0,0.0,0.0,0.0,0.0,0.0,0.0,0.0,0.0,0.0,0.0,0.0,0.0,0.0,0.0,0.0,0.0,0.0,0.0,0.0,0.0,0.0,0.0,0.0,0.0,0.0,0.0,0.0,0.0,0.0,0.0,0.0,0.0,0.0,0.0,0.0,0.0,0.0,0.0,0.0,0.0,0.0,0.0,0.0,0.0,0.0,0.0,0.0,0.0,0.0,0.0,0.0,0.0,0.0,0.0,0.0,0.0,0.0,0.0,0.0,0.0,0.0,0.0,0.0,0.0,0.0,0.0,0.0,0.0,0.0,0.0,0.0,0.0,0.0,0.0,0.0,0.0,0.0,0.0,0.0,0.0,0.0,0.0,0.0,0.0,0.0,0.0,0.0,0.0,0.0,0.0,0.0,0.0,0.0,0.0,0.0,0.0,0.0,0.0,0.0,0.0,0.0,0.0,0.0,0.0,0.0,0.0,0.0,0.0,0.0,0.0,0.0,0.0,0.0,0.0,0.0,0.0,0.0,0.0,0.0,0.0,0.0,0.0,0.0,0.0,0.0,0.0,0.0,0.0,0.0,0.0,0.0,0.0,0.0,0.0,0.0,0.0,0.0,0.0,0.0,0.0,0.0,0.0,0.0,0.0,0.0,0.0,0.0,0.0,0.0,0.0,0.0,0.0,0.0,0.0,0.0,0.0,0.0,0.0,0.0,0.0,0.0,0.0,0.0,0.0,0.0,0.0,0.0,0.0,0.0,0.0,0.0,0.0,0.0,0.0,0.0,0.0,0.0,0.0,0.0,0.0,0.0,0.0,0.0,0.0,0.0,0.0,0.0,0.0,0.0,0.0,0.0,0.0,0.0,0.0,0.0,0.0,0.0,0.0,0.0,0.0,0.0,0.0,0.0,0.0,0.0,0.0,0.0,0.0,0.0,0.0,0.0,0.0,0.0,0.0,0.0,0.0,0.0,0.0,0.0,0.0,0.0,0.0,0.0,0.0,0.0,0.0,0.0,0.0,0.0,0.0,0.0,0.0,0.0,0.0,0.0,0.0,0.0,0.0,0.0,0.0,0.0,0.0,0.0,0.0,0.0,0.0,0.0,0.0,0.0,0.0,0.0,0.0,0.0,0.0,0.0,0.0,0.0,0.0,0.0,0.0,0.0,0.0,0.0,0.0,0.0,0.0,0.0,0.0,0.0,0.0,0.0,0.0,0.0,0.0,0.0,0.0,0.0,0.0,0.0,0.0,0.0,0.0,0.0,0.0,0.0,0.0,0.0,0.0,0.0,0.0,0.0,0.0,0.0,0.0,0.0,0.0,0.0,0.0,0.0,0.0,0.0,0.0,0.0,0.0,0.0,0.0,0.0,0.0,0.0,0.0,0.0,0.0,0.0,0.0,0.0,0.0,0.0,0.0,0.0,0.0,0.0,0.0,0.0,0.0,0.0,0.0,0.0,0.0,0.0,0.0,0.0,0.0,0.0,0.0,0.0,0.0,0.0,0.0,0.0,0.0,0.0,0.0,0.0,0.0,0.0,0.0,0.0,0.0,0.0,0.0,0.0,0.0,0.0,0.0,0.0,0.0,0.0,0.0,0.0,0.0,0.0,0.0,0.0,0.0,0.0,0.0,0.0,0.0,0.0,0.0,0.0,0.0,0.0,0.0,0.0,0.0,0.0,0.0,0.0,0.0,0.0,0.0,0.0,0.0,0.0,0.0,0.0,0.0,0.0,0.0,0.0,0.0,0.0,0.0,0.0,0.0,0.0,0.0,0.0,0.0,0.0,0.0,0.0,0.0,0.0,0.0,0.0,0.0,0.0,0.0,0.0,0.0,0.0,0.0,0.0,0.0,0.0,0.0,0.0,0.0,0.0,0.0,0.0,0.0,0.0,0.0,0.0,0.0,0.0,0.0,0.0,0.0,0.0,0.0,0.0,0.0,0.0,0.0,0.0,0.0,0.0,0.0,0.0,0.0,0.0,0.0,0.0,0.0,0.0,0.0,0.0,0.0,0.0,0.0,0.0,0.0,0.0,0.0,0.0,0.0,0.0,0.0,0.0,0.0,0.0,0.0,0.0,0.0,0.0,0.0,0.0,0.0,0.0,0.0,0.0,0.0,0.0,0.0,0.0,0.0,0.0,0.0,0.0,0.0,0.0,0.0,0.0,0.0,0.0,0.0,0.0,0.0,0.0,0.0,0.0,0.0,0.0,0.0,0.0,0.0,0.0,0.0,0.0,0.0,0.0,0.0,0.0,0.0,0.0,0.0,0.0,0.0,0.0,0.0,0.0,0.0,0.0,0.0,0.0,0.0,0.0,0.0,0.0,0.0,0.0,0.0,0.0,0.0,0.0,0.0,0.0,0.0,0.0,0.0,0.0,0.0,0.0,0.0,0.0,0.0,0.0,0.0,0.0,0.0,0.0,0.0,0.0,0.0,0.0,0.0,0.0,0.0,0.0,0.0,0.0,0.0,0.0,0.0,0.0,0.0,0.0,0.0,0.0,0.0,0.0,0.0,0.0,0.0,0.0,0.0,0.0,0.0,0.0,0.0,0.0,0.0,0.0,0.0,0.0,0.0,0.0,0.0,0.0,0.0,0.0,0.0,0.0,0.0,0.0,0.0,0.0,0.0,0.0,0.0,0.0,0.0,0.0,0.0,0.0,0.0,0.0,0.0,0.0,0.0,0.0,0.0,0.0,0.0,0.0,0.0,0.0,0.0,0.0,0.0,0.0,0.0,0.0,0.0,0.0,0.0,0.0,0.0,0.0,0.0,0.0,0.0,0.0,0.0,0.0,0.0,0.0,0.0,0.0,0.0,0.0,0.0,0.0,0.0,0.0,0.0,0.0,0.0,0.0,0.0,0.0,0.0,0.0,0.0,0.0,0.0,0.0,0.0,0.0,0.0,0.0,0.0,0.0,0.0,0.0,0.0,0.0,0.0,0.0,0.0,0.0,0.0,0.0,0.0,0.0,0.0,0.0,0.0,0.0,0.0,0.0,0.0,0.0,0.0,0.0,0.0,0.0,0.0,0.0,0.0,0.0,0.0,0.0,0.0,0.0,0.0,0.0,0.0,0.0,0.0,0.0,0.0,0.0,0.0,0.0,0.0,0.0,0.0,0.0,0.0,0.0,0.0,0.0,0.0,0.0,0.0,0.0,0.0,0.0,0.0,0.0,0.0,0.0,0.0,0.0,0.0,0.0,0.0,0.0,0.0,0.0,0.0,0.0,0.0,0.0,0.0,0.0,0.0,0.0,0.0,0.0,0.0,0.0,0.0,0.0,0.0,0.0,0.0,0.0,0.0,0.0,0.0,0.0,0.0,0.0,0.0,0.0,0.0,0.0,0.0,0.0,0.0,0.0,0.0,0.0,0.0,0.0,0.0,0.0,0.0,0.0,0.0,0.0,0.0,0.0,0.0,0.0,0.0,0.0,0.0,0.0,0.0,0.0,0.0,0.0,0.0,0.0,0.0,0.0,0.0,0.0,0.0,0.0,0.0,0.0,0.0,0.0,0.0,0.0,0.0,0.0,0.0,0.0,0.0,0.0,0.0,0.0,0.0,0.0,0.0,0.0,0.0,0.0,0.0,0.0,0.0,0.0,0.0,0.0,0.0,0.0,0.0,0.0,0.0,0.0,0.0,0.0,0.0,0.0,0.0,0.0,0.0,0.0,0.0,0.0,0.0,0.0,0.0,0.0,0.0,0.0,0.0,0.0,0.0,0.0,0.0,0.0,0.0,0.0,0.0,0.0,0.0,0.0,0.0,-0.3781,0.0,0.0,0.0,0.0,0.0,0.0,0.0,0.0,0.0,0.0,0.0,0.0,0.0,0.0,0.0,0.0,0.0,0.0,0.0,0.0,0.0,0.0,0.0,0.0,0.0,0.0,0.0,0.0,0.0,0.0,0.0,0.0,0.0,0.0,0.0,0.0,0.0,0.0,0.0,0.0,0.0,0.0,0.0,0.0,0.0,0.0,0.0,0.0,0.0,0.0,0.0,0.0,0.0,0.0,0.0,0.0,0.0,0.0,0.0,0.0,0.0,0.0,0.0,0.0,0.0,0.0,0.0,0.0,0.0,0.0,0.0,0.0,0.0,0.0,0.0,0.0,0.0,0.0,0.0,0.0,0.0,0.0,0.0,0.0,0.0,0.0,0.0,0.0,0.0,0.0,0.0,0.0,0.0,0.0,0.0,0.0,0.0,0.0,0.0,0.0,0.0,0.0,0.0,0.0,0.0,0.0,0.0,0.0,0.0,0.0,-0.41,-0.4098,-0.4033,-0.3991,-0.3913,0.0,0.0,0.0,0.0,0.0,0.0,0.0,0.0,0.0,0.0,0.0,0.0,0.0,0.0,0.0,0.0,0.0,0.0,0.0,0.0,0.0,0.0,0.0,0.0,0.0,0.0,0.0,0.0,0.0,0.0,0.0,0.0,0.0,0.0,0.0,0.0,0.0,0.0,0.0,0.0,0.0,0.0,0.0,0.0,0.0,0.0,0.0,0.0,0.0,0.0,0.0,0.0,0.0,0.0,0.0,0.0,0.0,0.0,0.0,0.0,0.0,0.0,0.0,0.0,0.0,0.0,0.0,0.0,0.0,0.0,0.0,0.0,0.0,0.0,0.0,0.0,0.0,0.0,0.0,0.0,0.0,0.0,0.0,0.0,0.0,0.0,0.0,0.0,0.0,0.0,0.0,0.0,0.0,0.0,0.0,0.0,0.0,0.0,0.0,0.0,0.0,0.0,0.0,0.0,0.0,0.0,0.0,0.0,0.0,0.0,0.0,0.0,-0.4379,-0.4251,-0.4049,0.0,0.0,0.0,0.0,0.0,0.0,0.0,0.0,0.0,0.0,0.0,0.0,0.0,0.0,0.0,0.0,0.0,0.0,0.0,0.0,0.0,0.0,0.0,0.0,0.0,0.0,0.0,0.0,0.0,0.0,0.0,0.0,0.0,0.0,0.0,0.0,0.0,0.0,0.0,0.0,0.0,0.0,0.0,0.0,0.0,0.0,0.0,0.0,0.0,0.0,0.0,0.0,0.0,0.0,0.0,0.0,0.0,0.0,0.0,0.0,0.0,0.0,0.0,0.0,0.0,0.0,0.0,0.0,0.0,0.0,0.0,0.0,0.0,0.0,0.0,0.0,0.0,0.0,0.0,0.0,0.0,0.0,0.0,0.0,0.0,0.0,0.0,0.0,0.0,0.0,0.0,0.0,0.0,0.0,0.0,0.0,0.0,0.0,0.0,0.0,0.0,0.0,0.0,0.0,0.0,0.0,0.0,0.0,0.0,0.0,-0.5207,-0.5192,-0.5128,0.0,-0.415,0.0,0.0,0.0,0.0,0.0,0.0,0.0,0.0,0.0,0.0,0.0,0.0,0.0,0.0,0.0,0.0,0.0,0.0,0.0,0.0,0.0,0.0,0.0,0.0,0.0,0.0,0.0,0.0,0.0,0.0,0.0,0.0,0.0,0.0,0.0,0.0,0.0,0.0,0.0,0.0,0.0,0.0,0.0,0.0,0.0,0.0,0.0,0.0,0.0,0.0,0.0,0.0,0.0,0.0,0.0,0.0,0.0,0.0,0.0,0.0,0.0,0.0,0.0,0.0,0.0,0.0,0.0,0.0,0.0,0.0,0.0,0.0,0.0,0.0,0.0,0.0,0.0,0.0,0.0,0.0,0.0,0.0,0.0,0.0,0.0,0.0,0.0,0.0,0.0,0.0,0.0,0.0,0.0,0.0,0.0,0.0,0.0,0.0,0.0,0.0,0.0,0.0,0.0,0.0,0.0,0.0,0.0,0.0,0.0,0.0,0.0,-0.5933,-0.5915,-0.5569,0.0,0.0,0.0,0.0,0.0,0.0,0.0,0.0,0.0,0.0,0.0,0.0,0.0,0.0,0.0,0.0,0.0,0.0,0.0,0.0,0.0,0.0,0.0,0.0,0.0,0.0,0.0,0.0,0.0,0.0,0.0,0.0,0.0,0.0,0.0,0.0,0.0,0.0,0.0,0.0,0.0,0.0,0.0,0.0,0.0,0.0,0.0,0.0,0.0,0.0,0.0,0.0,0.0,0.0,0.0,0.0,0.0,0.0,0.0,0.0,0.0,0.0,0.0,0.0,0.0,0.0,0.0,0.0,0.0,0.0,0.0,0.0,0.0,0.0,0.0,0.0,0.0,0.0,0.0,0.0,0.0,0.0,0.0,0.0,0.0,0.0,0.0,0.0,0.0,0.0,0.0,0.0,0.0,0.0,0.0,0.0,0.0,0.0,0.0,0.0,0.0,0.0,0.0,0.0,0.0,0.0,0.0,0.0,0.0,0.0,-0.515,0.0,-0.6373,-0.6405,-0.5967,-0.5061,0.0,0.0,0.0,0.0,0.0,0.0,0.0,0.0,0.0,0.0,0.0,0.0,0.0,0.0,0.0,0.0,0.0,0.0,0.0,0.0,0.0,0.0,0.0,0.0,0.0,0.0,0.0,0.0,0.0,0.0,0.0,0.0,0.0,0.0,0.0,0.0,0.0,0.0,0.0,0.0,0.0,0.0,0.0,0.0,0.0,0.0,0.0,0.0,0.0,0.0,0.0,0.0,0.0,0.0,0.0,0.0,0.0,0.0,0.0,0.0,0.0,0.0,0.0,0.0,0.0,0.0,0.0,0.0,0.0,0.0,0.0,0.0,0.0,0.0,0.0,0.0,0.0,0.0,0.0,0.0,0.0,0.0,0.0,0.0,0.0,0.0,0.0,0.0,0.0,0.0,0.0,0.0,0.0,0.0,0.0,0.0,0.0,0.0,0.0,0.0,0.0,0.0,0.0,0.0,0.0,0.0,0.0,0.0,0.0,-0.5643,-0.6373,-0.6405,-0.6405,-0.5757,0.0,0.0,0.0,0.0,0.0,0.0,0.0,0.0,0.0,0.0,0.0,0.0,0.0,0.0,0.0,0.0,0.0,0.0,0.0,0.0,0.0,0.0,0.0,0.0,0.0,0.0,0.0,0.0,0.0,0.0,0.0,0.0,0.0,0.0,0.0,0.0,0.0,0.0,0.0,0.0,0.0,0.0,0.0,0.0,0.0,0.0,0.0,0.0,0.0,0.0,0.0,0.0,0.0,0.0,0.0,0.0,0.0,0.0,0.0,0.0,0.0,0.0,0.0,0.0,0.0,0.0,0.0,0.0,0.0,0.0,0.0,0.0,0.0,0.0,0.0,0.0,0.0,0.0,0.0,0.0,0.0,0.0,0.0,0.0,0.0,0.0,0.0,0.0,0.0,0.0,0.0,0.0,0.0,0.0,0.0,0.0,0.0,0.0,0.0,0.0,0.0,0.0,0.0,0.0,0.0,0.0,0.0,0.0,0.0,-0.4362,-0.5675,-0.6405,-0.6405,-0.6405,-0.5941,0.0,0.0,0.0,0.0,0.0,0.0,0.0,0.0,0.0,0.0,0.0,0.0,0.0,0.0,0.0,0.0,0.0,0.0,0.0,0.0,0.0,0.0,0.0,0.0,0.0,0.0,0.0,0.0,0.0,0.0,0.0,0.0,0.0,0.0,0.0,0.0,0.0,0.0,0.0,0.0,0.0,0.0,0.0,0.0,0.0,0.0,0.0,0.0,0.0,0.0,0.0,0.0,0.0,0.0,0.0,0.0,0.0,0.0,0.0,0.0,0.0,0.0,0.0,0.0,0.0,0.0,0.0,0.0,0.0,0.0,0.0,0.0,0.0,0.0,0.0,0.0,0.0,0.0,0.0,0.0,0.0,0.0,0.0,0.0,0.0,0.0,0.0,0.0,0.0,0.0,0.0,0.0,0.0,0.0,0.0,0.0,0.0,0.0,0.0,0.0,0.0,0.0,0.0,0.0,0.0,0.0,0.0,0.0,0.0,-0.5343,0.0,-0.6405,0.0,-0.6161,-0.5715,0.0,0.0,0.0,0.0,0.0,0.0,0.0,0.0,0.0,0.0,0.0,0.0,0.0,0.0,0.0,0.0,0.0,0.0,0.0,0.0,0.0,0.0,0.0,0.0,0.0,0.0,0.0,0.0,0.0,0.0,0.0,0.0,0.0,0.0,0.0,0.0,0.0,0.0,0.0,0.0,0.0,0.0,0.0,0.0,0.0,0.0,0.0,0.0,0.0,0.0,0.0,0.0,0.0,0.0,0.0,0.0,0.0,0.0,0.0,0.0,0.0,0.0,0.0,0.0,0.0,0.0,0.0,0.0,0.0,0.0,0.0,0.0,0.0,0.0,0.0,0.0,0.0,0.0,0.0,0.0,0.0,0.0,0.0,0.0,0.0,0.0,0.0,0.0,0.0,0.0,0.0,0.0,0.0,0.0,0.0,0.0,0.0,0.0,0.0,0.0,0.0,0.0,0.0,0.0,0.0,0.0,0.0,0.0,-0.6721,-0.7384,-0.677,-0.6446,-0.6381,-0.5707,-0.5005,0.0,0.0,0.0,0.0,0.0,0.0,0.0,0.0,0.0,0.0,0.0,0.0,0.0,0.0,0.0,0.0,0.0,0.0,0.0,0.0,0.0,0.0,0.0,0.0,0.0,0.0,0.0,0.0,0.0,0.0,0.0,0.0,0.0,0.0,0.0,0.0,0.0,0.0,0.0,0.0,0.0,0.0,0.0,0.0,0.0,0.0,0.0,0.0,0.0,0.0,0.0,0.0,0.0,0.0,0.0,0.0,0.0,0.0,0.0,0.0,0.0,0.0,0.0,0.0,0.0,0.0,0.0,0.0,0.0,0.0,0.0,0.0,0.0,0.0,0.0,0.0,0.0,0.0,0.0,0.0,0.0,0.0,0.0,0.0,0.0,0.0,0.0,0.0,0.0,0.0,0.0,0.0,0.0,0.0,0.0,0.0,0.0,0.0,0.0,0.0,0.0,0.0,0.0,0.0,0.0,0.0,0.0,0.0,0.0,-0.6756,-0.7016,-0.6926,-0.6413,-0.5667,-0.5201,0.0,0.0,0.0,0.0,0.0,0.0,0.0,0.0,0.0,0.0,0.0,0.0,0.0,0.0,0.0,0.0,0.0,0.0,0.0,0.0,0.0,0.0,0.0,0.0,0.0,0.0,0.0,0.0,0.0,0.0,0.0,0.0,0.0,0.0,0.0,0.0,0.0,0.0,0.0,0.0,0.0,0.0,0.0,0.0,0.0,0.0,0.0,0.0,0.0,0.0,0.0,0.0,0.0,0.0,0.0,0.0,0.0,0.0,0.0,0.0,0.0,0.0,0.0,0.0,0.0,0.0,0.0,0.0,0.0,0.0,0.0,0.0,0.0,0.0,0.0,0.0,0.0,0.0,0.0,0.0,0.0,0.0,0.0,0.0,0.0,0.0,0.0,0.0,0.0,0.0,0.0,0.0,0.0,0.0,0.0,0.0,0.0,0.0,0.0,0.0,0.0,0.0,0.0,0.0,0.0,0.0,0.0,0.0,0.0,-0.8019,-0.8189,-0.8064,-0.7602,-0.6639,-0.5987,-0.571,0.0,0.0,0.0,0.0,0.0,0.0,0.0,0.0,0.0,0.0,0.0,0.0,0.0,0.0,0.0,0.0,0.0,0.0,0.0,0.0,0.0,0.0,0.0,0.0,0.0,0.0,0.0,0.0,0.0,0.0,0.0,0.0,0.0,0.0,0.0,0.0,0.0,0.0,0.0,0.0,0.0,0.0,0.0,0.0,0.0,0.0,0.0,0.0,0.0,0.0,0.0,0.0,0.0,0.0,0.0,0.0,0.0,0.0,0.0,0.0,0.0,0.0,0.0,0.0,0.0,0.0,0.0,0.0,0.0,0.0,0.0,0.0,0.0,0.0,0.0,0.0,0.0,0.0,0.0,0.0,0.0,0.0,0.0,0.0,0.0,0.0,0.0,0.0,0.0,0.0,0.0,0.0,0.0,0.0,0.0,0.0,0.0,0.0,0.0,0.0,0.0,0.0,0.0,0.0,0.0,0.0,0.0,0.0,-1.0743,-1.0105,-0.9741,-0.9626,-0.8278,-0.7243,0.0,0.0,0.0,0.0,0.0,0.0,0.0,0.0,0.0,0.0,0.0,0.0,0.0,0.0,0.0,0.0,0.0,0.0,0.0,0.0,0.0,0.0,0.0,0.0,0.0,0.0,0.0,0.0,0.0,0.0,0.0,0.0,0.0,0.0,0.0,0.0,0.0,0.0,0.0,0.0,0.0,0.0,0.0,0.0,0.0,0.0,0.0,0.0,0.0,0.0,0.0,0.0,0.0,0.0,0.0,0.0,0.0,0.0,0.0,0.0,0.0,0.0,0.0,0.0,0.0,0.0,0.0,0.0,0.0,0.0,0.0,0.0,0.0,0.0,0.0,0.0,0.0,0.0,0.0,0.0,0.0,0.0,0.0,0.0,0.0,0.0,0.0,0.0,0.0,0.0,0.0,0.0,0.0,0.0,0.0,0.0,0.0,0.0,0.0,0.0,0.0,0.0,0.0,0.0,0.0,0.0,0.0,0.0,0.0,-1.1383,-1.178,-1.1481,-1.0436,-0.9011,-0.8157,0.0,0.0,0.0,0.0,0.0,0.0,0.0,0.0,0.0,0.0,0.0,0.0,0.0,0.0,0.0,0.0,0.0,0.0,0.0,0.0,0.0,0.0,0.0,0.0,0.0,0.0,0.0,0.0,0.0,0.0,0.0,0.0,0.0,0.0,0.0,0.0,0.0,0.0,0.0,0.0,0.0,0.0,0.0,0.0,0.0,0.0,0.0,0.0,0.0,0.0,0.0,0.0,0.0,0.0,0.0,0.0,0.0,0.0,0.0,0.0,0.0,0.0,0.0,0.0,0.0,0.0,0.0,0.0,0.0,0.0,0.0,0.0,0.0,0.0,0.0,0.0,0.0,0.0,0.0,0.0,0.0,0.0,0.0,0.0,0.0,0.0,0.0,0.0,0.0,0.0,0.0,0.0,0.0,0.0,0.0,0.0,0.0,0.0,0.0,0.0,0.0,0.0,0.0,0.0,0.0,0.0,0.0,0.0,-1.1189,-1.26,-1.331,-1.3175,-1.2073,-1.063,-0.9557,0.0,0.0,0.0,0.0,0.0,0.0,0.0,0.0,0.0,0.0,0.0,0.0,0.0,0.0,0.0,0.0,0.0,0.0,0.0,0.0,0.0,0.0,0.0,0.0,0.0,0.0,0.0,0.0,0.0,0.0,0.0,0.0,0.0,0.0,0.0,0.0,0.0,0.0,0.0,0.0,0.0,0.0,0.0,0.0,0.0,0.0,0.0,0.0,0.0,0.0,0.0,0.0,0.0,0.0,0.0,0.0,0.0,0.0,0.0,0.0,0.0,0.0,0.0,0.0,0.0,0.0,0.0,0.0,0.0,0.0,0.0,0.0,0.0,0.0,0.0,0.0,0.0,0.0,0.0,0.0,0.0,0.0,0.0,0.0,0.0,0.0,0.0,0.0,0.0,0.0,0.0,0.0,0.0,0.0,0.0,0.0,0.0,0.0,0.0,0.0,0.0,0.0,0.0,0.0,0.0,0.0,0.0,0.0,-1.2462,-1.3954,-1.4589,-1.4581,-1.3909,-1.2551,-1.1156,0.0,0.0,0.0,0.0,0.0,0.0,0.0,0.0,0.0,0.0,0.0,0.0,0.0,0.0,0.0,0.0,0.0,0.0,0.0,0.0,0.0,0.0,0.0,0.0,0.0,0.0,0.0,0.0,0.0,0.0,0.0,0.0,0.0,0.0,0.0,0.0,0.0,0.0,0.0,0.0,0.0,0.0,0.0,0.0,0.0,0.0,0.0,0.0,0.0,0.0,0.0,0.0,0.0,0.0,0.0,0.0,0.0,0.0,0.0,0.0,0.0,0.0,0.0,0.0,0.0,0.0,0.0,0.0,0.0,0.0,0.0,0.0,0.0,0.0,0.0,0.0,0.0,0.0,0.0,0.0,0.0,0.0,0.0,0.0,0.0,0.0,0.0,0.0,0.0,0.0,0.0,0.0,0.0,0.0,0.0,0.0,0.0,0.0,0.0,0.0,0.0,0.0,0.0,0.0,0.0,0.0,0.0,0.0,-1.266,-1.4621,-1.4818,-1.4597,-1.3905,-1.3029,-1.1902,0.0,0.0,0.0,0.0,0.0,0.0,0.0,0.0,0.0,0.0,0.0,0.0,0.0,0.0,0.0,0.0,0.0,0.0,0.0,0.0,0.0,0.0,0.0,0.0,0.0,0.0,0.0,0.0,0.0,0.0,0.0,0.0,0.0,0.0,0.0,0.0,0.0,0.0,0.0,0.0,0.0,0.0,0.0,0.0,0.0,0.0,0.0,0.0,-0.9872,0.0,0.0,0.0,0.0,0.0,0.0,0.0,0.0,0.0,0.0,0.0,0.0,0.0,0.0,0.0,0.0,0.0,0.0,0.0,0.0,0.0,0.0,0.0,0.0,0.0,0.0,0.0,0.0,0.0,0.0,0.0,0.0,0.0,0.0,0.0,0.0,0.0,0.0,0.0,0.0,0.0,0.0,0.0,0.0,0.0,0.0,0.0,0.0,0.0,0.0,0.0,0.0,0.0,0.0,0.0,0.0,0.0,0.0,0.0,-1.3601,-1.5344,-1.5771,-1.5431,-1.4432,-1.399,-1.2811,0.0,0.0,0.0,0.0,0.0,0.0,0.0,0.0,0.0,0.0,0.0,0.0,0.0,0.0,0.0,0.0,0.0,0.0,0.0,0.0,0.0,0.0,0.0,0.0,0.0,0.0,0.0,0.0,0.0,0.0,0.0,0.0,0.0,0.0,0.0,0.0,0.0,0.0,0.0,0.0,0.0,0.0,0.0,0.0,0.0,0.0,0.0,0.0,0.0,0.0,0.0,0.0,0.0,0.0,0.0,0.0,0.0,0.0,0.0,0.0,0.0,0.0,0.0,0.0,0.0,0.0,0.0,0.0,0.0,0.0,0.0,0.0,0.0,0.0,0.0,0.0,0.0,0.0,0.0,0.0,0.0,0.0,0.0,0.0,0.0,0.0,0.0,0.0,0.0,0.0,0.0,0.0,0.0,0.0,0.0,0.0,0.0,0.0,0.0,0.0,0.0,0.0,0.0,0.0,0.0,0.0,0.0,-1.3305,-1.474,-1.6127,-1.6872,-1.6565,-1.5117,-1.4964,-1.3634,-1.0985,0.0,0.0,0.0,0.0,0.0,0.0,0.0,0.0,0.0,0.0,0.0,0.0,0.0,0.0,0.0,0.0,0.0,0.0,0.0,0.0,0.0,0.0,0.0,0.0,0.0,0.0,0.0,0.0,0.0,0.0,0.0,0.0,0.0,0.0,0.0,0.0,0.0,0.0,-0.7355,-0.8495,0.0,0.0,0.0,0.0,0.0,0.0,0.0,0.0,-0.8576,0.0,0.0,0.0,0.0,0.0,0.0,0.0,0.0,0.0,0.0,0.0,0.0,0.0,0.0,0.0,0.0,0.0,0.0,0.0,0.0,0.0,0.0,0.0,0.0,0.0,0.0,0.0,0.0,0.0,0.0,0.0,0.0,0.0,0.0,0.0,0.0,0.0,0.0,0.0,0.0,0.0,0.0,0.0,0.0,0.0,0.0,0.0,0.0,0.0,0.0,0.0,0.0,0.0,0.0,0.0,0.0,-1.2584,-1.4022,-1.5439,-1.6872,-1.7577,-1.7261,-1.5876,-1.5214,-1.3881,-1.1761,0.0,0.0,0.0,0.0,0.0,0.0,0.0,0.0,0.0,0.0,0.0,0.0,0.0,0.0,0.0,0.0,0.0,0.0,0.0,0.0,0.0,0.0,0.0,0.0,0.0,0.0,0.0,0.0,0.0,0.0,0.0,0.0,0.0,0.0,0.0,0.0,0.0,0.0,0.0,-1.0667,-1.1108,0.0,0.0,0.0,0.0,0.0,0.0,0.0,0.0,-0.6048,0.0,0.0,0.0,0.0,0.0,0.0,0.0,0.0,0.0,0.0,0.0,0.0,0.0,0.0,0.0,0.0,0.0,0.0,0.0,0.0,0.0,0.0,0.0,0.0,0.0,0.0,0.0,0.0,0.0,0.0,0.0,0.0,0.0,0.0,0.0,0.0,0.0,0.0,0.0,0.0,0.0,0.0,0.0,0.0,0.0,0.0,0.0,0.0,0.0,0.0,0.0,0.0,0.0,0.0,0.0,-1.2713,-1.4573,-1.6006,-1.7058,-1.7789,-1.7294,-1.5527,-1.4824,-1.3277,0.0,0.0,0.0,0.0,0.0,0.0,0.0,0.0,0.0,0.0,0.0,0.0,0.0,0.0,0.0,0.0,0.0,0.0,0.0,0.0,0.0,0.0,0.0,0.0,0.0,0.0,0.0,0.0,0.0,0.0,0.0,0.0,0.0,0.0,0.0,0.0,0.0,0.0,0.0,0.0,-1.1711,-1.2123,-1.1576,0.0,0.0,0.0,0.0,0.0,0.0,-0.9419,-0.8089,0.0,0.0,0.0,0.0,0.0,0.0,0.0,0.0,0.0,0.0,0.0,0.0,0.0,0.0,0.0,0.0,0.0,0.0,0.0,0.0,0.0,0.0,0.0,0.0,0.0,0.0,0.0,0.0,0.0,0.0,0.0,0.0,0.0,0.0,0.0,0.0,0.0,0.0,0.0,0.0,0.0,0.0,0.0,0.0,0.0,0.0,0.0,0.0,0.0,0.0,0.0,0.0,0.0,0.0,0.0,-1.2762,-1.5059,-1.65,-1.7116,-1.7945,-1.7394,-1.5296,-1.4439,-1.2803,0.0,0.0,0.0,0.0,0.0,0.0,0.0,0.0,0.0,0.0,0.0,0.0,0.0,0.0,0.0,0.0,0.0,0.0,0.0,0.0,0.0,0.0,0.0,0.0,0.0,0.0,0.0,0.0,0.0,0.0,0.0,0.0,0.0,0.0,0.0,0.0,0.0,0.0,0.0,0.0,0.0,-1.3036,-1.3191,-1.207,0.0,0.0,0.0,0.0,-1.2713,-1.1436,0.0,0.0,0.0,0.0,0.0,0.0,0.0,0.0,0.0,0.0,0.0,0.0,0.0,0.0,0.0,0.0,0.0,0.0,0.0,0.0,0.0,0.0,0.0,0.0,0.0,0.0,0.0,0.0,0.0,0.0,0.0,0.0,0.0,0.0,0.0,0.0,0.0,0.0,0.0,0.0,0.0,0.0,0.0,0.0,0.0,0.0,0.0,0.0,0.0,0.0,0.0,0.0,0.0,0.0,0.0,0.0,-1.2778,-1.5559,-1.6994,-1.7173,-1.8389,-1.8099,-1.6027,-1.4645,-1.323,0.0,0.0,0.0,0.0,0.0,0.0,0.0,0.0,0.0,0.0,0.0,0.0,0.0,0.0,0.0,0.0,0.0,0.0,0.0,0.0,0.0,0.0,0.0,0.0,0.0,0.0,0.0,0.0,0.0,0.0,0.0,0.0,0.0,0.0,0.0,0.0,0.0,0.0,0.0,0.0,0.0,-1.4123,-1.4902,-1.4843,-1.4275,0.0,0.0,0.0,-1.3633,-1.1694,0.0,0.0,0.0,0.0,0.0,0.0,0.0,0.0,0.0,0.0,0.0,0.0,0.0,0.0,0.0,0.0,0.0,0.0,0.0,0.0,0.0,0.0,0.0,0.0,0.0,0.0,0.0,0.0,0.0,0.0,0.0,0.0,0.0,0.0,0.0,0.0,0.0,0.0,0.0,0.0,0.0,0.0,0.0,0.0,0.0,0.0,0.0,0.0,0.0,0.0,0.0,0.0,0.0,0.0,0.0,-0.9919,-1.2762,-1.5279,-1.6735,-1.7116,-1.8125,-1.7858,-1.6141,-1.4757,-1.318,0.0,0.0,0.0,0.0,0.0,0.0,0.0,0.0,0.0,0.0,0.0,0.0,0.0,0.0,0.0,0.0,0.0,0.0,0.0,0.0,0.0,0.0,0.0,0.0,0.0,0.0,0.0,0.0,0.0,0.0,0.0,0.0,0.0,0.0,0.0,0.0,0.0,0.0,0.0,0.0,0.0,0.0,-1.6522,-1.5917,0.0,0.0,0.0,-1.5569,-1.6363,0.0,0.0,0.0,0.0,0.0,0.0,0.0,0.0,0.0,0.0,0.0,0.0,0.0,0.0,0.0,0.0,0.0,0.0,0.0,0.0,0.0,0.0,0.0,0.0,0.0,0.0,0.0,0.0,0.0,0.0,0.0,0.0,0.0,0.0,0.0,0.0,0.0,0.0,0.0,0.0,0.0,0.0,0.0,0.0,0.0,0.0,0.0,0.0,0.0,0.0,0.0,0.0,0.0,0.0,0.0,0.0,0.0,-1.277,-1.4962,-1.641,-1.71,-1.7858,-1.7566,-1.6125,-1.4779,0.0,0.0,0.0,0.0,0.0,0.0,0.0,0.0,0.0,0.0,0.0,0.0,0.0,0.0,0.0,0.0,0.0,0.0,0.0,0.0,0.0,0.0,0.0,0.0,0.0,0.0,0.0,-0.0343,0.0,0.0,0.0,0.0,0.0,0.0,0.0,0.0,0.0,0.0,0.0,0.0,0.0,0.0,-1.6154,-1.7621,-1.7103,-1.7058,0.0,0.0,-1.6992,-1.811,-1.74,-1.6371,0.0,0.0,0.0,0.0,0.0,0.0,0.0,0.0,0.0,0.0,0.0,0.0,0.0,0.0,0.0,0.0,0.0,0.0,0.0,0.0,0.0,0.0,0.0,0.0,0.0,0.0,0.0,0.0,0.0,0.0,0.0,0.0,0.0,0.0,0.0,0.0,0.0,0.0,0.0,0.0,0.0,0.0,0.0,0.0,0.0,0.0,0.0,0.0,0.0,0.0,0.0,0.0,0.0,0.0,0.0,-1.2762,-1.4935,-1.6346,-1.7092,-1.7765,-1.7465,-1.6125,-1.4694,-1.3296,0.0,0.0,0.0,0.0,0.0,0.0,0.0,0.0,0.0,0.0,0.0,0.0,0.0,0.0,0.0,0.0,0.0,0.0,0.0,0.0,0.0,0.0,0.0,0.0,0.0,0.0,0.0,0.0,0.0,0.0,0.0,0.0,0.0,0.0,0.0,0.0,0.0,0.0,0.0,0.0,0.0,-1.6845,-1.7757,-1.9134,-2.0114,0.0,0.0,-1.9482,-1.7517,-1.8869,-1.908,-1.5913,0.0,0.0,0.0,0.0,0.0,0.0,0.0,0.0,0.0,0.0,0.0,0.0,0.0,0.0,0.0,0.0,0.0,0.0,0.0,0.0,0.0,0.0,0.0,0.0,0.0,0.0,0.0,0.0,0.0,0.0,0.0,0.0,0.0,0.0,0.0,0.0,0.0,0.0,0.0,0.0,0.0,0.0,0.0,0.0,0.0,0.0,0.0,0.0,0.0,0.0,0.0,0.0,0.0,-0.9965,-1.277,-1.4502,-1.5939,-1.7059,-1.7401,-1.7271,-1.6735,-1.5314,-1.3953,0.0,0.0,0.0,0.0,0.0,0.0,0.0,0.0,0.0,0.0,0.0,0.0,0.0,0.0,0.0,0.0,0.0,0.0,0.0,0.0,0.0,0.0,0.0,0.0,0.0,0.0,0.0,0.0,-0.4387,-0.5007,-0.5007,0.0,0.0,0.0,0.0,0.0,0.0,0.0,0.0,0.0,0.0,-1.7532,-1.7867,-1.9338,0.0,0.0,-2.118,-2.0449,-2.0262,-2.0365,-1.9585,-1.6869,-1.5322,0.0,0.0,0.0,0.0,0.0,0.0,0.0,0.0,0.0,0.0,0.0,0.0,0.0,0.0,0.0,0.0,0.0,0.0,0.0,0.0,0.0,0.0,0.0,0.0,0.0,0.0,0.0,0.0,0.0,0.0,0.0,0.0,0.0,0.0,0.0,0.0,0.0,0.0,0.0,0.0,0.0,0.0,0.0,0.0,0.0,0.0,0.0,0.0,0.0,0.0,0.0,0.0,-0.9965,-1.2778,-1.4234,-1.5663,-1.7067,-1.7149,-1.7149,-1.7042,-1.5705,-1.4438,0.0,0.0,0.0,0.0,0.0,0.0,0.0,0.0,0.0,0.0,0.0,0.0,0.0,0.0,0.0,0.0,0.0,0.0,0.0,0.0,0.0,0.0,0.0,0.0,0.0,0.0,0.0,0.0,-0.4741,-0.5285,-0.5045,0.0,0.0,0.0,0.0,0.0,0.0,0.0,0.0,0.0,0.0,-1.8384,-1.865,-2.0133,-2.1648,-2.2915,-2.252,-2.2153,-2.2429,-2.137,-1.9631,-1.7026,0.0,0.0,0.0,0.0,0.0,0.0,0.0,0.0,0.0,0.0,0.0,0.0,0.0,0.0,0.0,0.0,0.0,0.0,0.0,0.0,0.0,0.0,0.0,0.0,0.0,0.0,0.0,0.0,0.0,0.0,-0.398,0.0,0.0,0.0,0.0,0.0,0.0,0.0,0.0,0.0,0.0,0.0,0.0,0.0,0.0,0.0,0.0,0.0,0.0,0.0,0.0,0.0,0.0,0.0,-1.277,-1.42,-1.5633,-1.7034,-1.7083,-1.7108,-1.705,-1.5682,-1.4599,-1.3923,0.0,0.0,0.0,0.0,0.0,0.0,0.0,0.0,0.0,0.0,0.0,0.0,0.0,0.0,0.0,0.0,0.0,0.0,0.0,0.0,0.0,0.0,0.0,0.0,0.0,0.0,-0.6392,-0.6388,-0.5915,0.0,0.0,0.0,0.0,0.0,0.0,0.0,0.0,0.0,0.0,-1.8632,-1.9488,-2.0297,-2.1913,-2.3016,-2.3153,-2.4491,-2.497,-2.3372,-2.171,-1.9428,0.0,0.0,0.0,0.0,0.0,0.0,0.0,0.0,0.0,0.0,0.0,0.0,0.0,0.0,0.0,0.0,0.0,0.0,0.0,0.0,0.0,0.0,0.0,0.0,0.0,0.0,0.0,-0.7156,-0.6625,0.0,0.0,0.0,0.0,0.0,0.0,0.0,0.0,0.0,0.0,0.0,-1.0773,-1.1009,0.0,0.0,0.0,0.0,0.0,0.0,0.0,0.0,0.0,0.0,0.0,0.0,-1.0646,-1.3419,-1.4443,-1.5602,-1.7026,-1.7083,-1.7083,-1.7092,-1.5705,-1.4007,-1.2009,0.0,0.0,0.0,0.0,0.0,0.0,0.0,0.0,0.0,0.0,0.0,0.0,0.0,0.0,0.0,0.0,0.0,0.0,0.0,0.0,0.0,0.0,0.0,0.0,0.0,-0.5966,0.0,0.0,0.0,0.0,0.0,0.0,0.0,0.0,0.0,0.0,0.0,-1.6064,-1.9214,-1.9887,-2.0171,-2.0459,-2.1992,-2.3509,0.0,0.0,0.0,0.0,0.0,0.0,0.0,0.0,0.0,0.0,0.0,0.0,0.0,0.0,-1.6573,-1.2015,-1.1933,-1.2969,-1.4277,0.0,0.0,0.0,0.0,0.0,0.0,0.0,0.0,0.0,0.0,0.0,0.0,0.0,0.0,-0.9119,0.0,-0.8532,0.0,0.0,0.0,0.0,0.0,0.0,0.0,0.0,-1.1982,-1.2307,-1.2283,-1.2276,-1.2316,0.0,-1.2702,-1.1863,0.0,0.0,0.0,0.0,0.0,0.0,0.0,0.0,-1.1522,-1.3828,-1.4808,-1.5884,-1.7018,-1.7083,-1.7083,-1.7075,-1.5759,-1.3838,-1.1362,-1.0408,-0.9685,0.0,0.0,0.0,0.0,0.0,0.0,0.0,0.0,0.0,0.0,0.0,0.0,0.0,0.0,0.0,0.0,0.0,0.0,0.0,0.0,0.0,0.0,0.0,-0.6864,0.0,0.0,0.0,0.0,0.0,0.0,0.0,0.0,0.0,-1.2839,-1.4483,-1.6875,-2.0055,-2.0474,-2.0505,-2.0508,0.0,0.0,0.0,0.0,0.0,0.0,0.0,-2.0416,-1.9867,-2.0712,-2.1278,-2.072,-1.8232,-1.7247,-2.0087,0.0,0.0,-1.6183,-1.5203,-1.5352,-1.6882,-1.5947,-1.4985,-1.5377,-1.541,-1.5193,0.0,0.0,0.0,0.0,0.0,0.0,0.0,0.0,-1.1219,-1.1212,0.0,-1.0602,0.0,0.0,0.0,0.0,0.0,0.0,0.0,0.0,-1.3161,-1.3445,-1.3452,-1.3445,-1.3512,-1.3634,-1.44,-1.4438,-1.3665,-1.1407,0.0,0.0,0.0,0.0,0.0,0.0,-1.2494,-1.3978,-1.5302,-1.6354,-1.705,-1.7083,-1.7092,-1.7027,-1.578,-1.4143,-1.2207,-1.2,-1.1366,-1.0035,-0.9204,0.0,0.0,0.0,0.0,0.0,0.0,0.0,0.0,0.0,0.0,0.0,0.0,0.0,0.0,0.0,0.0,0.0,0.0,0.0,0.0,-0.7074,0.0,0.0,0.0,0.0,0.0,0.0,0.0,0.0,0.0,0.0,-1.7355,-1.7016,-1.7583,-2.0133,0.0,0.0,0.0,0.0,-2.1747,-2.5192,-2.5699,-2.5699,-2.5699,-2.2947,-2.1324,-2.2787,0.0,0.0,-2.3173,-2.0448,-1.8807,-2.031,-2.0633,-2.0589,-2.0476,-1.8599,-1.7919,-1.9865,-1.8608,-1.7477,-1.7864,-1.781,-1.7803,-1.6173,0.0,0.0,0.0,0.0,-1.3588,-1.3653,-1.374,-1.3733,-1.3748,-1.3698,-1.3094,0.0,0.0,0.0,0.0,0.0,0.0,-1.2954,-1.3769,-1.4449,-1.4747,-1.4747,-1.4761,-1.4805,-1.4948,-1.5232,-1.5071,-1.4502,-1.385,-1.2993,-1.1987,0.0,0.0,0.0,0.0,-1.3978,-1.5318,-1.5795,-1.6354,-1.7066,-1.7083,-1.6881,-1.6464,-1.5586,-1.4611,-1.3588,-1.2547,-1.1817,-1.1378,-0.9694,0.0,0.0,0.0,0.0,0.0,0.0,0.0,0.0,0.0,0.0,0.0,0.0,0.0,0.0,0.0,0.0,0.0,0.0,0.0,-0.757,-0.8765,-0.923,0.0,0.0,0.0,0.0,0.0,0.0,0.0,0.0,0.0,-1.801,-1.8824,-1.9805,0.0,0.0,-2.1873,-2.2292,-2.1296,-2.1737,-2.5212,0.0,0.0,0.0,-2.4878,-2.3981,-2.3235,-2.3612,-2.4238,-2.4852,-2.4136,-2.2853,-2.0994,-2.1539,-2.2003,-2.0814,-2.0105,-1.985,-2.0365,-1.9987,-1.9361,-1.896,-1.8838,-1.9006,-1.8139,-1.6686,-1.6014,-1.5726,-1.5755,-1.5875,-1.5894,-1.5904,-1.5902,-1.5902,-1.5869,-1.5265,-1.4825,-1.4431,-1.3537,0.0,0.0,0.0,-1.476,-1.544,-1.5848,-1.6053,-1.6068,-1.606,-1.6123,-1.6219,-1.6335,-1.6241,-1.5906,-1.5702,-1.5247,-1.4479,0.0,0.0,-1.3876,-1.4391,-1.5087,-1.5918,-1.6289,-1.6654,-1.7075,-1.7083,-1.6678,-1.5791,-1.5332,-1.4677,-1.3787,-1.2894,-1.2298,-1.2,-1.1008,-0.9916,0.0,0.0,0.0,0.0,0.0,0.0,0.0,0.0,0.0,0.0,0.0,-0.1365,0.0,0.0,0.0,0.0,-0.811,-0.9852,-0.922,-1.0188,0.0,0.0,0.0,0.0,0.0,0.0,0.0,-1.6601,-1.6461,-1.7127,-1.9788,-2.0629,-2.1227,-2.1905,-2.2317,-2.2698,-2.3049,0.0,-2.3302,-2.5416,-2.5699,-2.5699,-2.5699,-2.5699,-2.5336,-2.4309,-2.4539,-2.5047,-2.5576,-2.5697,-2.4949,-2.3296,-2.3416,-2.378,-2.2808,-2.1559,-2.057,-2.0593,-2.0547,-2.0309,-1.9801,-1.9724,-1.9891,-1.9166,-1.8812,-1.7978,-1.7694,-1.7787,-1.7928,-1.7904,-1.777,-1.7754,-1.7768,-1.7728,-1.7126,-1.6782,-1.6607,-1.5534,0.0,0.0,-1.607,-1.6469,-1.7107,-1.7161,-1.7207,-1.7214,-1.7207,-1.7248,-1.7301,-1.7496,-1.7577,-1.7552,-1.7029,-1.6695,-1.656,-1.5064,-1.4367,-1.4569,-1.5423,-1.5887,-1.5967,-1.671,-1.7075,-1.7083,-1.7083,-1.6499,-1.5242,-1.5135,-1.4505,-1.3284,-1.3125,-1.2795,-1.2158,-1.2737,-1.1794,-0.9085,0.0,0.0,0.0,0.0,0.0,0.0,0.0,0.0,0.0,0.0,0.0,0.0,0.0,0.0,0.0,-1.0531,0.0,-1.0309,-1.1472,0.0,0.0,0.0,-1.3354,-1.2926,-1.431,-1.6516,-1.9633,0.0,0.0,0.0,0.0,-2.2181,-2.1935,-2.2721,-2.3302,-2.3322,-2.4637,-2.5699,-2.5699,-2.5699,-2.5699,-2.5699,-2.5699,-2.566,-2.5547,-2.5696,-2.5663,-2.5701,-2.5693,-2.5695,-2.5494,-2.56,-2.5547,-2.5656,-2.3072,-2.0928,-2.1163,-2.0779,-2.0524,-2.0588,-2.0513,-2.0431,-2.015,-1.9541,-1.9232,-1.8872,-1.8544,-1.8799,-1.8963,-1.915,-1.9201,-1.9335,-1.9371,-1.837,-1.7458,-1.6698,-1.6409,-1.6387,-1.6563,-1.659,-1.6785,-1.7066,-1.7114,-1.7154,-1.7214,-1.7214,-1.7248,-1.7315,-1.7412,-1.7438,-1.7445,-1.729,-1.6974,-1.6517,-1.6136,-1.5821,-1.5656,-1.6142,-1.6447,-1.6516,-1.6886,-1.7083,-1.7083,-1.7083,-1.6727,-1.5954,-1.5381,-1.4735,-1.3969,-1.34,-1.3009,-1.2861,-1.3002,-1.2257,-1.0476,-0.9312,0.0,0.0,0.0,0.0,0.0,0.0,0.0,0.0,0.0,-0.4428,-0.3701,0.0,-0.8394,0.0,-0.977,-1.1131,-1.2345,-1.3376,0.0,0.0,-1.4468,-1.458,-1.4485,-1.597,-1.7801,-1.9821,-1.9726,-2.0317,-2.2432,-2.384,-2.441,-2.3744,-2.4453,-2.5095,-2.5105,-2.5397,-2.5699,-2.5699,-2.5699,-2.5699,-2.5699,-2.5699,-2.5699,-2.5699,-2.5694,-2.5696,-2.5696,-2.5699,-2.5693,-2.5625,-2.5618,-2.5629,-2.5691,-2.4962,-2.4498,-2.4287,-2.2393,-2.0716,-2.1331,-2.0953,-2.0509,-2.063,-1.9971,-1.9877,-1.9544,-1.9097,-1.9394,-1.9585,-1.9667,-1.9766,-1.9852,-1.9781,-1.9391,-1.8894,-1.8349,-1.8335,-1.838,-1.8391,-1.8167,-1.8101,-1.8205,-1.8036,-1.7985,-1.7999,-1.8021,-1.8056,-1.8091,-1.814,-1.8168,-1.8146,-1.7897,-1.7597,-1.7228,-1.6669,-1.6318,-1.6196,-1.6353,-1.6471,-1.6562,-1.6761,-1.6873,-1.6881,-1.6898,-1.6491,-1.5561,-1.519,-1.4561,-1.3656,-1.3254,-1.3058,-1.3084,-1.3084,-1.2431,-1.0965,-0.9503,-0.833,0.0,0.0,0.0,0.0,0.0,0.0,0.0,0.0,0.0,0.0,0.0,-0.9653,0.0,-1.2059,0.0,-1.4153,-1.4374,-1.4789,-1.5766,-1.6687,-1.7054,-1.6569,-1.7811,-1.9067,-1.9983,-2.0108,-2.1034,-2.3467,-2.4794,-2.5344,-2.484,-2.5313,-2.5699,-2.5699,-2.5699,-2.5699,-2.5699,-2.5699,-2.5699,-2.5699,-2.5699,-2.5699,-2.5699,-2.57,-2.5694,-2.57,-2.5697,-2.5688,-2.5657,-2.5618,-2.5613,-2.5654,-2.5658,-2.5653,-2.541,-2.4155,-2.2538,-2.1445,-2.1148,-2.1011,-2.0871,-2.0232,-2.022,-1.9921,-1.9472,-1.9812,-1.9896,-1.9726,-1.9904,-1.9813,-1.9723,-2.018,-2.0384,-2.0307,-2.0343,-2.035,-2.0358,-1.9893,-1.9686,-1.9565,-1.9244,-1.9027,-1.8986,-1.9048,-1.9071,-1.9071,-1.9056,-1.9108,-1.9087,-1.8579,-1.8281,-1.8158,-1.704,-1.6434,-1.6415,-1.6299,-1.6263,-1.6371,-1.649,-1.657,-1.6528,-1.6599,-1.6041,-1.4859,-1.4844,-1.429,-1.3083,-1.2992,-1.3031,-1.3084,-1.3084,-1.2514,-1.1238,-0.9958,-0.9176,0.0,-0.7772,0.0,0.0,0.0,0.0,0.0,0.0,0.0,0.0,-0.9509,-1.0494,-1.6213,-1.561,-1.5193,-1.585,-1.5323,-1.5627,-1.7335,-1.8993,-1.9687,-1.8954,-1.9792,-2.0336,-2.0127,-2.047,-2.1942,-2.4684,-2.5375,-2.5505,-2.545,-2.5561,-2.5671,-2.5699,-2.5699,-2.5699,-2.5699,-2.5699,-2.5699,-2.5699,-2.5699,-2.5699,-2.5699,-2.5697,-2.5694,-2.5694,-2.5694,-2.5701,-2.5691,-2.5634,-2.5601,-2.5601,-2.5604,-2.5605,-2.5603,-2.5432,-2.4486,-2.2222,-2.1679,-2.1634,-2.1052,-2.0523,-2.0517,-2.0191,-1.974,-1.98,-1.9805,-1.98,-2.0022,-2.011,-2.002,-2.0319,-2.0243,-1.9938,-2.0019,-2.0149,-2.0229,-2.0259,-2.002,-1.9586,-1.9513,-1.9266,-1.8851,-1.8874,-1.8912,-1.9024,-1.9024,-1.9048,-1.9108,-1.8985,-1.8687,-1.8208,-1.7947,-1.7335,-1.6442,0.0,0.0,0.0,-1.6258,-1.625,-1.6285,-1.6285,-1.5951,-1.5216,-1.4782,0.0,-1.3662,-1.3162,-1.2969,-1.3084,-1.3084,0.0,0.0,0.0,0.0,0.0,0.0,0.0,0.0,0.0,0.0,0.0,-1.4067,-1.2936,-1.1308,-1.2212,-1.4007,-1.6448,-1.7608,-1.802,-1.759,-1.8047,-1.8567,-1.9089,-1.9663,-2.0292,-2.103,-2.1727,-2.1653,-2.0299,-2.2505,-2.4409,-2.502,-2.5332,-2.5429,-2.5493,-2.5568,-2.5639,-2.5728,-2.5728,-2.5699,-2.5699,-2.5699,-2.5699,-2.5699,-2.5699,-2.5699,-2.5699,-2.5697,-2.57,-2.57,-2.5695,-2.5693,-2.5697,-2.5638,-2.5601,-2.5601,-2.5607,-2.5603,-2.5601,-2.5601,-2.5413,-2.4739,-2.3602,-2.2591,-2.1488,0.0,-2.1001,-2.0532,0.0,-1.978,-1.9637,-1.939,-1.9617,-1.9813,-2.0087,-2.038,-2.0461,-2.0314,-2.056,-2.0758,-2.0875,-2.0873,-2.0696,-2.0401,-1.987,-1.9471,-1.9169,-1.8941,-1.8829,-1.8889,-1.8993,-1.9024,-1.9048,-1.9064,-1.8949,-1.8651,-1.8354,-1.7917,-1.7289,-1.6673,-1.6231,-1.6011,-1.6004,-1.5988,-1.5996,-1.6024,-1.5759,-1.512,0.0,0.0,0.0,0.0,0.0,0.0,0.0,0.0,0.0,0.0,0.0,-1.2058,-1.268,-1.1768,-0.906,-1.1109,-1.3743,-1.6357,-1.5801,-1.4547,-1.2613,-1.4328,-1.6153,-1.7744,-1.8634,-1.8957,-1.8613,-1.8963,-1.9301,-1.9532,-1.971,-2.0255,-2.1377,-2.2418,-2.2574,-2.1703,-2.2836,-2.4202,-2.5101,-2.5262,-2.5341,-2.5448,-2.5512,-2.5795,-2.6343,-2.605,-2.5699,-2.5699,-2.5699,-2.5699,-2.5699,-2.5699,-2.5699,-2.5699,-2.5693,-2.5693,-2.5699,-2.5694,-2.5701,-2.5692,-2.5638,-2.5601,-2.5601,-2.5601,-2.5601,-2.5601,-2.5601,-2.5601,-2.5554,-2.4563,-2.3441,-2.1939,-2.1548,-2.1554,-2.0923,-1.9931,-1.9913,-1.9564,-1.8993,0.0,0.0,0.0,-2.0308,-2.056,-2.0703,-2.1068,-2.1361,-2.1486,-2.1389,-2.1265,-2.1125,-2.007,-1.957,-1.9443,-1.8942,-1.8707,-1.8753,-1.8903,-1.8986,-1.9001,-1.9078,-1.9108,-1.9058,-1.8608,-1.8259,-1.7969,-1.6815,-1.6025,-1.5713,-1.5712,-1.5712,-1.5712,-1.577,-1.5536,-1.5021,-1.5072,-1.4949,-1.4625,-1.4624,-1.4698,-1.4786,-1.432,-1.3726,-1.3106,-1.3084,-1.3226,-1.3524,-1.4621,-1.4231,-1.1917,-1.3478,-1.5458,-1.7518,-1.6858,-1.5845,-1.4611,-1.5856,-1.7373,-1.896,-1.9113,-1.9095,-1.9099,-1.9102,-1.9248,-1.9645,-1.9643,-2.0116,-2.1486,-2.2897,-2.362,-2.3165,-2.3158,-2.3595,-2.4991,-2.5206,-2.5242,-2.535,-2.5454,-2.6026,-2.7079,-2.6809,-2.6137,-2.5787,-2.5699,-2.5699,-2.5699,-2.5699,-2.5699,-2.5699,-2.5699,-2.5699,-2.5699,-2.5699,-2.5697,-2.5693,-2.5652,-2.5608,-2.5601,-2.5601,-2.5601,-2.5601,-2.5601,-2.5601,-2.5543,-2.5038,-2.4339,-2.2149,-2.2083,-2.2083,-2.1464,-2.0502,-2.0472,-1.9901,-1.9005,-1.9269,-1.9466,-1.9656,-1.9856,-2.0061,-2.0334,-2.0573,-2.0822,-2.1082,-2.1287,-2.1111,0.0,-1.9891,-1.9398,-1.9003,-1.8519,-1.8393,-1.8549,-1.8721,-1.8889,-1.8993,-1.9085,-1.9108,-1.9094,-1.9014,-1.8433,-1.7367,-1.6583,-1.5939,-1.5387,-1.5366,-1.5366,-1.5373,-1.5366,-1.5381,-1.5389,-1.5004,-1.4871,-1.5001,-1.4596,-1.4397,-1.4467,-1.4495,-1.4023,-1.3004,-1.3063,-1.3673,-1.4861,-1.5184,-1.5102,-1.4712,-1.5558,-1.6589,-1.7639,-1.7774,-1.7345,-1.6306,-1.6478,-1.7373,-1.8913,-1.9113,-1.9104,-1.9108,-1.912,-1.9468,-2.0255,-1.9939,-2.0541,-2.2778,-2.4138,-2.4849,-2.4732,-2.4845,-2.4796,-2.5115,-2.5212,-2.5227,-2.5321,-2.5514,-2.612,-2.7415,-2.7969,-2.7238,-2.6089,-2.5699,-2.5699,-2.5699,-2.5699,-2.5699,-2.5699,-2.5699,-2.5699,-2.5699,-2.5699,-2.5697,-2.5692,-2.5639,-2.5608,-2.5601,-2.5601,-2.5601,-2.5601,-2.5601,-2.5601,-2.5601,-2.5426,-2.5319,-2.1943,-2.1949,-2.1999,-2.1625,-2.0813,-2.0331,-1.9708,-1.9011,-1.9158,-1.9198,-1.9251,-1.9356,-1.946,-1.9675,-2.0022,-2.0264,-2.0459,-2.0815,-2.0831,-2.0505,-1.9628,-1.9166,-1.8933,-1.8337,-1.8088,-1.8254,-1.863,-1.8829,-1.8927,-1.9033,-1.9108,-1.9108,-1.9108,-1.8462,-1.7265,-1.6902,-1.6271,-1.5335,-1.5306,-1.5306,-1.5306,-1.5306,-1.5358,-1.5507,-1.5284,-1.5306,-1.5575,-1.5384,-1.532,-1.5371,-1.5189,-1.5035,-1.4903,-1.4446,-1.4879,-1.637,-1.6495,-1.6263,-1.5694,-1.6561,-1.7277,-1.7724,-1.7936,-1.7845,-1.7352,-1.7665,-1.8223,-1.9014,-1.9113,-1.9276,-1.9674,-1.9348,-1.9635,-2.102,-2.0083,-2.0471,-2.2931,-2.4439,-2.5136,-2.5199,-2.521,-2.521,-2.521,-2.521,-2.5203,-2.5288,-2.5731,-2.6434,-2.6904,-2.8451,-2.9313,-2.8485,-2.6946,-2.5816,-2.5699,-2.5699,-2.5699,-2.5699,-2.5699,-2.5699,-2.5699,-2.5699,-2.57,-2.5693,-2.5642,-2.5608,-2.5601,-2.5601,-2.5601,-2.5601,-2.5601,-2.5601,-2.5601,-2.5601,-2.5601,-2.1704,-2.1704,-2.1812,-2.1566,-2.0997,-2.0175,-1.9546,-1.9167,-1.9047,-1.8993,-1.8993,-1.8993,-1.9046,-1.9223,-1.9565,-1.9805,-1.9952,-2.0258,-2.0403,-2.0286,-1.9244,-1.8812,-1.8877,-1.8056,-1.7754,-1.7915,-1.8397,-1.8676,-1.87,-1.8936,-1.9064,-1.9101,-1.9108,-1.8462,-1.7243,-1.7214,-1.659,-1.54,-1.5306,-1.5306,-1.5306,-1.5306,-1.5366,-1.5455,-1.5507,-1.566,-1.5883,-1.5983,-1.6011,-1.6088,-1.5828,-1.5897,-1.643,-1.5903,-1.6108,-1.7325,-1.7498,-1.7183,-1.6503,-1.7188,-1.7698,-1.7681,-1.7856,-1.7961,-1.8048,-1.845,-1.8834,-1.9044,-1.9113,-1.9422,-2.0128,-2.0345,-2.0626,-2.1644,-2.088,-2.123,-2.3228,-2.442,-2.5071,-2.5154,-2.5182,-2.521,-2.521,-2.521,-2.5225,-2.5379,-2.5999,-2.623,-2.614,-2.8115,-2.9469,-2.9172,-2.7355,-2.5865,-2.5699,-2.5699,-2.5699,-2.5699,-2.5699,-2.5699,-2.5699,-2.5699,-2.5697,-2.5689,-2.5639,-2.5604,-2.5601,-2.5601,-2.5601,-2.5601,-2.5601,-2.5601,-2.5601,-2.5601,-2.5601,-2.1704,-2.1704,-2.1698,-2.1522,-2.0985,-2.0199,-1.9774,-1.9636,-1.9203,-1.8993,-1.8993,-1.8993,-1.9058,-1.9223,-1.9374,-1.9512,-1.9656,-1.9811,-1.985,-1.973,-1.8748,-1.838,-1.8458,-1.7655,-1.7358,-1.7591,-1.8029,-1.8254,-1.8344,-1.8669,-1.8936,-1.9064,-1.9108,-1.847,-1.7352,-1.7214,-1.6583,-1.5342,-1.5306,-1.5306,-1.5306,-1.5306,-1.5321,-1.5418,-1.5426,-1.5477,-1.5646,-1.5668,-1.5726,-1.5856,-1.605,-1.6153,-1.6258,-1.6568,-1.7012,-1.7466,-1.7498,-1.7425,-1.7365,-1.7572,-1.7683,-1.7627,-1.7735,-1.7878,-1.7992,-1.8168,-1.8502,-1.8949,-1.9096,-1.9449,-2.0318,-2.1993,-2.2874,-2.2597,-2.2903,-2.3651,-2.4132,-2.4538,-2.4827,-2.5088,-2.5168,-2.521,-2.521,-2.5201,-2.5261,-2.5348,-2.5584,-2.5774,-2.578,-2.6147,-2.6683,-2.6459,-2.5767,-2.5757,-2.5699,-2.5699,-2.5699,-2.5699,-2.5699,-2.5699,-2.5699,-2.5699,-2.5697,-2.5689,-2.5641,-2.5608,-2.5601,-2.5601,-2.5601,-2.5601,-2.5601,-2.5601,-2.5601,-2.5601,-2.5601,-2.1423,-2.1429,-2.1486,-2.1375,-2.1038,-2.0729,-2.0244,-1.9774,-1.9558,-1.9293,-1.9011,-1.8993,-1.9046,-1.9117,-1.9164,-1.9198,-1.9251,-1.9297,-1.9344,-1.9252,-1.8203,-1.7816,-1.789,-1.7182,-1.6899,-1.7054,-1.7468,-1.7747,-1.7995,-1.8422,-1.8815,-1.9064,-1.9108,-1.8462,-1.7309,-1.7214,-1.6583,-1.5356,-1.5306,-1.5306,-1.5306,-1.5306,-1.5328,-1.5396,-1.5403,-1.5477,-1.5573,-1.5602,-1.5668,-1.5806,-1.6019,-1.6159,-1.6194,-1.672,-1.7142,-1.7451,-1.7498,-1.7498,-1.7498,-1.7599,-1.762,-1.7612,-1.7743,-1.7847,-1.7992,-1.8121,-1.8412,-1.8878,-1.9044,-1.9594,-2.0916,-2.2691,-2.3671,-2.3465,-2.3773,-2.4105,-2.4302,-2.4552,-2.4783,-2.497,-2.5113,-2.521,-2.5201,-2.5216,-2.5264,-2.5363,-2.5461,-2.555,-2.5677,-2.5699,-2.5699,-2.5699,-2.5699,-2.5699,-2.5699,-2.5699,-2.5699,-2.5699,-2.5699,-2.5699,-2.5699,-2.5699,-2.57,-2.5695,-2.5646,-2.5615,-2.5601,-2.5607,-2.5603,-2.5607,-2.5601,-2.5601,-2.5601,-2.5601,-2.5601,-2.1239,-2.1221,-2.1331,-2.1309,-2.1166,-2.1139,-2.0712,-2.0163,-1.9919,-1.9552,-1.9215,-1.9059,-1.8993,-1.8993,-1.8993,-1.8993,-1.8993,-1.8993,-1.8993,-1.8861,-1.7911,-1.7472,-1.7526,-1.6794,-1.6479,-1.6674,-1.6964,-1.7325,-1.7713,-1.8194,-1.8592,-1.8874,-1.8957,-1.836,-1.7242,-1.7146,-1.6557,-1.5391,-1.5306,-1.5306,-1.5306,-1.5306,-1.5336,-1.5374,-1.5366,-1.544,-1.5573,-1.5573,-1.5646,-1.5791,-1.5983,-1.6095,-1.6123,-1.6607,-1.7084,-1.7451,-1.7498,-1.7498,-1.7498,-1.7576,-1.7612,-1.7643,-1.7726,-1.7878,-1.8009,-1.8078,-1.8313,-1.8797,-1.9002,-1.9748,-2.1351,-2.289,-2.3741,-2.3822,-2.4055,-2.4215,-2.4275,-2.4512,-2.4734,-2.4865,-2.5066,-2.521,-2.5212,-2.5219,-2.5283,-2.5374,-2.5456,-2.5544,-2.5673,-2.5699,-2.5699,-2.5699,-2.5699,-2.5699,-2.5699,-2.5699,-2.5699,-2.5699,-2.5699,-2.5699,-2.5699,-2.5699,-2.5694,-2.5691,-2.5658,-2.5627,-2.561,-2.56,-2.5603,-2.5607,-2.5601,-2.5601,-2.5601,-2.5601,-2.5601,-2.1239,-2.1233,-2.1336,-2.1365,-2.1387,-2.1183,-2.1062,-2.0849,-2.0169,-1.9756,-1.9606,-1.9197,-1.8993,-1.8993,-1.8993,-1.8993,-1.8993,-1.8993,-1.8993,-1.8891,-1.7905,-1.7472,-1.7503,-1.6677,-1.6275,-1.6392,-1.6588,-1.7041,-1.7639,-1.7901,-1.8201,-1.8517,-1.8634,-1.8117,-1.7091,-1.7058,-1.6514,-1.542,-1.5306,-1.5306,-1.5306,-1.5306,-1.5306,-1.5306,-1.5298,-1.5388,-1.5492,-1.5507,-1.5602,-1.5814,-1.5926,-1.5968,-1.596,-1.6375,-1.6916,-1.7427,-1.7498,-1.7498,-1.7498,-1.7576,-1.762,-1.7683,-1.776,-1.7909,-1.8121,-1.7974,-1.8121,-1.8667,-1.921,-2.011,-2.1405,-2.2917,-2.3777,-2.3822,-2.4046,-2.4169,-2.421,-2.4476,-2.4707,-2.4837,-2.5038,-2.5189,-2.5201,-2.5257,-2.5302,-2.5378,-2.5464,-2.5544,-2.5654,-2.5699,-2.5699,-2.5699,-2.5699,-2.5699,-2.5699,-2.5699,-2.5699,-2.5699,-2.5699,-2.5699,-2.5699,-2.5693,-2.5697,-2.5697,-2.5683,-2.5666,-2.5619,-2.5604,-2.5604,-2.5607,-2.5607,-2.5601,-2.5607,-2.5601,-2.5601,-2.1239,-2.1233,-2.1221,-2.1342,-2.1365,-2.1321,-2.0999,-2.0535,-2.0276,-1.9777,-1.9318,-1.9071,-1.8993,-1.8993,-1.8993,-1.8993,-1.8993,-1.8993,-1.8993,-1.8873,-1.7899,-1.7418,-1.7352,-1.6433,-1.5975,-1.6013,-1.6088,-1.6466,-1.6999,-1.7249,-1.7585,-1.7969,-1.8161,-1.7744,-1.6923,-1.6899,-1.6419,-1.5413,-1.5306,-1.5306,-1.5306,-1.5306,-1.5306,-1.5306,-1.5306,-1.5351,-1.5514,-1.5507,-1.5588,-1.5806,-1.5877,-1.5906,-1.5898,-1.6436,-1.7,-1.7427,-1.7498,-1.7498,-1.7498,-1.7576,-1.762,-1.7683,-1.7766,-1.7909,-1.8078,-1.7983,-1.8035,-1.8875,-2.0945,-2.2156,-2.2129,-2.3098,-2.3804,-2.3813,-2.3889,-2.4028,-2.4182,-2.4345,-2.4535,-2.4809,-2.5066,-2.5199,-2.5212,-2.5225,-2.5251,-2.5313,-2.5387,-2.551,-2.5624,-2.5681,-2.5763,-2.5718,-2.5699,-2.5699,-2.5699,-2.5699,-2.5699,-2.5699,-2.5699,-2.5699,-2.5699,-2.5699,-2.5697,-2.5694,-2.5697,-2.5692,-2.5646,-2.5607,-2.56,-2.5599,-2.5608,-2.5603,-2.5603,-2.5607,-2.5601,-2.1239,-2.1204,-2.0986,-2.0968,-2.107,-2.0976,-2.0637,-2.0158,-2.0096,-1.974,-1.9252,-1.9077,-1.8993,-1.8993,-1.8993,-1.8993,-1.8993,-1.8993,-1.8993,-1.8891,-1.7905,-1.7418,-1.7243,-1.629,-1.5792,-1.5786,-1.583,-1.6126,-1.6539,-1.6752,-1.7041,-1.7455,-1.7713,-1.7463,-1.681,-1.6761,-1.6331,-1.5621,-1.5354,-1.5275,-1.5283,-1.5306,-1.5306,-1.5306,-1.5306,-1.5358,-1.5514,-1.5507,-1.5573,-1.5762,-1.5856,-1.5827,-1.5877,-1.6436,-1.7017,-1.7418,-1.7498,-1.7498,-1.7498,-1.7544,-1.7589,-1.7652,-1.7743,-1.7895,-1.8078,-1.8061,-1.8246,-1.9222,-2.1718,-2.3451,-2.3107,-2.3397,-2.3786,-2.3804,-2.3804,-2.3899,-2.4145,-2.4264,-2.4542,-2.4915,-2.5113,-2.5201,-2.521,-2.5205,-2.5373,-2.5618,-2.5746,-2.5775,-2.5599,-2.5954,-2.6301,-2.6396,-2.6001,-2.5787,-2.5699,-2.5699,-2.5699,-2.5699,-2.5699,-2.5699,-2.5699,-2.5699,-2.5699,-2.5697,-2.5696,-2.5701,-2.5668,-2.5619,-2.5609,-2.5605,-2.5605,-2.56,-2.5604,-2.5607,-2.5607,-2.1239,-2.1158,-2.0624,-2.0463,-2.0473,-2.0178,-1.9942,-1.9826,-1.9651,-1.9509,-1.9382,-1.9144,-1.8987,-1.8987,-1.8993,-1.8993,-1.8993,-1.8993,-1.8993,-1.8885,-1.7899,-1.7418,-1.7346,-1.629,-1.5792,-1.5792,-1.5913,-1.6076,-1.6281,-1.6423,-1.6631,-1.6999,-1.7256,-1.7176,-1.6842,-1.6624,-1.632,-1.5865,-1.543,-1.5266,-1.5283,-1.5306,-1.5306,-1.5306,-1.5306,-1.5351,-1.5485,-1.5514,-1.5602,-1.5777,-1.5806,-1.5814,-1.5885,-1.6336,-1.6865,-1.7386,-1.7498,-1.7498,-1.7498,-1.7514,-1.7527,-1.7597,-1.7712,-1.7859,-1.8124,-1.8619,-1.8904,-1.9317,-2.1714,-2.3741,-2.3714,-2.375,-2.3804,-2.3804,-2.3804,-2.3917,-2.4114,-2.4256,-2.4529,-2.5035,-2.5201,-2.521,-2.5212,-2.5319,-2.5629,-2.6209,-2.6513,-2.641,-2.603,-2.6575,-2.7369,-2.7771,-2.7413,-2.6887,-2.6264,-2.5699,-2.5699,-2.5699,-2.5699,-2.5699,-2.5699,-2.5699,-2.5699,-2.5697,-2.5701,-2.5692,-2.5677,-2.5636,-2.5625,-2.5628,-2.5619,-2.5605,-2.5605,-2.5604,-2.5607,-2.1239,-2.117,-2.0618,-2.0412,-2.0349,-1.9949,-1.9604,-1.9355,-1.9288,-1.9165,-1.8933,-1.8792,-1.878,-1.8839,-1.8833,-1.8893,-1.8987,-1.8993,-1.8993,-1.8813,-1.7905,-1.7418,-1.7219,-1.6329,-1.5792,-1.5792,-1.5836,-1.5913,-1.5951,-1.5994,-1.6175,-1.6429,-1.6693,-1.6625,-1.6474,-1.6628,-1.6438,-1.5793,-1.5702,-1.5568,-1.5333,-1.5306,-1.5306,-1.5306,-1.5306,-1.5328,-1.5411,-1.5485,-1.558,-1.5806,-1.5814,-1.5814,-1.5913,-1.6301,-1.689,-1.7394,-1.7498,-1.7498,-1.7498,-1.7497,-1.7497,-1.7544,-1.7597,-1.8056,-1.893,-2.0535,-2.1097,-2.0687,-2.2458,-2.3804,-2.3804,-2.3804,-2.3804,-2.3804,-2.3804,-2.3816,-2.3978,-2.4238,-2.4639,-2.5088,-2.521,-2.521,-2.5325,-2.5566,-2.6216,-2.6697,-2.7138,-2.7231,-2.7235,-2.7534,-2.8469,-2.9489,-2.8875,-2.8066,-2.717,-2.6283,-2.5806,-2.5845,-2.5845,-2.5709,-2.5699,-2.5699,-2.5699,-2.5697,-2.5699,-2.5693,-2.5676,-2.5666,-2.5652,-2.5661,-2.5664,-2.5642,-2.5615,-2.561,-2.5608,-2.1239,-2.1083,-2.0429,-2.0148,-2.0056,-1.9424,-1.8988,-1.8744,-1.8794,-1.8724,-1.8553,-1.8566,-1.8673,-1.8738,-1.8798,-1.8851,-1.8934,-1.8999,-1.8993,-1.8825,-1.7905,-1.743,-1.7219,-1.6284,-1.5792,-1.5792,-1.5792,-1.5792,-1.5792,-1.5836,-1.5931,-1.6194,-1.6405,-1.6492,-1.6475,-1.6639,-1.6444,-1.5903,-1.586,-1.5691,-1.5383,-1.5306,-1.5306,-1.5306,-1.5306,-1.5351,-1.5418,-1.5448,-1.5551,-1.5704,-1.577,-1.5814,-1.5863,-1.6309,-1.6865,-1.7346,-1.7498,-1.7498,-1.7498,-1.7482,-1.7482,-1.749,-1.7552,-1.8301,-1.9795,-2.1937,-2.2623,-2.2548,-2.3145,-2.3804,-2.3804,-2.3804,-2.3804,-2.3804,-2.3804,-2.3816,-2.3899,-2.4238,-2.4654,-2.5122,-2.5719,-2.5753,-2.5554,-2.6249,-2.6975,-2.7405,-2.7898,-2.8471,-2.8626,-2.8898,-2.9814,-3.0442,-3.0249,-2.9245,-2.7978,-2.6995,-2.604,-2.5981,-2.604,-2.5835,-2.5699,-2.5699,-2.5699,-2.5697,-2.5701,-2.5702,-2.568,-2.5687,-2.5683,-2.5697,-2.5701,-2.5681,-2.5652,-2.5605,-2.5609,-2.1146,-2.0997,-2.0102,-1.9688,-1.9528,-1.8644,-1.8242,-1.8173,-1.8294,-1.8408,-1.8416,-1.8512,-1.8566,-1.8619,-1.8679,-1.8792,-1.8851,-1.8946,-1.8927,-1.8644,-1.7905,-1.7352,-1.6979,-1.6182,-1.581,-1.5792,-1.5792,-1.5792,-1.5792,-1.5792,-1.5919,-1.6156,-1.6306,-1.6522,-1.6715,-1.6677,-1.6505,-1.612,-1.595,-1.5727,-1.5341,-1.5306,-1.5306,-1.5306,-1.5306,-1.5328,-1.5374,-1.5426,-1.5485,-1.5602,-1.5733,-1.5814,-1.5892,-1.634,-1.7075,-1.7707,-1.764,-1.7606,-1.7581,-1.7647,-1.773,-1.7862,-1.7746,-1.8491,-2.0601,-2.2171,-2.3209,-2.3403,-2.3684,-2.3804,-2.3804,-2.3804,-2.3804,-2.3804,-2.3804,-2.3867,-2.4027,-2.4339,-2.4701,-2.5229,-2.6403,-2.7272,-2.6023,-2.7138,-2.7749,-2.8189,-2.8642,-2.9331,-2.9786,-3.0017,-3.0479,-3.071,-3.0769,-3.0137,-2.8807,-2.8553,-2.7599,-2.6848,-2.6712,-2.6303,-2.5826,-2.5699,-2.5697,-2.5693,-2.5694,-2.5692,-2.5692,-2.5693,-2.5703,-2.5696,-2.57,-2.5701,-2.5674,-2.5639,-2.561,-2.063,-2.0381,-1.9898,-1.9476,-1.9046,-1.8342,-1.8084,-1.809,-1.8144,-1.8199,-1.8199,-1.8199,-1.8296,-1.8464,-1.8566,-1.8679,-1.8792,-1.8928,-1.874,-1.8344,-1.7742,-1.6943,-1.6332,-1.5966,-1.5792,-1.5792,-1.5792,-1.5792,-1.5792,-1.5792,-1.5919,-1.6044,-1.6082,-1.6262,-1.6478,-1.676,-1.656,-1.6122,-1.6284,-1.6,-1.5404,-1.5306,-1.5306,-1.5306,-1.5306,-1.5306,-1.5328,-1.5426,-1.5507,-1.561,-1.5733,-1.5814,-1.5916,-1.6977,-1.8081,-1.8894,-1.8982,-1.8568,-1.7872,-1.7988,-1.8527,-1.9052,-1.8301,-1.8657,-2.1163,-2.2439,-2.3185,-2.354,-2.3707,-2.3804,-2.3804,-2.3804,-2.3804,-2.3804,-2.3804,-2.3919,-2.4192,-2.4613,-2.4918,-2.5181,-2.6755,-2.7793,-2.8485,-2.8504,-2.8485,-2.8389,-2.904,-2.9883,-3.0231,-3.0414,-3.0567,-3.0682,-3.0677,-3.0336,-2.9912,-2.9786,-2.9192,-2.8125,-2.756,-2.6995,-2.6332,-2.5699,-2.57,-2.57,-2.5697,-2.5693,-2.5702,-2.5696,-2.5699,-2.5696,-2.5684,-2.5677,-2.567,-2.5653,-2.5615,-2.0033,-1.9913,-1.9536,-1.9178,-1.8845,-1.8296,-1.8084,-1.8084,-1.8084,-1.8084,-1.8084,-1.8084,-1.8144,-1.8253,-1.8506,-1.8614,-1.8709,-1.8659,-1.8482,-1.8145,-1.7418,-1.6636,-1.5966,-1.5798,-1.5792,-1.5792,-1.5792,-1.5792,-1.5792,-1.5792,-1.5875,-1.5994,-1.5994,-1.6126,-1.6448,-1.6733,-1.6577,-1.6039,-1.6196,-1.6031,-1.5248,-1.5245,-1.5275,-1.5275,-1.5306,-1.5306,-1.5306,-1.5433,-1.5514,-1.558,-1.5704,-1.5814,-1.5961,-1.7572,-1.9131,-2.0345,-1.9981,-1.9411,-1.9363,-1.9189,-1.9268,-1.9757,-1.9242,-1.9988,-2.1463,-2.2669,-2.3435,-2.3535,-2.3716,-2.3783,-2.3804,-2.3804,-2.3804,-2.3804,-2.3804,-2.3919,-2.4145,-2.4642,-2.5665,-2.6792,-2.8056,-2.902,-3.0109,-2.9698,-2.9297,-2.9086,-2.961,-3.0048,-3.0266,-3.039,-3.051,-3.0632,-3.0734,-3.0511,-3.0399,-3.0302,-2.9985,-2.904,-2.8187,-2.7651,-2.693,-2.6054,-2.5694,-2.5693,-2.5698,-2.5693,-2.5702,-2.5696,-2.5683,-2.5678,-2.5664,-2.566,-2.5652,-2.5648,-2.5619,-1.922,-1.9348,-1.8979,-1.8805,-1.8612,-1.8229,-1.792,-1.7975,-1.7969,-1.7969,-1.7969,-1.7969,-1.792,-1.803,-1.8236,-1.8477,-1.8377,-1.8199,-1.8044,-1.7601,-1.6973,-1.62,-1.5858,-1.5792,-1.5792,-1.5792,-1.5792,-1.5792,-1.5792,-1.5792,-1.5875,-1.5913,-1.5957,-1.6132,-1.6362,-1.6686,-1.641,-1.5865,-1.605,-1.5826,-1.5169,-1.5102,-1.5201,-1.5275,-1.5306,-1.5306,-1.5328,-1.5403,-1.5507,-1.5507,-1.5697,-1.5806,-1.6094,-1.799,-1.9984,-2.1151,-2.0696,-2.0505,-2.1201,-2.0315,-1.996,-2.039,-2.0923,-2.1446,-2.2083,-2.3033,-2.3638,-2.3611,-2.3738,-2.3783,-2.3795,-2.3804,-2.3834,-2.3834,-2.3825,-2.3867,-2.4087,-2.4603,-2.6162,-2.8938,-2.956,-3.0133,-3.0195,-3.0185,-3.0128,-2.9612,-2.9955,-2.9792,-2.993,-3.0014,-3.0275,-3.0611,-3.0708,-3.0789,-3.074,-3.0731,-3.0336,-2.9746,-2.8835,-2.8162,-2.7587,-2.6792,-2.6029,-2.5698,-2.57,-2.5693,-2.5693,-2.5686,-2.5678,-2.565,-2.5628,-2.5618,-2.5609,-2.5614,-2.561,-1.8071,-1.7997,-1.8101,-1.7914,-1.7589,-1.7456,-1.7418,-1.7418,-1.7418,-1.7407,-1.7412,-1.7423,-1.7418,-1.7412,-1.7705,-1.7776,-1.7546,-1.7554,-1.7369,-1.664,-1.617,-1.5858,-1.5754,-1.5754,-1.5792,-1.5792,-1.5792,-1.5792,-1.5792,-1.5792,-1.5792,-1.5836,-1.5875,-1.5963,-1.6281,-1.6397,-1.6211,-1.5663,-1.5825,-1.5586,-1.5033,-1.4966,-1.5126,-1.5275,-1.5312,-1.5327,-1.5336,-1.544,-1.5514,-1.5544,-1.5675,-1.5814,-1.6349,-1.896,-2.0937,-2.1452,-2.1557,-2.1433,-2.1566,-2.1072,-2.0869,-2.1566,-2.1498,-2.1734,-2.2753,-2.3339,-2.3716,-2.3712,-2.375,-2.3804,-2.3795,-2.3903,-2.4015,-2.4024,-2.3882,-2.3867,-2.4086,-2.4669,-2.5802,-2.6688,-2.8596,-3.0009,-3.0166,-3.0142,-3.0157,-3.0204,-2.997,-2.9578,-2.961,-2.9758,-3.0115,-3.0567,-3.0708,-3.0789,-3.0789,-3.0794,-3.0604,-3.0306,-2.957,-2.9087,-2.8502,-2.7621,-2.689,-2.6224,-2.5702,-2.5693,-2.5693,-2.5694,-2.5681,-2.564,-2.561,-2.5614,-2.5618,-2.5614,-2.5605,-1.6936,-1.694,-1.7133,-1.7061,-1.6802,-1.6775,-1.6775,-1.6781,-1.6781,-1.6781,-1.6781,-1.6775,-1.6775,-1.681,-1.6834,-1.6775,-1.6708,-1.6672,-1.6456,-1.5986,-1.5688,-1.5683,-1.5709,-1.576,-1.5798,-1.5792,-1.5792,-1.5792,-1.5792,-1.5792,-1.5792,-1.5792,-1.5792,-1.5963,-1.612,-1.6077,-1.5768,-1.5382,-1.532,-1.5113,-1.4695,-1.4756,-1.5004,-1.5302,-1.5529,-1.5696,-1.5748,-1.6232,-1.6213,-1.6038,-1.5861,-1.5814,-1.6409,-1.9221,-2.1254,-2.173,-2.1789,-2.1789,-2.164,-2.1512,-2.1511,-2.2223,-2.2074,-2.2449,-2.3008,-2.3535,-2.3762,-2.378,-2.3792,-2.3804,-2.3843,-2.4505,-2.462,-2.4538,-2.4185,-2.3985,-2.4412,-2.5935,-2.729,-2.7545,-2.9045,-2.976,-3.0034,-3.0074,-3.0142,-3.0195,-3.0204,-2.987,-2.9889,-3.0048,-3.0229,-3.053,-3.0708,-3.0794,-3.0789,-3.0794,-3.0789,-3.0598,-3.0314,-3.0121,-2.9923,-2.8874,-2.7789,-2.6801,-2.5693,-2.5693,-2.5702,-2.5697,-2.5697,-2.5678,-2.5654,-2.5646,-2.5628,-2.561,-2.5605,-1.5962,-1.6123,-1.6131,-1.6197,-1.6203,-1.6135,-1.614,-1.614,-1.614,-1.6145,-1.614,-1.6145,-1.6145,-1.611,-1.5896,-1.582,-1.5773,-1.5626,-1.5434,-1.5365,-1.5426,-1.5519,-1.5614,-1.5709,-1.5754,-1.5792,-1.5792,-1.5792,-1.5792,-1.5792,-1.5792,-1.5792,-1.5792,-1.5828,-1.5911,-1.5671,-1.5265,-1.486,-1.4741,-1.4541,-1.4271,-1.4447,-1.4798,-1.5432,-1.5816,-1.6195,-1.6441,-1.6881,-1.7147,-1.6647,-1.6099,-1.5845,-1.6687,-1.9111,-2.1464,-2.1759,-2.1789,-2.1789,-2.1789,-2.1769,-2.1895,-2.2237,-2.2529,-2.2822,-2.3116,-2.3499,-2.3741,-2.3804,-2.3804,-2.3804,-2.3889,-2.4926,-2.5454,-2.5355,-2.4757,-2.4614,-2.5273,-2.783,-2.9203,-2.9602,-2.9589,-2.9852,-2.9988,-3.0034,-3.0113,-3.018,-3.0204,-3.0228,-3.0228,-3.0279,-3.0418,-3.0538,-3.071,-3.0794,-3.0789,-3.0794,-3.0789,-3.0767,-3.0673,-3.0709,-3.0765,-3.0047,-2.87,-2.664,-2.5699,-2.5699,-2.5698,-2.5697,-2.5696,-2.57,-2.5681,-2.5661,-2.5636,-2.561,-2.56,-1.5252,-1.5424,-1.5498,-1.5517,-1.5526,-1.5522,-1.5522,-1.558,-1.5526,-1.5522,-1.5522,-1.5575,-1.558,-1.5456,-1.5269,-1.5027,-1.477,-1.4644,-1.4732,-1.4891,-1.5062,-1.5289,-1.5519,-1.5659,-1.5709,-1.5798,-1.5792,-1.5792,-1.5792,-1.5792,-1.5792,-1.5792,-1.5792,-1.5718,-1.5526,-1.5228,-1.49,-1.4455,-1.426,-1.4079,-1.3964,-1.4177,-1.4835,-1.567,-1.6117,-1.6561,-1.6967,-1.7209,-1.729,-1.7093,-1.63,-1.5949,-1.6529,-1.9269,-2.1207,-2.17,-2.1789,-2.1789,-2.1789,-2.1789,-2.1861,-2.2084,-2.2404,-2.2704,-2.3007,-2.345,-2.3732,-2.3804,-2.3804,-2.3804,-2.385,-2.5302,-2.588,-2.5812,-2.6209,-2.6562,-2.7044,-2.838,-2.9869,-2.9898,-2.9924,-2.9956,-3.0003,-3.0044,-3.0113,-3.019,-3.0218,-3.0245,-3.0272,-3.0357,-3.0491,-3.0624,-3.0744,-3.0784,-3.0789,-3.0794,-3.0789,-3.0798,-3.0752,-3.0751,-3.0781,-3.0787,-2.9597,-2.7793,-2.6265,-2.5693,-2.5701,-2.5693,-2.5686,-2.5681,-2.5668,-2.5678,-2.564,-2.5619,-2.56,-1.4803,-1.4866,-1.4907,-1.4902,-1.4966,-1.4902,-1.4907,-1.4966,-1.4907,-1.4961,-1.4907,-1.4902,-1.4956,-1.479,-1.4316,-1.3955,-1.3749,-1.3782,-1.4041,-1.4466,-1.4754,-1.5108,-1.5468,-1.5564,-1.5653,-1.5748,-1.5792,-1.5792,-1.5792,-1.5792,-1.5792,-1.5792,-1.5792,-1.5736,-1.5556,-1.5332,-1.5025,-1.4547,-1.4206,-1.3917,-1.3899,-1.4153,-1.4918,-1.5733,-1.6466,-1.7069,-1.7642,-1.8191,-1.8153,-1.7883,-1.7737,-1.6985,-1.7235,-1.8811,-2.1261,-2.1661,-2.1789,-2.1789,-2.1789,-2.1789,-2.1848,-2.192,-2.2248,-2.2573,-2.295,-2.3385,-2.375,-2.3804,-2.3804,-2.3804,-2.385,-2.5594,-2.6456,-2.6596,-2.7401,-2.8212,-2.8672,-2.9404,-2.9711,-2.9907,-2.9924,-2.9972,-3.0083,-3.0113,-3.0137,-3.0176,-3.0189,-3.0272,-3.0302,-3.0461,-3.0608,-3.0678,-3.0769,-3.0784,-3.0789,-3.0794,-3.0793,-3.0798,-3.0792,-3.0796,-3.0791,-3.0795,-3.0425,-2.934,-2.7925,-2.6442,-2.5693,-2.5701,-2.5678,-2.572,-2.5796,-2.5837,-2.5701,-2.5634,-2.5761,-1.4451,-1.4515,-1.4515,-1.4515,-1.4515,-1.4515,-1.452,-1.4515,-1.4515,-1.4515,-1.4515,-1.4515,-1.4515,-1.4304,-1.3774,-1.3175,-1.2774,-1.3074,-1.36,-1.4134,-1.443,-1.4834,-1.5198,-1.5418,-1.5513,-1.5703,-1.5748,-1.5792,-1.5792,-1.5792,-1.5792,-1.5792,-1.5792,-1.5746,-1.5672,-1.5314,-1.527,-1.4918,-1.4494,-1.4057,-1.4155,-1.4373,-1.4992,-1.6,-1.6819,-1.7534,-1.8325,-1.879,-1.8834,-1.8702,-1.8679,-1.8425,-1.7365,-1.9174,-2.0926,-2.1487,-2.17,-2.1789,-2.1789,-2.1789,-2.1789,-2.184,-2.2104,-2.2411,-2.2781,-2.3227,-2.3759,-2.3783,-2.3804,-2.3804,-2.4016,-2.5403,-2.642,-2.7207,-2.8209,-2.9456,-2.9564,-2.9832,-2.9813,-2.9907,-2.9907,-2.9364,-2.886,-2.9408,-2.9289,-2.934,-2.9362,-3.0263,-3.0343,-3.0599,-3.0732,-3.0753,-3.0789,-3.0789,-3.0789,-3.0789,-3.0793,-3.0798,-3.0792,-3.0797,-3.0791,-3.0793,-3.0384,-3.004,-2.9141,-2.7726,-2.6741,-2.5885,-2.6061,-2.6164,-2.6106,-2.6272,-2.6602,-2.651,-2.6422,-1.4387,-1.4515,-1.4515,-1.4515,-1.4515,-1.4515,-1.4515,-1.4515,-1.4515,-1.4515,-1.4515,-1.451,-1.4506,-1.4254,-1.3765,-1.3114,-1.2779,-1.2837,-1.3213,-1.3705,-1.4035,-1.4368,-1.4794,-1.5068,-1.5289,-1.5525,-1.5659,-1.5754,-1.5792,-1.5792,-1.5792,-1.5792,-1.5762,-1.5612,-1.5367,-1.5241,-1.4814,-1.4534,-1.435,-1.4241,-1.4277,-1.4326,-1.5145,-1.6177,-1.6988,-1.7693,-1.8629,-1.9022,-1.9037,-1.9037,-1.9066,-1.9104,-1.9109,-1.9729,-2.0478,-2.0982,-2.1394,-2.1789,-2.1789,-2.1789,-2.1789,-2.1811,-2.199,-2.2104,-2.2448,-2.3113,-2.3698,-2.3804,-2.3804,-2.3804,-2.3804,-2.4115,-2.5134,-2.6627,-2.8172,-2.9154,-2.9594,-2.8615,-2.8773,-2.9907,-2.9907,-2.7999,-2.6696,-2.762,-2.8364,-2.8433,-2.8715,-2.9615,-3.0381,-3.0632,-3.0789,-3.0789,-3.0789,-3.0789,-3.0798,-3.0794,-3.0792,-3.0791,-3.0794,-3.0788,-3.0791,-3.079,-3.0753,-3.0292,-2.9555,-2.8756,-2.7566,-2.6904,-2.6744,-2.7118,-2.7716,-2.7877,-2.7926,-2.7644,-2.7141,-1.4143,-1.4387,-1.4451,-1.4515,-1.4515,-1.4515,-1.4515,-1.4515,-1.4515,-1.4515,-1.4515,-1.4515,-1.4277,-1.3846,-1.3456,-1.3004,-1.2468,-1.2505,-1.2788,-1.3122,-1.3452,-1.3789,-1.4269,-1.4605,-1.488,-1.5249,-1.5474,-1.5653,-1.5742,-1.5792,-1.5792,-1.5792,-1.5792,-1.5738,-1.5414,-1.5438,-1.5342,-1.5109,-1.4742,-1.4347,-1.4247,-1.4352,-1.4866,-1.6053,-1.6788,-1.7658,-1.8419,-1.897,-1.9087,-1.9108,-1.9108,-1.9191,-1.9398,-1.9754,-2.008,-2.0331,-2.0877,-2.1378,-2.1721,-2.1759,-2.1789,-2.1789,-2.189,-2.1949,-2.2189,-2.2815,-2.3486,-2.3616,-2.3732,-2.3813,-2.3841,-2.3804,-2.4947,-2.6389,-2.809,-2.859,-2.8781,-2.7466,-2.7231,-2.8624,-2.9649,-2.7761,-2.6269,-2.6883,-2.7691,-2.7743,-2.8159,-2.9003,-2.9928,-3.0607,-3.0732,-3.0789,-3.0789,-3.0789,-3.0789,-3.0793,-3.0798,-3.0794,-3.079,-3.079,-3.0791,-3.0779,-3.0763,-3.0732,-3.0299,-2.9373,-2.8298,-2.7986,-2.7912,-2.8695,-2.9613,-2.9283,-2.8893,-2.8229,-2.7854,-1.3954,-1.4207,-1.4323,-1.4391,-1.4451,-1.4451,-1.4451,-1.4515,-1.4515,-1.4515,-1.4515,-1.4483,-1.4061,-1.3442,-1.3254,-1.2913,-1.2158,-1.2229,-1.2461,-1.2691,-1.2929,-1.3304,-1.3742,-1.4082,-1.4466,-1.4932,-1.5147,-1.5418,-1.5653,-1.5754,-1.5786,-1.5792,-1.5792,-1.578,-1.5786,-1.5744,-1.5672,-1.5588,-1.4841,-1.4471,-1.4372,-1.4285,-1.4787,-1.5606,-1.647,-1.7345,-1.8143,-1.8579,-1.884,-1.9108,-1.9108,-1.9191,-1.942,-1.9625,-1.9805,-2.0018,-2.041,-2.0877,-2.1324,-2.1587,-2.1738,-2.1797,-2.1827,-2.1907,-2.1998,-2.2571,-2.3199,-2.3562,-2.3698,-2.3922,-2.4076,-2.4058,-2.5002,-2.6465,-2.8064,-2.8343,-2.8417,-2.7554,-2.6591,-2.6927,-2.7845,-2.8068,-2.6996,-2.6908,-2.7046,-2.707,-2.7629,-2.8427,-2.9371,-3.0336,-3.071,-3.0789,-3.0789,-3.0794,-3.0792,-3.0794,-3.0791,-3.0796,-3.0797,-3.0791,-3.079,-3.0788,-3.0786,-3.0749,-3.0717,-3.0348,-2.9473,-2.9271,-2.9153,-2.9732,-3.0156,-3.0036,-2.9648,-2.8997,-2.8737,-1.3825,-1.383,-1.401,-1.4139,-1.4323,-1.4336,-1.4391,-1.4455,-1.4515,-1.4515,-1.4515,-1.4469,-1.4061,-1.3461,-1.3222,-1.2851,-1.213,-1.2229,-1.2372,-1.2515,-1.2759,-1.2939,-1.3271,-1.3557,-1.3899,-1.4368,-1.4674,-1.504,-1.5418,-1.562,-1.5703,-1.5798,-1.5792,-1.5792,-1.5792,-1.5792,-1.5792,-1.5644,-1.4974,-1.4722,-1.4657,-1.4636,-1.4761,-1.5545,-1.6141,-1.6859,-1.8092,-1.839,-1.8658,-1.9087,-1.9108,-1.9153,-1.9339,-1.9516,-1.9625,-1.9876,-2.0053,-2.046,-2.0852,-2.134,-2.1656,-2.1776,-2.1873,-2.1932,-2.1928,-2.2172,-2.2782,-2.3589,-2.3762,-2.4263,-2.4511,-2.4813,-2.5777,-2.65,-2.7812,-2.8288,-2.8418,-2.8269,-2.728,-2.6162,-2.6313,-2.7257,-2.8051,-2.8032,-2.7236,-2.7204,-2.7056,-2.7826,-2.9006,-2.9962,-3.0559,-3.0789,-3.0789,-3.0793,-3.0798,-3.0794,-3.079,-3.0796,-3.0791,-3.0791,-3.079,-3.0794,-3.0794,-3.0769,-3.0739,-3.072,-3.0675,-3.0208,-3.0023,-3.0455,-3.064,-3.0413,-3.0361,-2.9974,-2.9914,-1.3631,-1.3631,-1.3696,-1.3821,-1.4143,-1.4254,-1.4313,-1.4391,-1.4455,-1.4515,-1.4515,-1.4478,-1.4061,-1.3479,-1.3245,-1.2842,-1.2204,-1.2126,-1.2224,-1.2224,-1.2372,-1.2461,-1.2701,-1.2997,-1.3291,-1.37,-1.4061,-1.4577,-1.5096,-1.5385,-1.5614,-1.5748,-1.5792,-1.5792,-1.5792,-1.5792,-1.5792,-1.5656,-1.5284,-1.5057,-1.5289,-1.5347,-1.5467,-1.5993,-1.7083,-1.7564,-1.8201,-1.8593,-1.8862,-1.9036,-1.9101,-1.9153,-1.9228,-1.9325,-1.9545,-1.9833,-2.0061,-2.0262,-2.0467,-2.1015,-2.1495,-2.1776,-2.1911,-2.1978,-2.1928,-2.2296,-2.2917,-2.3482,-2.3831,-2.4284,-2.5108,-2.6149,-2.7215,-2.7247,-2.7405,-2.7852,-2.8428,-2.8433,-2.8258,-2.7257,-2.7303,-2.7865,-2.8616,-2.927,-2.8246,-2.7364,-2.7199,-2.7309,-2.8498,-2.9744,-3.0433,-3.0789,-3.0789,-3.0793,-3.0798,-3.0794,-3.079,-3.0791,-3.079,-3.0788,-3.0795,-3.0792,-3.0788,-3.0771,-3.075,-3.0722,-3.0701,-3.0701,-3.0716,-3.0755,-3.074,-3.0664,-3.0675,-3.0705,-3.0663,-1.3412,-1.3502,-1.3511,-1.37,-1.395,-1.4061,-1.4185,-1.4332,-1.4391,-1.4451,-1.4515,-1.4488,-1.4066,-1.3479,-1.3268,-1.2837,-1.2255,-1.2076,-1.2076,-1.2126,-1.2126,-1.217,-1.2323,-1.2564,-1.29,-1.317,-1.3695,-1.4264,-1.4858,-1.5153,-1.548,-1.5703,-1.5792,-1.5792,-1.5792,-1.5792,-1.5792,-1.571,-1.5429,-1.5329,-1.5633,-1.5728,-1.5946,-1.6325,-1.722,-1.7847,-1.8158,-1.8513,-1.8833,-1.9014,-1.9108,-1.9108,-1.9108,-1.9183,-1.9479,-1.9912,-2.0289,-2.0376,-2.0494,-2.0942,-2.1518,-2.1806,-2.1932,-2.2003,-2.213,-2.2497,-2.3207,-2.4442,-2.4299,-2.4393,-2.5724,-2.7245,-2.7879,-2.7795,-2.6163,-2.6397,-2.8213,-2.8825,-2.8782,-2.8464,-2.8676,-2.879,-2.9146,-2.9738,-2.8956,-2.8136,-2.8058,-2.7869,-2.8008,-2.9294,-3.058,-3.0789,-3.0789,-3.0798,-3.0798,-3.079,-3.0791,-3.079,-3.0796,-3.0796,-3.0789,-3.0794,-3.0788,-3.0782,-3.076,-3.0716,-3.0701,-3.0704,-3.0727,-3.0757,-3.0736,-3.0708,-3.0704,-3.0695,-3.0663,-1.3194,-1.3498,-1.3502,-1.3636,-1.3765,-1.3825,-1.4023,-1.4207,-1.4332,-1.4387,-1.4515,-1.4501,-1.4057,-1.3438,-1.3296,-1.2819,-1.2223,-1.2076,-1.2076,-1.2076,-1.2076,-1.2175,-1.2278,-1.2475,-1.2706,-1.3069,-1.3547,-1.4071,-1.4703,-1.5057,-1.543,-1.5703,-1.5792,-1.5792,-1.5792,-1.5792,-1.5792,-1.572,-1.5277,-1.5428,-1.5687,-1.5867,-1.6183,-1.6626,-1.727,-1.7942,-1.831,-1.8477,-1.8775,-1.9036,-1.9101,-1.9108,-1.9108,-1.9108,-1.9472,-2.0193,-2.0697,-2.0861,-2.0852,-2.1448,-2.17,-2.1797,-2.1915,-2.1978,-2.2113,-2.2639,-2.3682,-2.5033,-2.5059,-2.5357,-2.6684,-2.7972,-2.8207,-2.7746,-2.6177,-2.6087,-2.799,-2.9268,-2.9236,-2.9213,-2.9564,-2.9886,-3.0037,-3.0052,-2.9438,-2.8983,-2.8921,-2.8734,-2.8496,-2.9114,-3.0594,-3.0789,-3.0794,-3.0798,-3.0791,-3.0795,-3.0791,-3.0788,-3.0788,-3.0791,-3.0778,-3.0771,-3.0782,-3.0784,-3.0759,-3.0708,-3.0704,-3.07,-3.0704,-3.0711,-3.072,-3.0707,-3.0703,-3.0688,-3.0665,-1.3048,-1.3181,-1.3412,-1.3506,-1.3636,-1.3765,-1.389,-1.401,-1.4198,-1.4387,-1.4451,-1.4515,-1.4066,-1.3506,-1.3204,-1.2832,-1.2195,-1.2076,-1.2076,-1.2076,-1.2076,-1.2121,-1.2224,-1.2372,-1.2554,-1.2924,-1.3357,-1.3978,-1.4703,-1.5006,-1.5385,-1.5703,-1.5792,-1.5792,-1.5792,-1.5792,-1.5792,-1.5774,-1.5656,-1.5739,-1.6166,-1.646,-1.6804,-1.722,-1.7819,-1.8302,-1.865,-1.868,-1.8869,-1.905,-1.9079,-1.905,-1.9094,-1.9108,-1.9479,-2.022,-2.0811,-2.1246,-2.134,-2.1656,-2.1759,-2.1811,-2.1861,-2.194,-2.2056,-2.2354,-2.3833,-2.5667,-2.642,-2.6853,-2.7526,-2.8153,-2.8325,-2.7942,-2.7099,-2.74,-2.8565,-2.9353,-2.9727,-2.9699,-2.9914,-3.0049,-3.0194,-3.0328,-2.9864,-2.9813,-2.9777,-2.9922,-2.9786,-2.9922,-3.0789,-3.0789,-3.0794,-3.0788,-3.0765,-3.0492,-3.0635,-3.0797,-3.078,-3.0773,-3.076,-3.075,-3.0745,-3.0742,-3.0724,-3.0694,-3.0697,-3.07,-3.0659,-3.0659,-3.0659,-3.0676,-3.0686,-3.0688,-3.0674,-1.2663,-1.2796,-1.3023,-1.3207,-1.3335,-1.3584,-1.3765,-1.389,-1.4143,-1.4396,-1.4424,-1.4364,-1.3933,-1.3406,-1.3089,-1.2773,-1.2108,-1.2076,-1.2076,-1.2076,-1.2076,-1.2071,-1.2121,-1.2269,-1.2515,-1.2837,-1.3218,-1.3836,-1.449,-1.4829,-1.5249,-1.5665,-1.5798,-1.5792,-1.5792,-1.5792,-1.5792,-1.5786,-1.5764,-1.5908,-1.6336,-1.6737,-1.7203,-1.7673,-1.8189,-1.8724,-1.8912,-1.904,-1.9108,-1.9065,-1.8963,-1.8927,-1.9007,-1.9176,-1.9508,-2.0212,-2.0893,-2.1348,-2.1625,-2.1716,-2.1789,-2.1789,-2.1869,-2.189,-2.1969,-2.2186,-2.3648,-2.5463,-2.7453,-2.7974,-2.7978,-2.8469,-2.8343,-2.7969,-2.8052,-2.8324,-2.876,-2.9569,-2.9907,-2.9907,-2.9924,-3.0079,-3.0234,-3.0373,-3.0327,-3.0481,-3.0646,-3.0744,-3.0789,-3.0789,-3.0789,-3.0789,-3.0794,-3.0788,-3.0453,-2.9905,-3.0176,-3.0709,-3.0706,-3.0599,-3.073,-3.0718,-3.0714,-3.0704,-3.0704,-3.0697,-3.0707,-3.0693,-3.0644,-3.061,-3.0584,-3.0618,-3.0651,-3.0671,-3.0665,-1.2055,-1.2355,-1.2389,-1.2637,-1.298,-1.3271,-1.3614,-1.3974,-1.4172,-1.4277,-1.441,-1.3992,-1.3603,-1.3231,-1.2855,-1.2531,-1.2154,-1.2085,-1.2076,-1.2076,-1.2076,-1.2076,-1.2175,-1.2323,-1.2515,-1.2803,-1.318,-1.36,-1.4181,-1.4645,-1.5114,-1.5576,-1.5754,-1.5798,-1.5792,-1.5792,-1.5792,-1.5792,-1.5836,-1.5969,-1.6281,-1.6637,-1.7096,-1.7585,-1.8147,-1.8592,-1.8791,-1.8981,-1.9071,-1.8956,-1.8666,-1.8724,-1.8854,-1.9065,-1.9603,-2.0247,-2.095,-2.1394,-2.1708,-2.1789,-2.1789,-2.1789,-2.184,-2.1848,-2.1907,-2.2094,-2.3301,-2.5297,-2.7318,-2.7969,-2.8485,-2.8515,-2.8551,-2.8451,-2.846,-2.8782,-2.9161,-2.958,-2.9822,-2.9907,-2.9907,-3.0025,-3.0215,-3.0365,-3.0549,-3.0618,-3.0701,-3.0759,-3.0789,-3.0789,-3.0789,-3.0789,-3.0798,-3.0788,-3.0378,-2.9915,-3.0088,-3.0748,-3.0417,-3.0297,-3.0475,-3.0704,-3.0704,-3.0707,-3.0707,-3.07,-3.07,-3.0678,-3.0629,-3.0585,-3.053,-3.0529,-3.0565,-3.0634,-3.0636,-1.1852,-1.1967,-1.2278,-1.2453,-1.2565,-1.2676,-1.3037,-1.3522,-1.3665,-1.3651,-1.3639,-1.3525,-1.325,-1.2842,-1.2765,-1.2411,-1.2204,-1.2076,-1.2076,-1.2076,-1.2076,-1.2076,-1.2175,-1.2274,-1.2505,-1.274,-1.3069,-1.3404,-1.3972,-1.4449,-1.4971,-1.5396,-1.5665,-1.5748,-1.5792,-1.5792,-1.5792,-1.5792,-1.5792,-1.5975,-1.6194,-1.6552,-1.7012,-1.7509,-1.8028,-1.8475,-1.8753,-1.8981,-1.9108,-1.9014,-1.8927,-1.8825,-1.8122,-1.876,-1.9493,-2.0553,-2.1079,-2.1425,-2.173,-2.1789,-2.1789,-2.1789,-2.1811,-2.1894,-2.1903,-2.2157,-2.2982,-2.5183,-2.679,-2.7441,-2.815,-2.8397,-2.8515,-2.8587,-2.8662,-2.8901,-2.9251,-2.9551,-2.9787,-2.9907,-2.9907,-3.0009,-3.0192,-3.0431,-3.0585,-3.0644,-3.0694,-3.0759,-3.0789,-3.0789,-3.0789,-3.0789,-3.0063,-2.9848,-3.0515,-3.0323,-3.0488,-3.0659,-3.0297,-3.0171,-3.0508,-3.0698,-3.0704,-3.07,-3.07,-3.07,-3.07,-3.0661,-3.0611,-3.0549,-3.0501,-3.0482,-3.0472,-3.0548,-3.0575,-1.1614,-1.1653,-1.1854,-1.2025,-1.2188,-1.2329,-1.2582,-1.2836,-1.3019,-1.3108,-1.3123,-1.2969,-1.276,-1.2543,-1.2404,-1.2236,-1.204,-1.2071,-1.2076,-1.2076,-1.2076,-1.2076,-1.2126,-1.2224,-1.2417,-1.2642,-1.2832,-1.3084,-1.3637,-1.434,-1.4909,-1.5255,-1.557,-1.5748,-1.5792,-1.5792,-1.5792,-1.5792,-1.5836,-1.5925,-1.6175,-1.6515,-1.6934,-1.7393,-1.7922,-1.8365,-1.876,-1.8995,-1.9108,-1.9021,-1.8963,-1.8709,-1.8403,-1.9148,-2.0047,-2.0999,-2.1206,-2.1487,-2.173,-2.1789,-2.1789,-2.1789,-2.1789,-2.1878,-2.1945,-2.209,-2.359,-2.5358,-2.6112,-2.6856,-2.7616,-2.8252,-2.8424,-2.8587,-2.8776,-2.8943,-2.924,-2.9532,-2.9726,-2.9865,-2.9972,-3.0049,-3.0228,-3.0462,-3.061,-3.0642,-3.0694,-3.0774,-3.0789,-3.0789,-3.0789,-3.0789,-2.9586,-2.8669,-2.9578,-3.0488,-3.0322,-3.0256,-3.0141,-3.0127,-3.0534,-3.0571,-3.0445,-3.0545,-3.07,-3.0642,-3.0535,-3.0622,-3.0593,-3.053,-3.047,-3.0407,-3.0398,-3.0439,-3.0449,-1.128,-1.1289,-1.1272,-1.1541,-1.1809,-1.2145,-1.2165,-1.2052,-1.2329,-1.2615,-1.269,-1.2436,-1.2271,-1.2189,-1.2039,-1.1963,-1.1927,-1.2026,-1.2076,-1.2076,-1.2076,-1.2076,-1.2126,-1.2224,-1.2318,-1.2471,-1.2618,-1.2798,-1.3208,-1.3909,-1.4674,-1.5062,-1.5558,-1.5786,-1.5792,-1.5792,-1.5792,-1.5792,-1.5836,-1.5881,-1.6126,-1.6466,-1.6892,-1.7282,-1.7781,-1.8282,-1.8666,-1.8934,-1.9108,-1.8905,-1.8767,-1.8673,-1.9075,-1.9628,-2.0583,-2.115,-2.1269,-2.1433,-2.1617,-2.1746,-2.1797,-2.1797,-2.1789,-2.1878,-2.1936,-2.1928,-2.3277,-2.5068,-2.6032,-2.6917,-2.7725,-2.8252,-2.8524,-2.8662,-2.8801,-2.9003,-2.9261,-2.9532,-2.9761,-2.9898,-3.0003,-3.0094,-3.0234,-3.0471,-3.0611,-3.0634,-3.0698,-3.0779,-3.0789,-3.0789,-3.0794,-3.0794,-3.0015,-2.9176,-2.9679,-3.031,-2.9883,-2.9746,-2.9861,-3.0146,-3.0586,-3.0445,-3.0153,-2.9535,-2.8874,-3.004,-3.0331,-3.0323,-3.0362,-3.053,-3.0446,-3.0343,-3.033,-3.0323,-3.0343,-1.1272,-1.1272,-1.1272,-1.1494,-1.1733,-1.1623,-1.1674,-1.1815,-1.1662,-1.1782,-1.1948,-1.1886,-1.1837,-1.1824,-1.1803,-1.1778,-1.1877,-1.1923,-1.2026,-1.2076,-1.2076,-1.2076,-1.2076,-1.2126,-1.2175,-1.218,-1.2274,-1.2515,-1.2992,-1.3695,-1.4387,-1.4852,-1.5412,-1.5792,-1.5792,-1.5792,-1.5792,-1.5792,-1.5836,-1.5925,-1.6144,-1.6436,-1.6772,-1.7269,-1.7767,-1.8189,-1.8581,-1.8972,-1.9078,-1.9036,-1.8992,-1.8992,-1.9109,-1.9601,-2.0235,-2.0861,-2.1119,-2.1277,-2.1472,-2.1664,-2.1733,-2.1768,-2.1819,-2.1894,-2.1924,-2.1878,-2.2728,-2.4594,-2.6145,-2.7063,-2.7779,-2.8234,-2.8612,-2.8712,-2.8825,-2.9062,-2.9291,-2.9551,-2.9795,-2.9921,-3.0049,-3.0152,-3.0283,-3.0417,-3.0558,-3.0649,-3.0732,-3.0789,-3.0789,-3.0794,-3.0789,-3.0789,-3.0794,-3.0378,-3.0518,-3.0087,-2.9619,-2.9771,-3.0024,-3.0331,-3.0557,-2.991,-2.9127,-2.7446,-2.6796,-2.8097,-2.9227,-2.9795,-2.9905,-3.0037,-3.0243,-3.0069,-3.0087,-3.0121,-3.0188,-1.1272,-1.1272,-1.1272,-1.1392,-1.1524,-1.1357,-1.14,-1.152,-1.1362,-1.1372,-1.1523,-1.1523,-1.1523,-1.1519,-1.1573,-1.1673,-1.1828,-1.1868,-1.1977,-1.2076,-1.2076,-1.2076,-1.2076,-1.2076,-1.2076,-1.2081,-1.2126,-1.2372,-1.2871,-1.3478,-1.4071,-1.4577,-1.5238,-1.5703,-1.5748,-1.5798,-1.5792,-1.5792,-1.5792,-1.5925,-1.615,-1.6392,-1.6723,-1.7179,-1.7713,-1.8142,-1.8535,-1.8889,-1.9078,-1.9108,-1.9079,-1.9072,-1.9206,-1.9515,-2.0015,-2.0486,-2.0835,-2.1119,-2.1371,-2.1565,-2.1672,-2.1746,-2.1789,-2.1857,-2.2007,-2.2095,-2.2936,-2.4767,-2.681,-2.7914,-2.8093,-2.8506,-2.8578,-2.8662,-2.8848,-2.9093,-2.9364,-2.9654,-2.9872,-3.0074,-3.0142,-3.0171,-3.0296,-3.045,-3.0585,-3.0676,-3.0757,-3.0789,-3.0789,-3.0789,-3.0793,-3.0792,-3.0788,-3.0777,-3.0664,-3.0053,-2.9324,-2.9618,-2.9915,-2.9586,-2.9275,-2.879,-2.7951,-2.6621,-2.5931,-2.6427,-2.7459,-2.8465,-2.8951,-2.9022,-2.939,-2.9719,-2.9816,-2.9956,-3.0056,-1.1226,-1.1267,-1.1226,-1.1226,-1.1276,-1.1276,-1.123,-1.128,-1.1267,-1.1272,-1.1322,-1.1322,-1.1272,-1.1322,-1.1423,-1.1573,-1.1673,-1.1773,-1.1927,-1.2076,-1.2076,-1.2076,-1.2076,-1.2076,-1.2076,-1.2076,-1.2126,-1.2328,-1.2676,-1.3233,-1.3795,-1.4357,-1.4949,-1.549,-1.5614,-1.5754,-1.5792,-1.5792,-1.5836,-1.5875,-1.6044,-1.63,-1.6644,-1.7137,-1.7679,-1.8196,-1.8496,-1.8805,-1.9033,-1.9108,-1.9108,-1.9108,-1.9221,-1.9464,-1.9797,-2.0227,-2.0553,-2.0974,-2.1386,-2.1462,-2.1639,-2.1738,-2.1759,-2.1865,-2.2016,-2.2503,-2.3346,-2.5046,-2.7076,-2.8156,-2.8369,-2.8533,-2.8569,-2.8662,-2.8872,-2.9125,-2.9425,-2.9726,-2.9946,-3.0157,-3.0204,-3.0218,-3.0308,-3.0451,-3.0584,-3.069,-3.0746,-3.0774,-3.0794,-3.0788,-3.079,-3.0798,-3.0791,-3.0771,-3.075,-3.0034,-2.9197,-2.873,-2.8836,-2.8417,-2.8013,-2.7637,-2.7077,-2.6242,-2.5815,-2.6028,-2.644,-2.7346,-2.7696,-2.8262,-2.8833,-2.9407,-2.9791,-2.9913,-2.9971,-1.0972,-1.0972,-1.0977,-1.0972,-1.0972,-1.0977,-1.1023,-1.1124,-1.112,-1.1171,-1.1272,-1.1272,-1.1272,-1.1272,-1.1322,-1.1423,-1.1669,-1.1723,-1.1923,-1.2071,-1.2026,-1.2076,-1.2076,-1.2026,-1.2076,-1.2076,-1.2126,-1.2278,-1.2524,-1.2944,-1.3415,-1.3947,-1.4637,-1.5128,-1.539,-1.5576,-1.5798,-1.5792,-1.5792,-1.5836,-1.5875,-1.6138,-1.6491,-1.6947,-1.7434,-1.7882,-1.8319,-1.8714,-1.895,-1.9071,-1.9108,-1.9108,-1.9228,-1.9413,-1.9676,-1.9912,-2.0239,-2.0613,-2.0926,-2.1197,-2.136,-2.1746,-2.1797,-2.1865,-2.2007,-2.2177,-2.3464,-2.5354,-2.7035,-2.7918,-2.8255,-2.8474,-2.8552,-2.8678,-2.8872,-2.9172,-2.9474,-2.9743,-2.9994,-3.0128,-3.0204,-3.0218,-3.0226,-3.0409,-3.0608,-3.0694,-3.0774,-3.0794,-3.0789,-3.0796,-3.0791,-3.0456,-3.0367,-3.0789,-3.0753,-2.9955,-2.9149,-2.8466,-2.7834,-2.7608,-2.7216,-2.6601,-2.6009,-2.5698,-2.5601,-2.5737,-2.6197,-2.6683,-2.7434,-2.8097,-2.8594,-2.9101,-2.9534,-2.9885,-2.9977]}]]